Date StartTime U_cm/s V_cm/s W_cm/s Ustd_cm/s Vstd_cm/s Wstd_cm/s Uvar_(cm/s)^2 Vvar_(cm/s)^2 Wvar_(cm/s)^2 KE_(m/s)^2 TurbulentKE_(m/s)^2 HorizWindSpeed_cm/s FrictionSpeec_cm/s DragCoef SpeedOfSound_m/s SonicTemperature_C Pressure_mb 
06/17/2013  00:00:00      -77.907       81.195      -21.512       47.107       40.438       21.169     2219.058     1635.199      448.108        0.871        0.215      112.526       23.250        0.043      343.484       19.628      864.484
06/17/2013  00:01:00      -27.705       55.038       -1.453       20.556       24.066       15.834      422.532      579.149      250.730        0.253        0.063       61.618       14.097        0.052      343.282       19.283      864.484
06/17/2013  00:02:00      -61.868       80.246      -15.201       33.319       35.905       22.875     1110.135     1289.174      523.264        0.671        0.146      101.327       20.881        0.042      343.411       19.504      864.485
06/17/2013  00:03:00      -81.419       55.204      -16.740       38.503       40.374       20.323     1482.455     1630.043      413.026        0.674        0.176       98.369       21.744        0.049      343.404       19.493      864.476
06/17/2013  00:04:00      -74.954      -23.015      -12.177       60.016       39.606       19.792     3601.965     1568.650      391.734        0.593        0.278       78.408       21.658        0.076      343.393       19.472      864.472
06/17/2013  00:05:00     -112.586      -48.638        9.123       83.725       93.755       36.630     7009.927     8789.932     1341.746        1.613        0.857      122.643       41.097        0.112      343.270       19.261      864.473
06/17/2013  00:06:00     -113.004      -31.513       -8.501       52.067       43.157       33.354     2710.952     1862.509     1112.476        0.976        0.284      117.315       24.722        0.044      343.210       19.161      864.470
06/17/2013  00:07:00      -85.549      -50.684       -9.170       48.841       41.083       27.824     2385.435     1687.806      774.193        0.741        0.242       99.436       20.326        0.042      343.189       19.124      864.478
06/17/2013  00:08:00     -117.849      -48.117      -11.505       49.299       29.036       27.575     2430.394      843.061      760.387        1.018        0.202      127.293       18.344        0.021      343.153       19.066      864.481
06/17/2013  00:09:00     -134.282      -65.114       -3.485       69.428       39.200       31.459     4820.303     1536.673      989.673        1.481        0.367      149.236       31.343        0.044      343.031       18.854      864.478
06/17/2013  00:10:00     -136.046      -29.694       -1.799       49.816       35.676       21.284     2481.641     1272.796      453.013        1.180        0.210      139.249       19.977        0.021      342.945       18.709      864.471
06/17/2013  00:11:00     -136.872      -63.168       -1.169       65.615       60.545       34.160     4305.314     3665.675     1166.907        1.593        0.457      150.745       34.335        0.052      342.849       18.546      864.467
06/17/2013  00:12:00     -186.560      -24.905      -17.573       51.643       47.976       31.316     2667.007     2301.679      980.667        2.084        0.297      188.215       27.254        0.021      342.859       18.563      864.462
06/17/2013  00:13:00     -121.694      -62.209       -4.268       50.886       47.857       32.712     2589.415     2290.250     1070.047        1.232        0.297      136.673       16.955        0.015      342.840       18.530      864.449
06/17/2013  00:14:00     -139.159      -70.404       -4.051       75.254       51.512       33.109     5663.136     2653.530     1096.233        1.687        0.471      155.955       32.186        0.043      342.719       18.323      864.447
06/17/2013  00:15:00     -134.231      -12.864       -7.847       63.376       46.139       30.528     4016.516     2128.820      931.944        1.266        0.354      134.846       17.042        0.016      342.701       18.294      864.425
06/17/2013  00:16:00     -116.402      -39.353      -10.415       55.441       57.367       23.275     3073.659     3290.991      541.709        1.106        0.345      122.874       18.461        0.023      342.636       18.184      864.410
06/17/2013  00:17:00     -127.035      -38.820      -18.550       46.181       36.174       32.130     2132.657     1308.561     1032.332        1.123        0.224      132.834       23.635        0.032      342.669       18.241      864.393
06/17/2013  00:18:00     -180.018      -19.182      -10.503       60.156       45.598       28.033     3618.785     2079.135      785.831        1.968        0.324      181.037       24.139        0.018      342.511       17.968      864.397
06/17/2013  00:19:00     -140.846      -24.248      -15.655       58.888       56.860       30.292     3467.747     3233.016      917.583        1.414        0.381      142.918       28.164        0.039      342.445       17.860      864.392
06/17/2013  00:20:00     -165.412      -45.545       -8.081       57.379       56.449       34.820     3292.354     3186.521     1212.426        1.859        0.385      171.568       35.568        0.043      342.431       17.835      864.386
06/17/2013  00:21:00     -144.822        1.709      -16.610       44.121       55.043       27.055     1946.705     3029.701      731.992        1.348        0.285      144.832       19.111        0.017      342.367       17.725      864.365
06/17/2013  00:22:00     -109.793       58.316      -20.295       35.524       72.412       37.293     1261.931     5243.435     1390.761        1.188        0.395      124.319       26.040        0.044      342.417       17.812      864.347
06/17/2013  00:23:00     -117.067       49.549      -18.532       57.672       54.514       29.703     3326.012     2971.780      882.247        1.184        0.359      127.121       25.073        0.039      342.482       17.922      864.314
06/17/2013  00:24:00     -158.583       90.354      -27.758       63.016       60.434       36.281     3971.077     3652.250     1316.279        2.151        0.447      182.517       30.416        0.028      342.512       17.973      864.312
06/17/2013  00:25:00      -42.840      -19.448        7.381       49.663       41.313       26.487     2466.402     1706.788      701.566        0.357        0.244       47.047       20.275        0.186      342.497       17.948      864.286
06/17/2013  00:26:00     -121.383      -50.475       -8.984       54.262       36.493       23.760     2944.311     1331.756      564.518        1.110        0.242      131.460       20.082        0.023      342.457       17.880      864.265
06/17/2013  00:27:00     -267.035      -41.447      -15.763       74.839       54.330       40.090     5600.915     2951.715     1607.232        4.171        0.508      270.232       39.718        0.022      342.622       18.157      864.270
06/17/2013  00:28:00     -200.824        3.092      -18.189       56.767       43.523       29.870     3222.476     1894.211      892.193        2.334        0.300      200.848       19.512        0.009      342.527       17.997      864.272
06/17/2013  00:29:00     -167.931      -36.042       -6.152       78.798       59.653       34.532     6209.105     3558.456     1192.446        2.025        0.548      171.755       37.368        0.047      342.458       17.878      864.277
06/17/2013  00:30:00     -154.297      -11.112      -18.278       67.939       55.451       32.704     4615.719     3074.854     1069.533        1.651        0.438      154.697       28.052        0.033      342.499       17.950      864.258
06/17/2013  00:31:00     -107.674      -10.098      -12.202       70.669       24.881       22.673     4994.067      619.041      514.087        0.898        0.306      108.147       30.396        0.079      342.399       17.781      864.239
06/17/2013  00:32:00      -73.446       -5.554       -0.368       40.513       33.803       15.929     1641.288     1142.611      253.719        0.423        0.152       73.655       14.691        0.040      342.322       17.648      864.217
06/17/2013  00:33:00     -121.790      -33.547      -11.272       48.848       42.323       21.620     2386.175     1791.266      467.428        1.036        0.232      126.326        5.427        0.002      342.414       17.806      864.229
06/17/2013  00:34:00      -74.652       -9.071       -4.380       28.282       53.365       25.210      799.851     2847.873      635.556        0.498        0.214       75.201       19.692        0.069      342.503       17.959      864.212
06/17/2013  00:35:00      -83.782      -42.914        4.794       39.627       29.577       21.114     1570.311      874.773      445.806        0.589        0.145       94.133       11.797        0.016      342.391       17.768      864.217
06/17/2013  00:36:00      -86.098      -17.865      -14.960       27.287       43.128       20.270      744.573     1860.064      410.881        0.549        0.151       87.932       13.763        0.024      342.443       17.859      864.215
06/17/2013  00:37:00      -20.438      -11.625        6.388       31.680       28.458       13.294     1003.642      809.879      176.728        0.129        0.100       23.513       12.629        0.288      342.413       17.804      864.201
06/17/2013  00:38:00      -33.630       17.002       -1.818       22.360       24.849       15.155      499.972      617.484      229.668        0.138        0.067       37.684       12.975        0.119      342.421       17.818      864.184
06/17/2013  00:39:00      -90.070      -23.777       -6.054       28.759       26.208       18.072      827.098      686.864      326.612        0.528        0.092       93.155       10.764        0.013      342.588       18.103      864.173
06/17/2013  00:40:00     -114.992       17.838      -18.298       42.531       28.045       23.430     1808.889      786.502      548.974        0.851        0.157      116.368       21.702        0.035      342.589       18.103      864.160
06/17/2013  00:41:00      -90.523      -23.023      -10.196       31.025       25.374       19.684      962.580      643.835      387.449        0.541        0.100       93.405       12.535        0.018      342.535       18.014      864.169
06/17/2013  00:42:00      -69.919      -21.224      -13.940       39.588       18.679       20.874     1567.206      348.889      435.717        0.394        0.118       73.069       22.591        0.096      342.505       17.961      864.165
06/17/2013  00:43:00      -47.397       16.883       -6.584       36.323       37.217       13.661     1319.363     1385.119      186.634        0.273        0.145       50.314       16.050        0.102      342.465       17.893      864.152
06/17/2013  00:44:00      -98.317       14.482       -7.459       33.837       44.303       26.586     1144.969     1962.791      706.789        0.687        0.191       99.378       21.344        0.046      342.535       18.013      864.142
06/17/2013  00:45:00      -74.200       27.902       -2.046       32.752       40.215       26.659     1072.676     1617.281      710.727        0.484        0.170       79.272       21.863        0.076      342.559       18.052      864.150
06/17/2013  00:46:00      -33.242       23.609       -5.811       21.749       22.265       12.569      473.007      495.728      157.978        0.141        0.056       40.772       13.406        0.108      342.475       17.911      864.150
06/17/2013  00:47:00      -24.397       -2.031       -2.600       16.094       13.677        7.314      259.027      187.054       53.491        0.055        0.025       24.481        4.831        0.039      342.514       17.977      864.146
06/17/2013  00:48:00      -30.873      -10.968       -2.393       14.382       19.727       11.057      206.833      389.141      122.247        0.090        0.036       32.763        6.387        0.038      342.558       18.053      864.149
06/17/2013  00:49:00      -46.972      -33.321        2.625       19.016       12.651       11.293      361.610      160.058      127.533        0.199        0.032       57.590       11.063        0.037      342.603       18.127      864.157
06/17/2013  00:50:00        3.754       -9.274        9.756       30.650       12.329       12.105      939.400      152.010      146.540        0.072        0.062       10.005       11.684        1.364      342.520       17.985      864.161
06/17/2013  00:51:00      -20.138       18.645       16.875       19.701       17.691       20.128      388.129      312.987      405.136        0.107        0.055       27.444       16.779        0.374      342.237       17.506      864.159
06/17/2013  00:52:00       20.258      -34.615        8.124       28.176       44.198       27.536      793.913     1953.473      758.217        0.259        0.175       40.107       28.658        0.511      342.226       17.488      864.188
06/17/2013  00:53:00        1.783        5.637       43.799       14.430       26.002       11.604      208.239      676.112      134.641        0.149        0.051        5.912       10.777        3.323      342.115       17.298      864.201
06/17/2013  00:54:00      -13.561       41.157       73.109       13.275       32.990       20.468      176.216     1088.350      418.959        0.445        0.084       43.334       20.297        0.219      342.125       17.316      864.203
06/17/2013  00:55:00        4.349       37.309       54.558       29.710       48.250       44.029      882.664     2328.031     1938.510        0.477        0.257       37.562       45.633        1.476      342.179       17.408      864.210
06/17/2013  00:56:00       11.505       32.956       67.326       33.472       30.321       21.996     1120.369      919.339      483.835        0.414        0.126       34.906       21.098        0.365      342.153       17.364      864.215
06/17/2013  00:57:00       57.193       28.949       39.719       27.670       32.308       31.096      765.633     1043.814      966.951        0.423        0.139       64.102       16.496        0.066      342.274       17.569      864.217
06/17/2013  00:58:00       92.851       62.883       35.933       41.041       26.234       32.804     1684.368      688.245     1076.071        0.866        0.172      112.141       11.476        0.010      342.220       17.476      864.224
06/17/2013  00:59:00       97.842       53.738       26.193       47.064       46.818       34.804     2214.987     2191.946     1211.345        0.938        0.281      111.628       19.078        0.029      342.224       17.484      864.215
06/17/2013  01:00:00      113.472       34.746       21.224       78.041       50.861       38.928     6090.467     2586.807     1515.392        1.236        0.510      118.672       30.908        0.068      342.295       17.603      864.219
06/17/2013  01:01:00      130.604       70.650       19.149       60.215       51.049       39.214     3625.897     2605.994     1537.705        1.509        0.388      148.489       32.739        0.049      342.227       17.489      864.223
06/17/2013  01:02:00      190.512      126.508       24.718       67.763       47.418       41.790     4591.871     2248.491     1746.407        3.075        0.429      228.689       21.564        0.009      342.173       17.394      864.217
06/17/2013  01:03:00      182.040       87.737        5.168       70.452       59.499       44.599     4963.534     3540.126     1989.098        2.568        0.525      202.080       38.571        0.036      342.048       17.182      864.208
06/17/2013  01:04:00      189.984      115.869       13.121       54.418       46.857       35.450     2961.318     2195.555     1256.710        2.805        0.321      222.530       31.737        0.020      342.032       17.154      864.197
06/17/2013  01:05:00      134.468       90.231       22.113       62.899       43.868       53.754     3956.343     1924.379     2889.534        1.774        0.439      161.936       29.340        0.033      341.979       17.067      864.195
06/17/2013  01:06:00       79.385       67.336        4.103       60.215       43.141       38.083     3625.866     1861.132     1450.349        0.889        0.347      104.097       27.738        0.071      341.859       16.864      864.197
06/17/2013  01:07:00       58.384       81.779       -0.584       55.785       56.855       47.817     3111.959     3232.533     2286.468        0.936        0.432      100.482       34.946        0.121      341.874       16.889      864.183
06/17/2013  01:08:00       28.630       90.422       -2.653       42.505       61.670       40.128     1806.646     3803.234     1610.295        0.811        0.361       94.847       41.378        0.190      341.908       16.948      864.180
06/17/2013  01:09:00       22.039      137.505      -10.936       35.495       50.021       32.365     1259.926     2502.062     1047.524        1.216        0.240      139.260       31.928        0.053      341.906       16.944      864.175
06/17/2013  01:10:00       31.767      179.957      -23.996       28.877       40.822       30.966      833.908     1666.430      958.897        1.871        0.173      182.739       27.676        0.023      342.047       17.182      864.159
06/17/2013  01:11:00      -39.046      191.161      -19.496       43.645       44.470       26.592     1904.880     1977.563      707.150        2.152        0.229      195.108       25.776        0.017      342.077       17.233      864.165
06/17/2013  01:12:00      -50.536      166.224      -18.217       24.524       41.022       21.427      601.427     1682.795      459.113        1.663        0.137      173.736       15.500        0.008      341.991       17.087      864.166
06/17/2013  01:13:00      -99.861      182.688      -23.473       61.785       70.199       32.281     3817.437     4927.860     1042.046        2.684        0.489      208.199       26.150        0.016      342.117       17.299      864.140
06/17/2013  01:14:00      -89.383      121.844      -20.427       51.255       58.606       28.289     2627.041     3434.643      800.247        1.506        0.343      151.113       26.986        0.032      342.133       17.328      864.144
06/17/2013  01:15:00      -91.941      139.161      -21.753       62.446      111.530       40.098     3899.444    12438.911     1607.879        2.312        0.897      166.791       44.506        0.071      342.140       17.341      864.154
06/17/2013  01:16:00     -111.224      145.727      -27.877       60.154       69.216       39.175     3618.558     4790.920     1534.701        2.216        0.497      183.322       28.930        0.025      342.166       17.383      864.144
06/17/2013  01:17:00      -94.943      255.460      -34.348       50.970      108.616       39.894     2597.967    11797.407     1591.526        4.572        0.799      272.533       38.476        0.020      342.114       17.294      864.138
06/17/2013  01:18:00      -99.973      235.009      -27.608       65.564       70.224       44.037     4298.674     4931.362     1939.244        3.858        0.558      255.390       40.375        0.025      342.025       17.142      864.126
06/17/2013  01:19:00      -89.328      167.161      -22.639       56.584       79.122       42.858     3201.747     6260.244     1836.827        2.386        0.565      189.531       37.093        0.038      342.014       17.125      864.129
06/17/2013  01:20:00     -123.311      223.065      -35.741       76.240       84.228       37.502     5812.465     7094.294     1406.409        4.027        0.716      254.879       39.355        0.024      342.054       17.193      864.137
06/17/2013  01:21:00      -48.993      166.841      -18.014       59.617       67.535       40.202     3554.158     4560.983     1616.197        2.014        0.487      173.886       38.746        0.050      341.987       17.079      864.126
06/17/2013  01:22:00      -75.969      130.371      -12.318       77.732       63.711       38.772     6042.302     4059.106     1503.289        1.726        0.580      150.890       39.997        0.070      341.950       17.019      864.145
06/17/2013  01:23:00      -37.395      103.769       -9.312       55.065       69.563       42.880     3032.178     4839.065     1838.731        1.098        0.485      110.301       41.816        0.144      341.886       16.911      864.138
06/17/2013  01:24:00      -79.245      217.344      -17.584       69.772       81.679       48.786     4868.154     6671.424     2380.047        3.387        0.696      231.340       43.124        0.035      341.777       16.721      864.140
06/17/2013  01:25:00      -70.413      302.843      -28.556      103.710       99.338       64.773    10755.779     9867.970     4195.506        6.115        1.241      310.921       51.976        0.028      341.735       16.651      864.142
06/17/2013  01:26:00     -111.791      246.743      -34.876       71.375       92.735       44.651     5094.460     8599.753     1993.722        4.514        0.784      270.886       46.194        0.029      341.704       16.598      864.146
06/17/2013  01:27:00      -99.060      168.707      -23.334       59.708       70.569       36.555     3565.048     4980.023     1336.253        2.435        0.494      195.640       36.732        0.035      341.699       16.589      864.152
06/17/2013  01:28:00     -107.881      181.613      -30.133       51.551       61.754       38.814     2657.522     3813.602     1506.536        2.675        0.399      211.238       35.955        0.029      341.752       16.680      864.157
06/17/2013  01:29:00      -59.315       56.986        0.006       57.875       63.831       35.488     3349.487     4074.439     1259.368        0.772        0.434       82.254       34.782        0.179      341.738       16.658      864.152
06/17/2013  01:30:00      -64.956      127.016       -1.451       51.119       65.742       33.650     2613.138     4322.023     1132.330        1.421        0.403      142.661       34.703        0.059      341.720       16.628      864.159
06/17/2013  01:31:00      -10.990      165.266      -22.156       28.469       38.444       24.539      810.496     1477.944      602.186        1.541        0.145      165.631       15.724        0.009      341.746       16.673      864.143
06/17/2013  01:32:00      -43.408      144.400      -12.441       28.950       38.587       25.969      838.094     1488.923      674.383        1.295        0.150      150.784       18.084        0.014      341.694       16.586      864.144
06/17/2013  01:33:00      -81.674       98.468      -12.126       55.768       44.537       25.751     3110.039     1983.586      663.099        1.113        0.288      127.932       20.361        0.025      341.715       16.620      864.142
06/17/2013  01:34:00      -50.503      132.552      -12.023       52.888       45.174       25.034     2797.149     2040.647      626.699        1.286        0.273      141.847       15.369        0.012      341.756       16.689      864.142
06/17/2013  01:35:00      -49.478      111.628       -9.039       26.886       37.178       17.458      722.858     1382.233      304.776        0.870        0.120      122.102       10.975        0.008      341.778       16.726      864.142
06/17/2013  01:36:00      -39.975      127.862      -17.138       30.495       55.257       19.415      929.925     3053.296      376.955        1.130        0.218      133.965        1.931        0.000      341.727       16.640      864.140
06/17/2013  01:37:00      -21.748       56.171       -3.213       40.749       28.157       20.963     1660.504      792.842      439.443        0.327        0.145       60.235       22.614        0.141      341.645       16.502      864.145
06/17/2013  01:38:00       60.607       46.208        4.318       32.246       23.114       15.976     1039.807      534.245      255.235        0.383        0.091       76.213        7.349        0.009      341.641       16.495      864.145
06/17/2013  01:39:00       57.100       71.817       40.143       35.610       31.894       36.192     1268.067     1017.220     1309.891        0.681        0.180       91.750       24.289        0.070      341.604       16.431      864.140
06/17/2013  01:40:00       79.714       78.296       55.058       56.670       45.266       47.395     3211.483     2049.045     2246.270        1.151        0.375      111.735       44.438        0.158      341.534       16.313      864.123
06/17/2013  01:41:00       99.129       51.498       33.042       45.195       37.556       39.919     2042.588     1410.424     1593.529        0.931        0.252      111.707       27.429        0.060      341.489       16.238      864.116
06/17/2013  01:42:00      104.667       44.589       11.730       48.818       34.065       34.574     2383.205     1160.414     1195.384        0.891        0.237      113.769       28.855        0.064      341.434       16.143      864.127
06/17/2013  01:43:00       91.124       42.513        9.838       75.921       45.001       26.566     5763.935     2025.094      705.759        0.935        0.425      100.553       19.788        0.039      341.411       16.105      864.119
06/17/2013  01:44:00       61.617       35.947       20.498       27.448       31.418       22.308      753.382      987.090      497.659        0.387        0.112       71.336       13.837        0.038      341.559       16.356      864.107
06/17/2013  01:45:00       34.558        7.254        2.866       14.835       26.095       13.397      220.068      680.924      179.484        0.117        0.054       35.311        4.178        0.014      341.785       16.737      864.116
06/17/2013  01:46:00       22.584      -24.432        4.860       13.929        9.608       12.182      194.007       92.313      148.402        0.078        0.022       33.271       10.810        0.106      341.961       17.036      864.135
06/17/2013  01:47:00        6.315        2.142        0.262       12.437       24.479        8.842      154.671      599.197       78.189        0.044        0.042        6.669        6.302        0.893      341.818       16.796      864.140
06/17/2013  01:48:00       17.249       46.555        1.976       28.768       11.998       11.624      827.613      143.941      135.127        0.179        0.055       49.648        8.676        0.031      341.812       16.785      864.139
06/17/2013  01:49:00       40.194       42.440        5.381       13.960       14.857       13.420      194.874      220.720      180.101        0.202        0.030       58.453        7.396        0.016      341.890       16.916      864.144
06/17/2013  01:50:00       49.895       72.504        2.909       23.371       32.867       21.529      546.188     1080.268      463.511        0.492        0.104       88.013       22.079        0.063      342.010       17.118      864.143
06/17/2013  01:51:00       31.810       66.331       -2.834       19.898       29.379       19.479      395.939      863.139      379.442        0.353        0.082       73.564       20.338        0.076      341.934       16.992      864.134
06/17/2013  01:52:00       31.197       64.420       -8.508       26.026       29.933       19.847      677.344      896.011      393.910        0.358        0.098       71.577       18.285        0.065      341.910       16.951      864.139
06/17/2013  01:53:00       19.829       67.842      -11.852       17.050       24.959       12.770      290.718      622.974      163.071        0.311        0.054       70.681       13.477        0.036      341.935       16.994      864.138
06/17/2013  01:54:00       10.000       32.942       -3.980       19.816       43.789       17.477      392.668     1917.496      305.456        0.191        0.131       34.427       22.491        0.427      341.813       16.787      864.134
06/17/2013  01:55:00       14.259       83.426      -16.746       31.026       39.407       16.645      962.602     1552.914      277.058        0.512        0.140       84.636       22.714        0.072      341.935       16.995      864.138
06/17/2013  01:56:00       -8.491       87.550       -8.788       21.584       20.772       11.645      465.874      431.493      135.610        0.442        0.052       87.960       11.127        0.016      341.956       17.030      864.130
06/17/2013  01:57:00        9.247       54.214       -7.805       22.953       27.202       12.590      526.838      739.931      158.516        0.226        0.071       54.997       13.847        0.063      341.858       16.863      864.128
06/17/2013  01:58:00       27.559       64.746       -7.878       31.178       34.979       19.656      972.065     1223.539      386.348        0.380        0.129       70.367       20.877        0.088      341.907       16.946      864.122
06/17/2013  01:59:00       22.438       75.398      -11.865       22.805       23.851       16.902      520.072      568.860      285.667        0.385        0.069       78.666       14.604        0.034      341.968       17.048      864.110
06/17/2013  02:00:00       -0.237       56.795       -9.748        8.235       15.506        6.446       67.817      240.435       41.556        0.184        0.017       56.796        7.347        0.017      342.032       17.159      864.108
06/17/2013  02:01:00        5.045       47.474       -6.531        8.291        9.265        4.766       68.733       85.848       22.710        0.125        0.009       47.742        3.299        0.005      342.027       17.152      864.109
06/17/2013  02:02:00        7.634       21.843       -0.683       12.526       10.045        4.743      156.891      100.906       22.493        0.041        0.014       23.139        3.805        0.027      341.972       17.057      864.111
06/17/2013  02:03:00       -7.022        1.061       -0.833        4.790        5.151        2.986       22.947       26.538        8.916        0.005        0.003        7.102        2.664        0.141      341.983       17.074      864.110
06/17/2013  02:04:00      -27.512      -22.775       -3.834       11.943        9.887        7.566      142.645       97.751       57.249        0.079        0.015       35.715        5.892        0.027      341.933       16.989      864.113
06/17/2013  02:05:00      -52.671      -19.867       -7.442       15.616       20.041        8.000      243.857      401.650       64.005        0.197        0.035       56.294        6.900        0.015      341.830       16.814      864.113
06/17/2013  02:06:00      -26.015      -23.828       -1.519       22.213       12.960       13.143      493.428      167.959      172.745        0.104        0.042       35.279       14.297        0.164      341.752       16.682      864.107
06/17/2013  02:07:00      -63.085      -29.491       -2.083       12.844       17.328        9.655      164.964      300.269       93.224        0.271        0.028       69.638        6.061        0.008      341.884       16.906      864.106
06/17/2013  02:08:00      -33.421      -10.935       -2.192       21.293        9.751        8.037      453.397       95.087       64.601        0.093        0.031       35.164        6.919        0.039      341.725       16.638      864.112
06/17/2013  02:09:00        1.433      -16.698        5.339       14.465        9.290        7.644      209.243       86.298       58.436        0.033        0.018       16.759        3.864        0.053      341.685       16.571      864.119
06/17/2013  02:10:00       12.883      -51.444       -7.313       13.506       10.780        8.246      182.425      116.200       67.991        0.162        0.018       53.033        3.433        0.004      341.840       16.832      864.114
06/17/2013  02:11:00       17.631      -42.482        0.543       13.482       14.776       15.751      181.753      218.335      248.107        0.138        0.032       45.995       11.634        0.064      341.857       16.862      864.123
06/17/2013  02:12:00        7.321      -38.925       -8.204       20.621       22.869       14.061      425.226      522.989      197.716        0.139        0.057       39.608        2.908        0.005      342.010       17.120      864.144
06/17/2013  02:13:00      -33.979      -25.725       -2.365       36.060       18.707       16.080     1300.344      349.938      258.555        0.186        0.095       42.619       11.056        0.067      341.889       16.914      864.166
06/17/2013  02:14:00        0.419      -35.886        6.617       12.026       21.948        9.776      144.620      481.721       95.561        0.103        0.036       35.889        8.054        0.050      341.845       16.840      864.175
06/17/2013  02:15:00      -17.699      -34.738       -2.452       15.011       14.898       13.722      225.327      221.942      188.294        0.108        0.032       38.987        8.253        0.045      341.902       16.936      864.185
06/17/2013  02:16:00       22.366       -1.570       12.515       17.449       22.968       12.492      304.481      527.511      156.045        0.082        0.049       22.421       15.516        0.479      341.860       16.865      864.179
06/17/2013  02:17:00        6.254       37.851       52.387       18.929       20.677       16.818      358.304      427.541      282.842        0.264        0.053       38.364       15.679        0.167      341.660       16.528      864.172
06/17/2013  02:18:00        0.270       26.268       50.733       19.981       21.273       18.502      399.244      452.529      342.326        0.223        0.060       26.269       16.642        0.401      341.553       16.344      864.169
06/17/2013  02:19:00       -3.803        4.205        9.078       10.778       14.576       15.945      116.160      212.471      254.233        0.035        0.029        5.669        9.748        2.956      341.532       16.310      864.181
06/17/2013  02:20:00      -18.344       22.643       -3.995       21.904       11.247        6.634      479.776      126.502       44.007        0.076        0.033       29.142        2.656        0.008      341.726       16.639      864.194
06/17/2013  02:21:00      -61.455       23.023       -8.861       12.586       16.028        7.846      158.399      256.888       61.557        0.243        0.024       65.626        6.592        0.010      341.682       16.564      864.199
06/17/2013  02:22:00      -77.455      -27.047       -2.152       21.902       11.930        9.687      479.709      142.335       93.847        0.373        0.036       82.041        7.881        0.009      341.589       16.407      864.201
06/17/2013  02:23:00      -54.585      -28.324        5.015       31.326       21.775       13.584      981.337      474.166      184.517        0.272        0.082       61.496       15.336        0.062      341.560       16.357      864.211
06/17/2013  02:24:00      -48.460      -17.745        2.882       30.592       18.621       12.683      935.888      346.731      160.851        0.206        0.072       51.607       10.949        0.045      341.491       16.239      864.212
06/17/2013  02:25:00      -71.201      -15.300       -4.213       22.053       16.795        8.978      486.355      282.060       80.601        0.309        0.042       72.826        6.974        0.009      341.528       16.303      864.209
06/17/2013  02:26:00      -69.278       18.120       -1.421       17.993       13.180       10.494      323.743      173.717      110.126        0.287        0.030       71.609        7.876        0.012      341.474       16.212      864.209
06/17/2013  02:27:00      -35.606       17.224       -2.858       14.813       14.502       10.698      219.421      210.313      114.451        0.106        0.027       39.553        8.836        0.050      341.452       16.175      864.197
06/17/2013  02:28:00      -27.556       26.177       -1.323        8.863       14.023        8.519       78.560      196.643       72.570        0.090        0.017       38.008        4.383        0.013      341.529       16.303      864.178
06/17/2013  02:29:00      -13.969      -18.669       -7.628       11.007        8.004        5.838      121.155       64.062       34.082        0.041        0.011       23.316        3.591        0.024      341.618       16.456      864.166
06/17/2013  02:30:00      -57.541      -18.945       -4.981       30.794       18.994       10.670      948.243      360.769      113.844        0.256        0.071       60.580       12.477        0.042      341.549       16.338      864.160
06/17/2013  02:31:00      -34.075      -12.570        2.171       20.125       14.762       10.987      405.014      217.921      120.706        0.103        0.037       36.320        6.885        0.036      341.355       16.009      864.161
06/17/2013  02:32:00      -83.213      -57.444       -1.344       31.331       19.165       16.520      981.632      367.313      272.901        0.592        0.081      101.115       11.823        0.014      341.420       16.120      864.160
06/17/2013  02:33:00     -103.145      -35.377       -1.356       29.094       27.673       16.573      846.448      765.804      274.666        0.689        0.094      109.043       14.486        0.018      341.314       15.941      864.158
06/17/2013  02:34:00      -79.435      -11.231       -0.761       23.491       23.011       15.660      551.849      529.513      245.238        0.388        0.066       80.225       11.910        0.022      341.249       15.830      864.146
06/17/2013  02:35:00      -83.281       15.704       -7.532       39.923       23.462       14.492     1593.884      550.446      210.004        0.480        0.118       84.748       13.266        0.025      341.191       15.733      864.138
06/17/2013  02:36:00      -92.348       40.809       -8.679       23.334       23.489       17.162      544.466      551.738      294.534        0.583        0.070      100.964       10.475        0.011      341.135       15.637      864.128
06/17/2013  02:37:00      -99.734        4.513       -5.778       34.174       31.388       18.569     1167.868      985.221      344.814        0.625        0.125       99.836       17.712        0.031      341.075       15.537      864.124
06/17/2013  02:38:00     -122.160      -45.420       -8.784       48.647       46.273       23.616     2366.532     2141.192      557.699        1.106        0.253      130.331       22.272        0.029      341.010       15.427      864.129
06/17/2013  02:39:00     -108.132      -34.666       -3.564       36.106       37.560       20.200     1303.617     1410.741      408.032        0.801        0.156      113.553       15.688        0.019      340.943       15.313      864.127
06/17/2013  02:40:00      -92.372      -24.438      -13.649       36.953       22.071       14.247     1365.517      487.126      202.972        0.569        0.103       95.550       11.864        0.015      340.952       15.328      864.117
06/17/2013  02:41:00      -98.847       21.858      -14.258       27.037       19.475       14.646      730.978      379.273      214.517        0.589        0.066      101.235        3.730        0.001      340.973       15.364      864.112
06/17/2013  02:42:00      -65.207       10.490       -6.912       26.332       21.584       17.220      693.382      465.859      296.539        0.293        0.073       66.046       10.241        0.024      340.909       15.255      864.114
06/17/2013  02:43:00      -96.531       -3.694       -8.678       31.675       26.796       17.328     1003.295      718.050      300.252        0.571        0.101       96.602       16.347        0.029      340.898       15.236      864.129
06/17/2013  02:44:00      -88.772       -5.292       -6.693       24.379       29.302       17.818      594.353      858.630      317.478        0.486        0.089       88.930       11.756        0.017      340.733       14.957      864.145
06/17/2013  02:45:00      -72.038      -16.523       -5.652       16.097       27.135       19.437      259.114      736.300      377.816        0.343        0.069       73.908       14.025        0.036      340.776       15.031      864.145
06/17/2013  02:46:00     -103.518       -6.875       -8.006       44.396       24.932       18.480     1971.010      621.587      341.502        0.688        0.147      103.746       16.967        0.027      340.655       14.826      864.144
06/17/2013  02:47:00     -154.896       17.321      -15.269       44.746       27.756       22.054     2002.195      770.376      486.369        1.389        0.163      155.862       23.233        0.022      340.528       14.609      864.140
06/17/2013  02:48:00     -163.160       41.558      -13.945       29.032       35.926       20.808      842.833     1290.692      432.961        1.555        0.128      168.369       12.911        0.006      340.529       14.612      864.154
06/17/2013  02:49:00     -116.024       26.813       -6.292       44.331       34.053       23.864     1965.273     1159.625      569.481        0.896        0.185      119.082       21.176        0.032      340.459       14.494      864.149
06/17/2013  02:50:00     -168.928       50.353      -14.449       29.667       20.281       16.141      880.153      411.318      260.519        1.642        0.078      176.273       14.379        0.007      340.564       14.672      864.134
06/17/2013  02:51:00     -151.271       52.653      -22.516       32.572       27.093       21.731     1060.924      734.026      472.251        1.421        0.113      160.172       18.508        0.013      340.672       14.853      864.133
06/17/2013  02:52:00     -138.782       56.079      -13.056       55.511       41.827       35.274     3081.487     1749.498     1244.252        1.432        0.304      149.684       31.911        0.045      340.579       14.695      864.121
06/17/2013  02:53:00     -120.216       66.660      -10.490       44.141       30.728       30.028     1948.390      944.213      901.699        1.140        0.190      137.460       23.013        0.028      340.561       14.666      864.117
06/17/2013  02:54:00     -149.784       40.064      -10.925       26.695       25.369       17.922      712.606      643.605      321.194        1.292        0.084      155.050       10.705        0.005      340.595       14.724      864.125
06/17/2013  02:55:00     -111.318       27.178       -5.218       48.068       27.626       21.572     2310.515      763.194      465.333        0.835        0.177      114.588       19.584        0.029      340.591       14.718      864.132
06/17/2013  02:56:00     -112.349        0.150       -8.514       29.589       31.201       18.256      875.486      973.500      333.269        0.744        0.109      112.349       11.154        0.010      340.522       14.602      864.127
06/17/2013  02:57:00      -83.423       -4.369      -12.022       41.596       26.871       14.232     1730.266      722.050      202.546        0.489        0.133       83.538        3.387        0.002      340.526       14.606      864.129
06/17/2013  02:58:00      -57.205       -1.863       -2.832       40.922       21.807       15.813     1674.610      475.539      250.044        0.284        0.120       57.235       18.120        0.100      340.488       14.543      864.112
06/17/2013  02:59:00      -78.125      -25.325      -10.748       19.769       29.293       12.260      390.820      858.097      150.309        0.413        0.070       82.127        9.023        0.012      340.429       14.444      864.111
06/17/2013  03:00:00      -95.401        3.001       -9.326       17.827       18.196       13.655      317.796      331.107      186.456        0.502        0.042       95.448        7.802        0.007      340.391       14.378      864.099
06/17/2013  03:01:00     -120.754       11.758       -4.182       31.345       41.766       20.543      982.540     1744.407      422.033        0.894        0.157      121.325       20.127        0.028      340.272       14.179      864.092
06/17/2013  03:02:00      -70.595       -4.462       -1.252       29.302       29.433       19.439      858.615      866.280      377.871        0.355        0.105       70.736       14.055        0.039      340.145       13.963      864.092
06/17/2013  03:03:00      -78.347       -4.652       -5.560       44.076       32.429       20.800     1942.678     1051.648      432.631        0.481        0.171       78.485       17.410        0.049      340.132       13.942      864.080
06/17/2013  03:04:00      -96.730       25.733       -3.352       36.545       29.170       24.536     1335.541      850.889      602.012        0.641        0.139      100.094       22.818        0.052      340.119       13.919      864.066
06/17/2013  03:05:00     -105.691       21.990       -3.984       52.930       24.642       23.313     2801.624      607.238      543.500        0.781        0.198      107.954       22.657        0.044      340.045       13.795      864.061
06/17/2013  03:06:00      -43.530      -12.012       -4.389       54.058       25.010       17.061     2922.311      625.478      291.065        0.295        0.192       45.157       19.351        0.184      339.990       13.702      864.072
06/17/2013  03:07:00       -8.224      -34.898       -2.931       26.409       26.867       14.794      697.432      721.813      218.870        0.147        0.082       35.854       12.552        0.123      340.146       13.965      864.054
06/17/2013  03:08:00      -88.595      -28.393       -5.619       44.302       18.450       19.337     1962.641      340.414      373.913        0.568        0.134       93.033       24.789        0.071      340.004       13.724      864.053
06/17/2013  03:09:00     -121.458       -4.707      -12.677       27.258       18.001       14.335      743.023      324.026      205.502        0.810        0.064      121.549        9.033        0.006      339.978       13.681      864.040
06/17/2013  03:10:00      -71.206      -30.679       -1.985       17.233       23.313       15.083      296.982      543.475      227.501        0.354        0.053       77.534       11.175        0.021      340.010       13.736      864.017
06/17/2013  03:11:00      -59.893      -20.458       -1.522       29.588       21.296       14.947      875.461      453.513      223.424        0.278        0.078       63.291       14.605        0.053      340.031       13.771      864.013
06/17/2013  03:12:00     -100.102        7.548       -4.076       28.756       15.244       14.473      826.911      232.386      209.458        0.568        0.063      100.386       12.706        0.016      339.974       13.676      864.003
06/17/2013  03:13:00      -93.452       24.602       -2.243       27.650       19.232       14.623      764.519      369.869      213.832        0.535        0.067       96.636       13.530        0.020      339.889       13.531      864.017
06/17/2013  03:14:00     -107.105       23.862        0.341       23.598       25.351       17.790      556.853      642.674      316.483        0.678        0.076      109.731       13.366        0.015      339.866       13.493      864.011
06/17/2013  03:15:00      -87.493      -11.156       -5.124       38.641       33.429       23.816     1493.124     1117.516      567.204        0.549        0.159       88.201       17.033        0.037      339.886       13.528      863.985
06/17/2013  03:16:00      -46.650      -29.046        1.550       29.379       33.679       18.531      863.148     1134.290      343.416        0.268        0.117       54.953       15.096        0.075      340.054       13.810      863.992
06/17/2013  03:17:00      -19.089      -48.351       -7.012       37.448       25.261       14.264     1402.386      638.118      203.449        0.250        0.112       51.983        7.550        0.021      340.229       14.104      863.994
06/17/2013  03:18:00      -62.597      -37.512       -6.152       28.995       16.941       12.006      840.732      286.994      144.138        0.332        0.064       72.976        9.833        0.018      340.177       14.018      863.993
06/17/2013  03:19:00      -55.939      -19.298       -4.470       18.294       25.053       11.997      334.673      627.651      143.929        0.231        0.055       59.174        9.053        0.023      340.124       13.927      864.005
06/17/2013  03:20:00      -17.023      -30.204        8.643       28.361       17.358       13.860      804.323      301.305      192.101        0.129        0.065       34.671       14.236        0.169      340.328       14.272      864.001
06/17/2013  03:21:00      -58.342      -33.906       -2.046       27.620       15.901       11.849      762.890      252.850      140.396        0.286        0.058       67.479        9.290        0.019      340.269       14.174      863.979
06/17/2013  03:22:00     -101.891      -46.652       -5.692       21.518       19.295       13.170      463.015      372.289      173.451        0.680        0.050      112.064       11.453        0.010      340.257       14.152      863.972
06/17/2013  03:23:00     -186.098      -76.861       -2.833       61.272       40.133       25.068     3754.306     1610.631      628.417        2.327        0.300      201.345       28.054        0.019      340.805       15.076      863.945
06/17/2013  03:24:00     -174.891     -102.404        1.950       64.531       46.488       35.627     4164.298     2161.095     1269.302        2.433        0.380      202.666       35.697        0.031      340.908       15.252      863.939
06/17/2013  03:25:00     -183.172     -103.229       -2.263       66.063       66.529       35.193     4364.274     4426.071     1238.552        2.712        0.501      210.258       37.104        0.031      341.132       15.629      863.935
06/17/2013  03:26:00     -190.607      -90.851       -2.559       67.023       58.444       40.237     4492.105     3415.715     1619.053        2.706        0.476      211.151       41.811        0.039      341.167       15.690      863.920
06/17/2013  03:27:00     -168.368      -17.817       -1.736       72.155       61.908       39.503     5206.284     3832.624     1560.504        1.963        0.530      169.309       40.286        0.057      340.607       14.744      863.912
06/17/2013  03:28:00     -164.597      -18.330       -4.710       70.294       65.197       40.514     4941.255     4250.711     1641.404        1.914        0.542      165.615       42.020        0.064      340.282       14.192      863.934
06/17/2013  03:29:00     -143.347      -47.925       -4.990       60.655       48.860       27.561     3679.089     2387.257      759.606        1.485        0.341      151.146       30.247        0.040      340.210       14.073      863.935
06/17/2013  03:30:00      -99.915      -23.331       12.320       68.287       52.104       32.263     4663.168     2714.830     1040.882        0.955        0.421      102.603       25.168        0.060      340.296       14.219      863.925
06/17/2013  03:31:00     -162.263      -27.735       10.812       72.185       58.377       35.792     5210.649     3407.875     1281.086        1.856        0.495      164.616       35.020        0.045      340.309       14.239      863.934
06/17/2013  03:32:00     -257.897      -76.488       -3.433       64.725       49.128       35.564     4189.295     2413.595     1264.820        4.012        0.393      269.000       30.324        0.013      341.081       15.541      863.923
06/17/2013  03:33:00     -258.820      -89.725       -8.456       79.484       56.387       37.137     6317.737     3179.514     1379.164        4.299        0.544      273.931       36.731        0.018      341.251       15.832      863.916
06/17/2013  03:34:00     -240.734      -71.696        3.953       93.145       70.484       41.200     8675.917     4968.061     1697.465        3.922        0.767      251.184       43.282        0.030      340.994       15.394      863.925
06/17/2013  03:35:00     -239.771      -68.996        9.164      107.433       68.137       42.632    11541.864     4642.604     1817.492        4.016        0.900      249.500       43.676        0.031      341.105       15.585      863.921
06/17/2013  03:36:00     -271.663      -60.971       -7.768       89.019       61.066       45.468     7924.411     3729.018     2067.313        4.565        0.686      278.421       39.680        0.020      341.240       15.812      863.907
06/17/2013  03:37:00     -218.636      -30.936       -6.260       78.475       65.434       43.079     6158.320     4281.624     1855.758        3.054        0.615      220.814       42.691        0.037      340.786       15.044      863.887
06/17/2013  03:38:00     -248.089      -21.126       -8.786       90.474       55.954       42.521     8185.629     3130.826     1808.072        3.760        0.656      248.987       48.018        0.037      340.293       14.208      863.875
06/17/2013  03:39:00     -163.286       -9.779       -4.270       72.092       49.197       33.534     5197.296     2420.344     1124.560        1.776        0.437      163.579       37.473        0.052      340.275       14.182      863.868
06/17/2013  03:40:00     -152.174      -56.251       -4.552       46.895       41.690       28.354     2199.103     1738.063      803.964        1.554        0.237      162.237       24.566        0.023      340.259       14.156      863.860
06/17/2013  03:41:00     -142.274      -12.429        2.477       59.284       45.310       30.209     3514.623     2052.994      912.590        1.344        0.324      142.816       29.930        0.044      340.136       13.949      863.875
06/17/2013  03:42:00      -71.758      -50.256        3.422       42.439       30.137       22.085     1801.106      908.245      487.741        0.544        0.160       87.606       18.881        0.046      340.278       14.189      863.884
06/17/2013  03:43:00      -11.576       -2.578       20.375       33.581       30.333       19.773     1127.683      920.096      390.982        0.150        0.122       11.859       20.355        2.946      340.437       14.456      863.870
06/17/2013  03:44:00      -77.342      -14.564       -1.578       30.946       23.040       17.023      957.682      530.845      289.796        0.399        0.089       78.702       14.708        0.035      340.347       14.306      863.889
06/17/2013  03:45:00      -28.650      -12.538        7.574       38.192       34.150       22.540     1458.634     1166.247      508.051        0.208        0.157       31.274       20.752        0.440      340.174       14.012      863.909
06/17/2013  03:46:00       58.528       46.503       20.498       27.667       24.527       26.832      765.458      601.563      719.976        0.405        0.104       74.753       13.932        0.035      340.161       13.990      863.899
06/17/2013  03:47:00       11.900       75.106       -0.974       49.586       33.673       26.111     2458.727     1133.894      681.796        0.503        0.214       76.043       26.497        0.121      340.002       13.723      863.897
06/17/2013  03:48:00      -51.305       30.795       -9.913       28.632       36.523       15.162      819.772     1333.950      229.874        0.303        0.119       59.838       15.045        0.063      339.965       13.660      863.918
06/17/2013  03:49:00      -67.987       29.986      -14.078       19.963       29.336       12.530      398.511      860.604      157.000        0.357        0.071       74.306       11.839        0.025      339.910       13.566      863.922
06/17/2013  03:50:00      -29.849       31.257       -3.519       26.052       14.847       13.400      678.728      220.424      179.572        0.148        0.054       43.220       12.557        0.084      339.964       13.658      863.919
06/17/2013  03:51:00       -3.128        0.449        6.681       13.830       16.613       11.142      191.271      275.977      124.152        0.032        0.030        3.160        7.874        6.207      339.876       13.511      863.929
06/17/2013  03:52:00      -12.621        1.730       -9.630       10.412        8.563        8.149      108.402       73.330       66.403        0.025        0.012       12.739        5.661        0.197      339.949       13.633      863.932
06/17/2013  03:53:00        8.706        6.911       -1.141       12.308       11.017        6.557      151.481      121.384       42.992        0.022        0.016       11.116        5.536        0.248      340.024       13.759      863.933
06/17/2013  03:54:00       -0.049        3.587       -1.801       10.852       13.293        5.572      117.759      176.709       31.045        0.017        0.016        3.587        5.221        2.118      340.126       13.932      863.932
06/17/2013  03:55:00      -21.847       -4.086        1.088       13.541        6.497        6.122      183.371       42.217       37.484        0.038        0.013       22.226        3.670        0.027      340.143       13.960      863.930
06/17/2013  03:56:00      -53.087       19.258       -3.733       16.474       13.854       11.210      271.386      191.938      125.662        0.190        0.029       56.473       10.322        0.033      340.049       13.801      863.929
06/17/2013  03:57:00      -56.367       48.747       -8.020       26.439       15.288       18.640      699.042      233.717      347.449        0.345        0.064       74.522       19.376        0.068      339.926       13.592      863.924
06/17/2013  03:58:00     -108.061       34.099      -20.048       24.965       34.702       22.327      623.243     1204.227      498.491        0.778        0.116      113.314       18.062        0.025      339.895       13.543      863.935
06/17/2013  03:59:00     -109.611       48.078      -17.291       21.966       37.596       16.145      482.527     1413.449      260.657        0.839        0.108      119.692       11.095        0.009      339.791       13.368      863.923
06/17/2013  04:00:00      -67.843       -9.374       -7.347       33.372       27.610       15.608     1113.683      762.311      243.608        0.343        0.106       68.487       18.096        0.070      339.761       13.317      863.914
06/17/2013  04:01:00      -80.721       -7.525      -12.960       27.103       22.913       21.870      734.591      525.021      478.291        0.424        0.087       81.071       19.679        0.059      339.787       13.360      863.907
06/17/2013  04:02:00      -96.704        8.176       -8.093       17.670       23.888       12.915      312.231      570.625      166.803        0.527        0.052       97.049        9.703        0.010      339.863       13.487      863.901
06/17/2013  04:03:00     -118.456       -6.708      -10.177       51.316       28.043       22.208     2633.339      786.425      493.209        0.905        0.196      118.646       23.547        0.039      339.777       13.344      863.893
06/17/2013  04:04:00     -187.918       24.864      -13.805       30.701       39.033       17.957      942.548     1523.599      322.449        1.945        0.139      189.556       13.267        0.005      339.667       13.156      863.884
06/17/2013  04:05:00     -189.974       35.661      -12.904       35.726       30.861       17.785     1276.342      952.388      316.321        2.004        0.127      193.292       15.336        0.006      339.543       12.947      863.883
06/17/2013  04:06:00     -177.716       -9.346      -20.481       54.281       30.885       17.079     2946.441      953.911      291.703        1.814        0.210      177.961       16.748        0.009      339.513       12.894      863.895
06/17/2013  04:07:00     -105.393      -22.954       -8.713       30.924       39.318       20.703      956.276     1545.938      428.595        0.732        0.147      107.863       17.282        0.026      339.492       12.862      863.878
06/17/2013  04:08:00      -98.874      -48.198       -7.174       29.879       30.751       18.086      892.729      945.628      327.108        0.716        0.108      109.996       13.353        0.015      339.505       12.883      863.864
06/17/2013  04:09:00     -112.162      -34.516      -18.633       29.825       27.066       17.294      889.541      732.564      299.098        0.802        0.096      117.353        9.068        0.006      339.552       12.963      863.864
06/17/2013  04:10:00     -103.288      -51.784      -15.311       39.249       29.456       23.619     1540.446      867.663      557.872        0.827        0.148      115.542       20.010        0.030      339.590       13.029      863.861
06/17/2013  04:11:00      -72.900       -7.055       -3.783       22.034       22.498       15.999      485.486      506.152      255.974        0.331        0.062       73.241       10.239        0.020      339.540       12.944      863.848
06/17/2013  04:12:00      -83.197      -20.977       -5.687       24.252       34.380       14.430      588.176     1181.998      208.235        0.469        0.099       85.801       10.214        0.014      339.529       12.924      863.834
06/17/2013  04:13:00     -110.486      -45.810      -15.779       29.541       37.726       19.965      872.697     1423.217      398.608        0.862        0.135      119.606       14.352        0.014      339.527       12.920      863.843
06/17/2013  04:14:00      -88.300        8.288       -6.128       31.171       44.042       21.563      971.603     1939.736      464.980        0.564        0.169       88.688        8.822        0.010      339.520       12.909      863.836
06/17/2013  04:15:00     -104.318        5.977       -6.654       28.859       36.077       19.128      832.854     1301.561      365.868        0.673        0.125      104.489       13.216        0.016      339.574       13.002      863.834
06/17/2013  04:16:00     -132.856       23.276      -11.785       38.024       32.671       18.436     1445.799     1067.371      339.870        1.059        0.143      134.880       16.257        0.015      339.504       12.882      863.832
06/17/2013  04:17:00     -123.431      -17.178       -8.969       36.584       34.999       18.897     1338.404     1224.903      357.096        0.927        0.146      124.621       17.042        0.019      339.440       12.775      863.830
06/17/2013  04:18:00      -97.301      -48.974       -9.977       26.540       27.042       16.628      704.374      731.282      276.497        0.684        0.086      108.931       10.505        0.009      339.475       12.834      863.829
06/17/2013  04:19:00     -155.163      -54.423      -22.150       24.465       30.058       22.003      598.557      903.466      484.123        1.476        0.099      164.431       11.708        0.005      339.419       12.740      863.844
06/17/2013  04:20:00     -144.085        9.003      -11.432       42.573       33.623       17.347     1812.461     1130.524      300.917        1.211        0.162      144.366       16.062        0.012      339.247       12.449      863.854
06/17/2013  04:21:00     -151.595       21.878      -16.317       31.230       27.926       19.914      975.287      779.848      396.575        1.294        0.108      153.165       16.101        0.011      339.230       12.421      863.843
06/17/2013  04:22:00     -126.753       -9.357      -14.550       37.749       48.086       16.995     1424.989     2312.275      288.829        1.020        0.201      127.098       14.111        0.012      339.239       12.437      863.837
06/17/2013  04:23:00     -119.814        9.380      -13.426       37.220       45.668       26.842     1385.362     2085.526      720.471        0.941        0.210      120.181       22.527        0.035      339.308       12.553      863.827
06/17/2013  04:24:00      -82.380       12.981      -11.026       47.871       31.326       22.294     2291.648      981.330      497.007        0.542        0.188       83.396       27.267        0.107      339.410       12.724      863.824
06/17/2013  04:25:00     -108.544       43.878      -17.712       32.184       46.194       25.885     1035.825     2133.851      670.014        0.893        0.192      117.078       18.608        0.025      339.305       12.547      863.840
06/17/2013  04:26:00     -150.112      -56.198      -15.111       43.754       57.179       29.700     1914.387     3269.406      882.119        1.599        0.303      160.287       23.611        0.022      339.280       12.505      863.861
06/17/2013  04:27:00     -136.059        2.817       -2.949       32.009       48.631       19.664     1024.575     2365.006      386.688        1.115        0.189      136.088       16.437        0.015      339.228       12.417      863.896
06/17/2013  04:28:00     -169.736       46.856       -7.938       36.559       33.812       25.520     1336.568     1143.253      651.280        1.710        0.157      176.085       15.162        0.007      339.490       12.858      863.910
06/17/2013  04:29:00     -102.218       36.061      -14.139       39.720       39.509       20.442     1577.658     1560.956      417.892        0.775        0.178      108.392       15.497        0.020      339.404       12.714      863.895
06/17/2013  04:30:00     -129.261       12.703      -11.572       45.630       50.012       27.053     2082.053     2501.160      731.885        1.116        0.266      129.884       28.807        0.049      339.559       12.976      863.907
06/17/2013  04:31:00      -96.938       21.474       -6.560       48.677       45.843       31.088     2369.427     2101.577      966.452        0.767        0.272       99.288       28.850        0.084      339.535       12.934      863.913
06/17/2013  04:32:00      -44.471      -38.942       -4.907       42.488       24.022       25.047     1805.188      577.056      627.365        0.326        0.150       59.111       25.749        0.190      339.598       13.043      863.912
06/17/2013  04:33:00      -51.250      -57.099        3.886       55.414       42.396       32.433     3070.719     1797.385     1051.923        0.591        0.296       76.726       31.146        0.165      339.530       12.927      863.907
06/17/2013  04:34:00     -144.307      -61.264        1.463       55.273       38.515       24.462     3055.089     1483.394      598.368        1.486        0.257      156.773       24.339        0.024      339.571       12.995      863.924
06/17/2013  04:35:00     -167.617      -51.885      -11.500       26.579       32.492       18.643      706.451     1055.703      347.553        1.651        0.105      175.463       12.118        0.005      339.525       12.918      863.926
06/17/2013  04:36:00     -143.986      -63.793      -12.122       24.995       23.091       13.220      624.737      533.191      174.769        1.314        0.067      157.485        6.135        0.002      339.657       13.140      863.925
06/17/2013  04:37:00      -71.195      -32.017        2.217       36.508       35.368       18.642     1332.822     1250.869      347.532        0.451        0.147       78.063       12.753        0.027      339.642       13.116      863.935
06/17/2013  04:38:00      -83.601      -26.182       -0.910       59.624       38.355       25.812     3555.059     1471.121      666.246        0.668        0.285       87.605       29.459        0.113      339.599       13.042      863.940
06/17/2013  04:39:00      -43.078      -31.164        0.732       44.442       28.639       19.736     1975.092      820.220      389.528        0.301        0.159       53.169        4.291        0.007      339.508       12.887      863.941
06/17/2013  04:40:00      -89.131      -66.865        3.538       50.437       36.512       26.426     2543.851     1333.121      698.357        0.850        0.229      111.423       26.578        0.057      339.564       12.984      863.955
06/17/2013  04:41:00      -54.817      -62.751        1.344       42.785       33.410       19.345     1830.594     1116.197      374.227        0.513        0.166       83.322       18.600        0.050      339.776       13.343      863.962
06/17/2013  04:42:00      -81.480      -34.250       -6.218       17.906       22.381       13.674      320.637      500.929      186.971        0.443        0.050       88.386        8.630        0.010      339.753       13.302      863.969
06/17/2013  04:43:00      -71.660       23.383       -8.166       37.154       30.958       21.425     1380.388      958.415      459.035        0.427        0.140       75.378       19.527        0.067      339.577       13.006      863.996
06/17/2013  04:44:00     -131.776       32.463       -7.310       32.230       20.471       14.346     1038.770      419.067      205.798        1.007        0.083      135.716       15.035        0.012      339.641       13.113      863.992
06/17/2013  04:45:00      -89.781      -10.574       -5.080       28.245       29.115       21.485      797.795      847.698      461.610        0.515        0.105       90.402       18.300        0.041      339.523       12.914      863.994
06/17/2013  04:46:00      -68.970      -15.597       -4.682       34.750       24.468       13.638     1207.553      598.705      186.001        0.351        0.100       70.711       14.650        0.043      339.478       12.838      863.995
06/17/2013  04:47:00      -60.748      -27.842       -5.421       18.171       16.639       13.394      330.188      276.872      179.396        0.264        0.039       66.824        9.084        0.018      339.526       12.920      863.976
06/17/2013  04:48:00       -7.615      -28.913        0.776       22.028       16.563       13.472      485.215      274.322      181.486        0.092        0.047       29.899       10.751        0.129      339.604       13.053      863.961
06/17/2013  04:49:00      -59.707      -17.991        0.437       26.711       19.975       15.856      713.474      398.994      251.400        0.263        0.068       62.359       15.889        0.065      339.601       13.046      863.974
06/17/2013  04:50:00      -60.685       22.267      -10.693       18.729       12.426        9.049      350.766      154.406       81.890        0.244        0.029       64.642        4.717        0.005      339.458       12.806      863.981
06/17/2013  04:51:00      -26.808        0.143        0.249        6.540       13.245        7.670       42.768      175.430       58.831        0.050        0.014       26.808        6.749        0.063      339.481       12.841      863.985
06/17/2013  04:52:00      -25.101      -22.875        3.124       18.161       14.589       14.013      329.823      212.848      196.357        0.095        0.037       33.961        6.294        0.034      339.532       12.930      863.989
06/17/2013  04:53:00      -53.504      -35.329        2.879       32.509       24.414       13.735     1056.842      596.060      188.643        0.298        0.092       64.116        8.694        0.018      339.544       12.952      863.991
06/17/2013  04:54:00      -22.539      -24.714        2.371       19.525       14.415       10.070      381.237      207.795      101.411        0.091        0.035       33.448        8.714        0.068      339.533       12.930      863.988
06/17/2013  04:55:00      -40.045      -11.458       -2.413       10.895        9.223        6.888      118.709       85.070       47.451        0.100        0.013       41.652        2.686        0.004      339.606       13.055      863.977
06/17/2013  04:56:00      -49.364      -10.063       -0.602       22.510       18.389       11.316      506.706      338.148      128.045        0.176        0.049       50.379       11.820        0.055      339.580       13.009      863.970
06/17/2013  04:57:00      -62.653      -25.600       -2.108       13.209       15.537        9.534      174.478      241.386       90.891        0.255        0.025       67.681        5.322        0.006      339.540       12.943      863.964
06/17/2013  04:58:00      -63.622       -7.213       -5.779       11.466        8.656        5.978      131.464       74.918       35.731        0.219        0.012       64.029        5.536        0.007      339.499       12.875      863.959
06/17/2013  04:59:00      -72.540      -20.052       -1.213       27.471       15.171       15.389      754.677      230.152      236.817        0.344        0.061       75.260       14.867        0.039      339.384       12.681      863.963
06/17/2013  05:00:00      -97.883      -50.198       -6.066       18.326       20.383       10.665      335.833      415.481      113.748        0.650        0.043      110.004        4.204        0.001      339.424       12.748      863.972
06/17/2013  05:01:00      -76.273      -54.187       -1.243       25.415       24.129       14.924      645.938      582.200      222.731        0.510        0.073       93.562       14.338        0.023      339.448       12.789      863.984
06/17/2013  05:02:00      -47.989      -29.520        4.032       31.960       16.206       11.491     1021.421      262.624      132.049        0.230        0.071       56.342        8.931        0.025      339.410       12.724      863.979
06/17/2013  05:03:00      -50.319      -26.522       -2.427       31.248       14.542       13.653      976.465      211.457      186.393        0.231        0.069       56.881        9.753        0.029      339.493       12.864      863.977
06/17/2013  05:04:00      -30.671      -32.984       -3.492       30.311       17.374       15.859      918.752      301.853      251.512        0.176        0.074       45.040       10.823        0.058      339.574       13.000      863.967
06/17/2013  05:05:00        9.536      -12.222        4.325       12.798       17.718       12.568      163.781      313.925      157.944        0.045        0.032       15.502        8.924        0.331      339.454       12.799      863.969
06/17/2013  05:06:00       10.590      -28.335       -4.114        7.853       10.569        6.826       61.676      111.711       46.588        0.058        0.011       30.249        5.476        0.033      339.532       12.930      863.985
06/17/2013  05:07:00      -40.478      -21.265        9.245       41.493       22.614       16.644     1721.629      511.372      277.007        0.234        0.126       45.724       13.939        0.093      339.472       12.829      864.006
06/17/2013  05:08:00      -49.542      -40.292        9.695       41.419       25.860       19.800     1715.548      668.722      392.042        0.347        0.139       63.858       16.874        0.070      339.422       12.745      864.027
06/17/2013  05:09:00      -84.042      -50.975       -8.842       27.539       24.403       12.857      758.369      595.482      165.299        0.563        0.076       98.293       10.202        0.011      339.387       12.686      864.043
06/17/2013  05:10:00      -81.331      -25.771       -5.131       25.154       23.800       14.365      632.700      566.431      206.345        0.436        0.070       85.317       11.068        0.017      339.135       12.261      864.052
06/17/2013  05:11:00     -117.440      -57.140       -2.787       30.216       19.928       16.380      913.016      397.141      268.314        0.932        0.079      130.603       12.653        0.009      339.161       12.304      864.066
06/17/2013  05:12:00      -55.259      -47.053        4.464       38.039       25.936       21.476     1446.971      672.667      461.199        0.393        0.129       72.578       20.316        0.078      339.197       12.366      864.069
06/17/2013  05:13:00      -72.158      -33.384        1.808       50.046       23.344       16.869     2504.577      544.928      284.560        0.483        0.167       79.506       20.573        0.067      339.229       12.419      864.067
06/17/2013  05:14:00     -112.740      -42.141       -8.782       28.442       27.254       18.921      808.930      742.801      357.996        0.824        0.095      120.359        9.067        0.006      339.246       12.447      864.064
06/17/2013  05:15:00     -110.315      -31.956       -8.316       23.247       20.493       15.218      540.417      419.980      231.597        0.723        0.060      114.851        8.531        0.006      339.177       12.333      864.063
06/17/2013  05:16:00      -76.236      -43.837        2.506       25.144       23.852       19.094      632.232      568.930      364.585        0.465        0.078       87.941       14.439        0.027      339.158       12.299      864.056
06/17/2013  05:17:00      -46.503      -30.678        1.427       35.830       19.832       11.216     1283.756      393.309      125.800        0.245        0.090       55.711        2.397        0.002      339.217       12.399      864.055
06/17/2013  05:18:00      -74.764      -14.631       -4.393       20.772       14.540       11.016      431.463      211.419      121.351        0.329        0.038       76.182        8.139        0.011      339.105       12.209      864.049
06/17/2013  05:19:00      -62.438      -27.926        4.296       39.672       25.095       15.019     1573.866      629.736      225.585        0.356        0.121       68.398       20.952        0.094      339.136       12.263      864.038
06/17/2013  05:20:00      -52.617        0.403       -3.341       14.509       15.702        8.562      210.511      246.551       73.307        0.166        0.027       52.618        6.573        0.016      339.141       12.270      864.036
06/17/2013  05:21:00      -47.829      -17.212       -9.328       11.974       16.120        5.622      143.384      259.842       31.606        0.155        0.022       50.831        4.671        0.008      339.192       12.360      864.044
06/17/2013  05:22:00      -60.437      -21.878       -5.734       13.186        9.758        8.750      173.858       95.216       76.568        0.225        0.017       64.275        3.454        0.003      339.231       12.421      864.051
06/17/2013  05:23:00      -70.185      -27.535       -8.495       18.727       14.971       11.073      350.686      224.131      122.613        0.323        0.035       75.393        9.313        0.015      339.162       12.306      864.054
06/17/2013  05:24:00      -46.339      -30.295       -0.096       29.572       15.345       17.118      874.480      235.473      293.032        0.223        0.070       55.364       16.169        0.085      339.169       12.317      864.058
06/17/2013  05:25:00      -68.013      -43.606       -0.213       42.212       22.593       15.808     1781.877      510.441      249.885        0.453        0.127       80.791       11.260        0.019      339.081       12.172      864.059
06/17/2013  05:26:00     -106.187      -24.816      -11.503       15.133       11.903       10.592      229.010      141.692      112.182        0.625        0.024      109.048        8.046        0.005      339.096       12.193      864.061
06/17/2013  05:27:00      -99.148      -22.041       -8.842       14.172       21.563       15.115      200.837      464.965      228.470        0.564        0.045      101.568       11.330        0.012      339.095       12.194      864.064
06/17/2013  05:28:00      -86.061      -10.436       -5.289       24.673       15.719       14.553      608.767      247.077      211.783        0.431        0.053       86.691       14.710        0.029      338.966       11.977      864.050
06/17/2013  05:29:00      -69.197      -26.646       -3.377       15.951       13.257       10.065      254.441      175.748      101.309        0.302        0.027       74.151        8.180        0.012      338.986       12.009      864.039
06/17/2013  05:30:00      -65.041      -22.229       -2.084       16.851       18.005       11.488      283.944      324.172      131.971        0.273        0.037       68.734       11.031        0.026      339.030       12.084      864.024
06/17/2013  05:31:00     -109.433       -3.007      -13.625       22.132       13.965       10.571      489.841      195.020      111.747        0.648        0.040      109.475        9.177        0.007      338.973       11.989      864.024
06/17/2013  05:32:00     -125.101      -31.879      -14.999       19.044       16.481       13.363      362.671      271.611      178.559        0.885        0.041      129.099       11.867        0.008      338.982       12.004      864.033
06/17/2013  05:33:00     -119.362      -52.182       -2.433       12.235       11.855       10.168      149.691      140.548      103.391        0.868        0.020      130.270        8.480        0.004      339.012       12.054      864.039
06/17/2013  05:34:00     -120.772      -42.269       -9.812       26.689       18.945       16.874      712.308      358.900      284.715        0.891        0.068      127.955       14.745        0.013      338.926       11.908      864.041
06/17/2013  05:35:00     -116.299      -44.866       -6.310       33.363       30.450       18.126     1113.075      927.173      328.569        0.897        0.118      124.654       15.373        0.015      338.896       11.860      864.046
06/17/2013  05:36:00     -133.278      -61.117       -6.505       33.679       21.536       22.767     1134.281      463.803      518.346        1.183        0.106      146.623       17.720        0.015      338.859       11.798      864.061
06/17/2013  05:37:00     -117.557      -42.891       -0.319       27.337       22.947       20.384      747.291      526.564      415.523        0.867        0.084      125.137       17.258        0.019      338.855       11.791      864.058
06/17/2013  05:38:00      -95.383      -47.344       -2.638       28.266       24.751       16.591      798.944      612.590      275.252        0.652        0.084      106.487       16.362        0.024      338.908       11.878      864.062
06/17/2013  05:39:00     -103.280      -61.146        0.500       30.454       26.875       19.472      927.441      722.241      379.167        0.822        0.101      120.023       14.641        0.015      338.935       11.925      864.062
06/17/2013  05:40:00      -59.563      -59.762        1.480       39.806       32.875       22.391     1584.515     1080.749      501.352        0.514        0.158       84.375       21.734        0.066      338.965       11.974      864.060
06/17/2013  05:41:00      -76.820      -63.335        7.643       52.020       35.597       20.080     2706.089     1267.180      403.190        0.717        0.219       99.562       27.389        0.076      338.933       11.921      864.063
06/17/2013  05:42:00      -70.499      -63.313       10.935       52.911       30.372       25.324     2799.562      922.473      641.304        0.673        0.218       94.756       28.882        0.093      339.001       12.037      864.058
06/17/2013  05:43:00      -81.867      -75.427       -4.895       37.703       31.655       19.269     1421.520     1002.024      371.302        0.760        0.140      111.317       22.424        0.041      338.953       11.955      864.055
06/17/2013  05:44:00      -79.607      -67.728       -7.340       29.042       25.350       20.330      843.435      642.613      413.309        0.644        0.095      104.520       18.338        0.031      338.931       11.918      864.053
06/17/2013  05:45:00      -80.077      -70.698        8.773       43.450       34.056       24.333     1887.887     1159.806      592.105        0.756        0.182      106.820       24.975        0.055      338.944       11.940      864.059
06/17/2013  05:46:00      -85.566      -82.141       -9.649       27.176       23.788       16.146      738.520      565.859      260.702        0.786        0.078      118.612       11.316        0.009      339.004       12.039      864.063
06/17/2013  05:47:00      -63.176      -83.625       -5.655       30.958       28.738       19.194      958.426      825.891      368.391        0.658        0.108      104.807       16.774        0.026      339.048       12.115      864.070
06/17/2013  05:48:00      -14.919      -50.226       -0.452       40.900       29.441       21.788     1672.837      866.791      474.711        0.288        0.151       52.395        9.325        0.032      339.130       12.252      864.073
06/17/2013  05:49:00     -120.385      -91.406       -7.262       50.563       28.672       27.807     2556.648      822.111      773.212        1.353        0.208      151.154       24.580        0.026      338.987       12.011      864.076
06/17/2013  05:50:00      -90.939      -66.781        0.071       50.952       33.629       24.110     2596.110     1130.931      581.288        0.852        0.215      112.825       25.290        0.050      338.931       11.918      864.075
06/17/2013  05:51:00      -58.314      -35.311       -1.026       51.093       36.193       30.484     2610.505     1309.961      929.246        0.475        0.242       68.172       14.696        0.046      338.916       11.893      864.083
06/17/2013  05:52:00      -49.167      -56.499      -12.077       42.127       41.379       22.564     1774.717     1712.201      509.126        0.487        0.200       74.897       19.742        0.069      338.979       11.999      864.087
06/17/2013  05:53:00      -89.156      -51.265        3.487       59.969       37.756       33.476     3596.293     1425.488     1120.656        0.836        0.307      102.844       29.120        0.080      338.869       11.813      864.085
06/17/2013  05:54:00      -64.720      -51.308        9.597       66.243       52.632       30.543     4388.195     2770.092      932.885        0.750        0.405       82.591       30.055        0.132      338.849       11.779      864.081
06/17/2013  05:55:00     -153.962      -91.150       -1.707       63.269       37.539       33.593     4002.999     1409.202     1128.458        1.928        0.327      178.921       36.104        0.041      338.805       11.705      864.093
06/17/2013  05:56:00     -152.006     -123.033        0.060       51.757       34.912       30.720     2678.820     1218.828      943.719        2.154        0.242      195.558       29.760        0.023      338.859       11.796      864.109
06/17/2013  05:57:00      -92.409      -81.762        4.648       47.026       42.120       26.560     2211.430     1774.077      705.433        0.997        0.235      123.387       29.212        0.056      338.912       11.886      864.128
06/17/2013  05:58:00      -61.142      -59.182        3.968       32.287       29.530       17.726     1042.448      872.041      314.210        0.474        0.111       85.093       17.768        0.044      338.969       11.982      864.144
06/17/2013  05:59:00      -69.270      -76.958       -4.279       40.274       39.014       23.709     1621.964     1522.083      562.110        0.722        0.185      103.541       19.026        0.034      338.970       11.983      864.155
06/17/2013  06:00:00      -73.338      -93.621       -1.873       39.950       35.737       22.903     1596.013     1277.150      524.550        0.877        0.170      118.926       21.577        0.033      338.949       11.948      864.157
06/17/2013  06:01:00      -84.405      -71.543       -0.277       40.224       32.766       21.268     1617.972     1073.640      452.342        0.769        0.157      110.646       25.595        0.054      338.950       11.951      864.155
06/17/2013  06:02:00      -50.849      -48.486        8.921       51.676       36.864       27.793     2670.379     1358.952      772.430        0.491        0.240       70.260       24.379        0.120      338.941       11.934      864.160
06/17/2013  06:03:00      -77.195      -80.237        6.312       64.596       50.495       36.153     4172.627     2549.725     1307.030        1.023        0.401      111.342       40.700        0.134      338.878       11.831      864.172
06/17/2013  06:04:00     -108.991     -102.669        2.774       43.557       30.426       25.814     1897.243      925.732      666.352        1.296        0.174      149.733       25.357        0.029      338.899       11.863      864.188
06/17/2013  06:05:00     -107.578      -98.288       -3.808       50.712       38.435       28.600     2571.693     1477.238      817.959        1.306        0.243      145.718       31.863        0.048      338.883       11.837      864.202
06/17/2013  06:06:00     -127.001      -86.488       -5.485       46.377       36.115       24.278     2150.783     1304.289      589.404        1.384        0.202      153.654       24.230        0.025      338.892       11.852      864.202
06/17/2013  06:07:00     -135.968      -88.240       -2.769       45.581       39.570       24.468     2077.620     1565.781      598.696        1.526        0.212      162.091       25.403        0.025      338.964       11.974      864.206
06/17/2013  06:08:00      -95.110      -68.346        3.105       36.178       41.195       18.914     1308.866     1697.045      357.747        0.854        0.168      117.120       11.523        0.010      338.977       11.994      864.212
06/17/2013  06:09:00      -82.902      -66.322        0.654       43.097       27.173       21.526     1857.362      738.381      463.370        0.716        0.153      106.167       20.412        0.037      339.050       12.118      864.209
06/17/2013  06:10:00      -90.424      -66.470       -0.629       19.394       19.381       13.629      376.116      375.634      185.755        0.677        0.047      112.227       10.375        0.009      339.057       12.129      864.202
06/17/2013  06:11:00      -49.674      -73.663       -1.876       29.700       22.144       20.337      882.089      490.361      413.607        0.484        0.089       88.847       19.056        0.046      339.040       12.101      864.210
06/17/2013  06:12:00      -74.144      -56.569       -6.597       33.150       28.605       20.976     1098.955      818.258      439.990        0.555        0.118       93.260       22.203        0.057      339.010       12.052      864.221
06/17/2013  06:13:00      -53.956      -27.503        0.720       34.297       18.555       17.598     1176.256      344.275      309.695        0.275        0.092       60.561       20.050        0.110      339.045       12.110      864.217
06/17/2013  06:14:00      -67.323      -49.933       -6.825       27.134       24.381       13.480      736.251      594.431      181.699        0.429        0.076       83.820       11.807        0.020      339.101       12.204      864.209
06/17/2013  06:15:00      -79.544      -41.149       -7.571       21.243       20.204       16.285      451.275      408.193      265.211        0.460        0.056       89.557        7.976        0.008      339.132       12.255      864.207
06/17/2013  06:16:00      -81.264      -36.655       -9.107       11.161       13.079        8.303      124.577      171.057       68.947        0.420        0.018       89.148        3.155        0.001      339.052       12.122      864.216
06/17/2013  06:17:00      -99.217      -23.985      -12.068       13.256       12.791        7.721      175.714      163.607       59.608        0.548        0.020      102.075        3.048        0.001      339.056       12.129      864.221
06/17/2013  06:18:00     -108.346      -29.567      -14.300       19.249       13.777       13.607      370.521      189.797      185.151        0.678        0.037      112.308       10.870        0.009      339.114       12.226      864.227
06/17/2013  06:19:00      -96.944      -33.417      -10.991       25.986       18.356       15.672      675.298      336.959      245.610        0.595        0.063      102.541        5.805        0.003      339.266       12.481      864.240
06/17/2013  06:20:00     -101.032      -29.844      -13.087       23.328       17.666       14.887      544.176      312.084      221.632        0.617        0.054      105.348        7.319        0.005      339.263       12.475      864.234
06/17/2013  06:21:00     -104.185      -29.711       -1.063       24.482       23.952       12.459      599.363      573.717      155.221        0.653        0.066      108.339       10.176        0.009      339.205       12.378      864.244
06/17/2013  06:22:00     -104.637      -35.173       -4.787       27.624       19.308       12.708      763.080      372.800      161.483        0.675        0.065      110.390        7.992        0.005      339.207       12.382      864.245
06/17/2013  06:23:00      -57.953      -34.285       -5.885       12.504       13.269       10.869      156.345      176.055      118.144        0.251        0.023       67.335        6.823        0.010      339.236       12.428      864.256
06/17/2013  06:24:00      -62.476      -50.002       -7.244       22.741       17.572       13.329      517.148      308.785      177.675        0.373        0.050       80.021        8.161        0.010      339.265       12.481      864.244
06/17/2013  06:25:00      -12.860      -45.095        4.902       35.289       27.023       21.429     1245.347      730.241      459.217        0.233        0.122       46.893       19.148        0.167      339.295       12.528      864.252
06/17/2013  06:26:00      -52.434      -40.752       -2.420       32.914       26.041       14.986     1083.324      678.114      224.576        0.320        0.099       66.408       15.560        0.055      339.303       12.542      864.253
06/17/2013  06:27:00      -60.820      -35.833       -0.816       22.744       20.562       13.491      517.272      422.790      182.014        0.305        0.056       70.591        6.682        0.009      339.324       12.579      864.238
06/17/2013  06:28:00      -72.369      -22.203       -4.197       18.645       16.200        9.878      347.645      262.434       97.572        0.323        0.035       75.698        5.020        0.004      339.379       12.671      864.238
06/17/2013  06:29:00      -82.694      -37.537       -4.721       17.359       17.619       12.639      301.326      310.433      159.755        0.452        0.039       90.815        1.617        0.000      339.447       12.785      864.226
06/17/2013  06:30:00      -70.805      -44.421       -4.067       22.282       18.489       12.257      496.495      341.841      150.238        0.400        0.049       83.585       10.073        0.015      339.460       12.808      864.224
06/17/2013  06:31:00      -57.223      -43.886       -3.213       37.232       20.535       18.646     1386.216      421.673      347.680        0.368        0.108       72.115       15.988        0.049      339.537       12.938      864.217
06/17/2013  06:32:00      -76.586      -45.683       -1.546       38.336       26.269       13.697     1469.672      690.081      187.613        0.515        0.117       89.176        9.898        0.012      339.495       12.866      864.214
06/17/2013  06:33:00      -58.335      -61.575       -2.783       22.986       18.051       15.992      528.359      325.846      255.733        0.416        0.055       84.820       12.185        0.021      339.498       12.870      864.218
06/17/2013  06:34:00      -32.199      -41.564        4.713       22.073       15.837       16.805      487.228      250.798      282.412        0.190        0.051       52.576       10.094        0.037      339.633       13.100      864.216
06/17/2013  06:35:00      -34.792      -44.410       -3.354       18.061       12.809       11.443      326.199      164.082      130.935        0.191        0.031       56.416        9.149        0.026      339.592       13.031      864.223
06/17/2013  06:36:00      -34.189      -36.163       -5.687       14.976        8.070        7.964      224.281       65.128       63.421        0.143        0.018       49.766        6.691        0.018      339.626       13.088      864.220
06/17/2013  06:37:00      -24.215      -37.707       -1.138       17.495       13.174       11.879      306.073      173.549      141.121        0.131        0.031       44.813        9.514        0.045      339.657       13.141      864.226
06/17/2013  06:38:00      -25.948      -26.890        5.935       25.202       19.888       10.998      635.166      395.519      120.965        0.129        0.058       37.368        7.642        0.042      339.803       13.388      864.220
06/17/2013  06:39:00      -16.307      -12.867        2.857       19.461       11.995       14.970      378.736      143.875      224.093        0.059        0.037       20.772       10.355        0.249      339.954       13.641      864.214
06/17/2013  06:40:00       -8.800      -12.262        8.803        9.712       11.332       10.202       94.316      128.422      104.090        0.032        0.016       15.093        8.034        0.283      340.019       13.751      864.207
06/17/2013  06:41:00      -10.295       -7.926       11.897       13.511       15.110       16.597      182.534      228.317      275.476        0.050        0.034       12.993       14.163        1.188      340.351       14.311      864.198
06/17/2013  06:42:00      -18.857      -17.820       -0.080       14.739       10.153        8.878      217.236      103.089       78.814        0.054        0.020       25.945        4.915        0.036      339.937       13.615      864.196
06/17/2013  06:43:00      -14.045      -11.102        1.216        6.589        5.629        7.441       43.419       31.684       55.369        0.023        0.007       17.903        5.291        0.087      339.922       13.588      864.199
06/17/2013  06:44:00      -29.438      -16.358        5.877       15.281       19.003       11.962      233.494      361.108      143.083        0.095        0.037       33.677        9.968        0.088      339.992       13.706      864.196
06/17/2013  06:45:00      -20.215       -6.254       11.739       17.082       13.576       13.132      291.799      184.317      172.460        0.062        0.032       21.160        8.623        0.166      340.155       13.982      864.206
06/17/2013  06:46:00       -9.229      -17.446       12.458       11.371       18.543       12.846      129.296      343.850      165.029        0.059        0.032       19.737       11.671        0.350      340.185       14.030      864.204
06/17/2013  06:47:00      -32.307      -41.124       -1.747       24.635       25.621       13.938      606.885      656.415      194.266        0.210        0.073       52.297       13.650        0.068      339.939       13.616      864.203
06/17/2013  06:48:00      -24.871      -53.111        2.060       26.534       25.071       15.594      704.046      628.545      243.160        0.251        0.079       58.646       14.052        0.057      339.806       13.392      864.210
06/17/2013  06:49:00      -32.399      -45.296       -8.054       29.393       30.522       18.748      863.959      931.614      351.474        0.266        0.107       55.690       16.515        0.088      339.788       13.362      864.211
06/17/2013  06:50:00      -32.708      -31.965       -6.793       35.062       30.446       22.826     1229.327      926.953      521.034        0.241        0.134       45.734       10.971        0.058      339.800       13.382      864.215
06/17/2013  06:51:00      -53.546      -49.116       -3.956       41.700       28.089       26.244     1738.893      789.006      688.768        0.426        0.161       72.661       23.349        0.103      339.844       13.458      864.223
06/17/2013  06:52:00      -72.202      -59.600       -3.723       56.344       43.155       28.840     3174.671     1862.390      831.767        0.732        0.293       93.623       33.271        0.126      339.821       13.418      864.220
06/17/2013  06:53:00     -113.374      -88.826       -3.997       39.027       25.094       24.907     1523.094      629.707      620.348        1.177        0.139      144.027       22.190        0.024      339.694       13.203      864.219
06/17/2013  06:54:00      -97.343      -99.579       -7.734       17.668       25.475       18.515      312.165      648.950      342.789        1.038        0.065      139.254        7.224        0.003      339.648       13.124      864.217
06/17/2013  06:55:00      -80.918      -98.614      -13.420       20.818       30.159       12.760      433.401      909.555      162.829        0.898        0.075      127.563        9.904        0.006      339.650       13.128      864.209
06/17/2013  06:56:00     -101.788      -88.874      -10.724       29.864       29.169       15.442      891.851      850.838      238.456        1.018        0.099      135.127       15.864        0.014      339.692       13.200      864.204
06/17/2013  06:57:00      -87.089      -64.634      -13.888       33.143       21.761       18.249     1098.453      473.533      333.011        0.693        0.095      108.453       14.288        0.017      339.740       13.281      864.192
06/17/2013  06:58:00      -77.058      -64.582        1.661       41.456       38.218       20.252     1718.579     1460.627      410.156        0.685        0.179      100.542       23.536        0.055      339.725       13.255      864.186
06/17/2013  06:59:00      -83.799      -51.792       -3.333       30.349       30.078       21.581      921.061      904.664      465.741        0.600        0.115       98.512       15.216        0.024      339.769       13.330      864.178
06/17/2013  07:00:00      -70.798      -66.895       -4.165       26.877       25.373       15.860      722.372      643.807      251.543        0.556        0.081       97.403       10.137        0.011      339.809       13.398      864.179
06/17/2013  07:01:00      -35.444      -72.760       -6.772       31.087       31.779       17.145      966.386     1009.875      293.962        0.443        0.114       80.934       14.103        0.030      339.808       13.394      864.167
06/17/2013  07:02:00      -16.785      -57.796        7.610       23.371       32.724       22.665      546.190     1070.891      513.683        0.290        0.107       60.184       20.587        0.117      339.950       13.636      864.168
06/17/2013  07:03:00      -46.629      -78.311       -3.513       43.032       21.946       25.950     1851.749      481.633      673.395        0.566        0.150       91.142       24.176        0.070      339.908       13.563      864.181
06/17/2013  07:04:00      -29.768      -46.009        4.573       34.258       34.078       22.977     1173.607     1161.279      527.948        0.294        0.143       54.799       17.316        0.100      340.030       13.770      864.179
06/17/2013  07:05:00      -40.890      -67.297       -4.446       31.172       33.809       21.776      971.683     1143.050      474.174        0.440        0.129       78.746       14.913        0.036      339.947       13.630      864.190
06/17/2013  07:06:00      -34.892      -34.877        9.712       32.763       23.075       17.753     1073.390      532.474      315.160        0.222        0.096       49.334       18.646        0.143      340.326       14.269      864.185
06/17/2013  07:07:00      -80.635      -60.961       -6.694       22.432       30.905       10.904      503.177      955.102      118.892        0.592        0.079      101.085        8.055        0.006      339.934       13.606      864.174
06/17/2013  07:08:00      -57.015      -49.158       -2.791       26.061       39.032       19.207      679.166     1523.522      368.923        0.412        0.129       75.281       19.482        0.067      340.042       13.790      864.177
06/17/2013  07:09:00      -76.408      -57.581       -3.673       33.184       23.129       19.561     1101.172      534.961      382.650        0.559        0.101       95.675       14.397        0.023      340.017       13.747      864.178
06/17/2013  07:10:00      -74.090      -56.119        3.649       38.928       29.540       22.407     1515.376      872.614      502.092        0.577        0.145       92.944       19.045        0.042      340.012       13.739      864.181
06/17/2013  07:11:00      -24.969      -52.221        8.158       39.831       33.120       25.931     1586.539     1096.927      672.411        0.339        0.168       57.884       19.049        0.108      340.186       14.032      864.195
06/17/2013  07:12:00      -57.874      -38.700        0.709       37.657       22.606       19.144     1418.013      511.052      366.487        0.357        0.115       69.622       21.201        0.093      340.233       14.113      864.191
06/17/2013  07:13:00      -66.533      -65.462       -4.990       31.334       29.699       18.516      981.826      882.014      342.833        0.547        0.110       93.337       19.001        0.041      340.156       13.981      864.197
06/17/2013  07:14:00      -38.437      -49.577        3.152       22.227       39.005       16.620      494.059     1521.398      276.214        0.312        0.115       62.732       15.498        0.061      340.187       14.035      864.192
06/17/2013  07:15:00      -47.820        1.940       18.313       19.762       20.556       18.221      390.534      422.536      332.020        0.189        0.057       47.860       15.708        0.108      340.387       14.374      864.185
06/17/2013  07:16:00      -14.600       16.898       17.570       15.360       16.409       21.084      235.926      269.269      444.540        0.088        0.047       22.332       12.916        0.334      340.633       14.789      864.171
06/17/2013  07:17:00      -14.860       12.824       54.302       14.285       27.340       20.660      204.054      747.452      426.851        0.236        0.069       19.629       21.227        1.169      341.004       15.416      864.156
06/17/2013  07:18:00       -5.476       24.132       56.037       12.549       33.879       16.978      157.469     1147.764      288.246        0.267        0.080       24.745       13.986        0.319      341.212       15.769      864.152
06/17/2013  07:19:00      -10.628       28.623       72.931       13.571       40.092       25.592      184.181     1607.400      654.959        0.435        0.122       30.533       27.180        0.792      341.214       15.771      864.147
06/17/2013  07:20:00        6.068       41.823       59.929       26.166       30.273       21.227      684.662      916.453      450.573        0.371        0.103       42.261       21.937        0.269      340.662       14.837      864.145
06/17/2013  07:21:00        8.316       29.046       48.399       32.720       35.575       22.949     1070.569     1265.602      526.657        0.306        0.143       30.213       27.003        0.799      340.744       14.976      864.153
06/17/2013  07:22:00       -8.403       16.834       46.067       18.206       23.197       18.418      331.451      538.095      339.208        0.184        0.060       18.815       16.416        0.761      341.158       15.678      864.155
06/17/2013  07:23:00      -24.148        4.354       15.422       20.522       19.711       20.357      421.144      388.523      414.421        0.103        0.061       24.537       13.999        0.325      341.069       15.526      864.159
06/17/2013  07:24:00       -8.038       23.516       44.963        9.436       19.828       12.422       89.029      393.154      154.302        0.164        0.032       24.852        6.975        0.079      341.604       16.432      864.153
06/17/2013  07:25:00       -0.344        2.765       33.680       20.240       37.465       36.809      409.665     1403.607     1354.900        0.215        0.158        2.786       25.369       82.924      341.295       15.911      864.142
06/17/2013  07:26:00        2.686        4.102       37.326       16.956       19.235       13.227      287.506      369.990      174.955        0.112        0.042        4.903        7.832        2.552      341.357       16.014      864.133
06/17/2013  07:27:00        6.235       21.184       50.955       23.482       36.482       17.637      551.410     1330.922      311.059        0.264        0.110       22.082       11.926        0.292      341.357       16.013      864.122
06/17/2013  07:28:00       27.096      -31.652       22.942       22.900       56.375       28.169      524.407     3178.192      793.517        0.338        0.225       41.666       27.484        0.435      341.128       15.627      864.107
06/17/2013  07:29:00       11.841        9.459       38.285       22.581       44.068       22.192      509.922     1942.016      492.481        0.232        0.147       15.155       26.023        2.948      341.247       15.827      864.096
06/17/2013  07:30:00        7.496       23.147       40.493       28.071       24.444       16.855      787.957      597.520      284.089        0.195        0.083       24.331       15.791        0.421      341.331       15.971      864.088
06/17/2013  07:31:00        4.948       36.836       40.679       17.164       23.478       22.882      294.619      551.194      523.584        0.220        0.068       37.167       15.294        0.169      341.074       15.534      864.072
06/17/2013  07:32:00       10.280       16.084       21.147       25.642       30.451       21.360      657.523      927.272      456.240        0.143        0.102       19.088       19.787        1.075      341.228       15.795      864.066
06/17/2013  07:33:00       70.826       41.702       15.641       53.884       27.373       27.483     2903.453      749.270      755.299        0.570        0.220       82.191       33.859        0.170      341.247       15.830      864.056
06/17/2013  07:34:00       57.365       34.810       -5.748       40.045       24.738       28.166     1603.613      611.968      793.347        0.377        0.150       67.101       13.792        0.042      340.969       15.357      864.056
06/17/2013  07:35:00       73.598       49.410       14.221       35.048       28.754       21.512     1228.357      826.820      462.776        0.529        0.126       88.646       12.608        0.020      341.086       15.554      864.055
06/17/2013  07:36:00       85.739       45.227       14.403       32.334       33.404       33.415     1045.514     1115.810     1116.575        0.644        0.164       96.936       10.060        0.011      341.095       15.571      864.049
06/17/2013  07:37:00       39.325       63.479        0.846       28.804       31.437       31.765      829.651      988.297     1008.992        0.420        0.141       74.673       25.596        0.117      341.206       15.757      864.055
06/17/2013  07:38:00       72.898       43.690        0.470       44.712       34.378       29.370     1999.198     1181.864      862.568        0.563        0.202       84.987       19.038        0.050      341.349       16.001      864.059
06/17/2013  07:39:00      129.060       76.040        4.007       44.128       28.964       28.337     1947.297      838.936      803.012        1.302        0.179      149.795       18.096        0.015      340.904       15.248      864.067
06/17/2013  07:40:00      106.362       69.038       13.046       38.663       30.066       31.466     1494.863      903.994      990.079        0.982        0.169      126.804       20.601        0.026      341.001       15.411      864.077
06/17/2013  07:41:00       92.098       59.368       30.189       34.589       28.642       29.585     1196.419      820.353      875.244        0.790        0.145      109.575       14.210        0.017      341.070       15.529      864.081
06/17/2013  07:42:00       54.520       44.987        7.150       55.165       37.355       33.239     3043.132     1395.431     1104.854        0.529        0.277       70.684       12.184        0.030      341.252       15.836      864.099
06/17/2013  07:43:00       21.546      -32.906       17.866       34.055       46.692       21.739     1159.720     2180.136      472.592        0.284        0.191       39.332       23.668        0.362      341.526       16.299      864.095
06/17/2013  07:44:00       51.603       11.891       15.291       39.264       52.910       30.165     1541.633     2799.460      909.908        0.414        0.263       52.955       27.106        0.262      341.445       16.163      864.089
06/17/2013  07:45:00       64.421       64.624       48.725       51.720       48.983       36.470     2674.981     2399.307     1330.068        0.855        0.320       91.248       30.425        0.111      341.419       16.118      864.085
06/17/2013  07:46:00       17.689        2.215       53.013       26.989       36.192       24.557      728.402     1309.879      603.059        0.288        0.132       17.828       23.685        1.765      341.618       16.457      864.069
06/17/2013  07:47:00       82.022       51.685       20.554       50.512       33.913       35.559     2551.431     1150.103     1264.443        0.739        0.248       96.948       33.205        0.117      341.383       16.059      864.067
06/17/2013  07:48:00       67.289       53.537       17.047       32.609       29.953       34.961     1063.375      897.212     1222.295        0.543        0.159       85.988       17.466        0.041      341.232       15.802      864.068
06/17/2013  07:49:00       37.791       47.269       37.393       41.189       41.380       34.112     1696.511     1712.285     1163.642        0.482        0.229       60.519       27.720        0.210      341.839       16.830      864.059
06/17/2013  07:50:00       -2.600       70.999       97.647       29.840       38.004       27.240      890.399     1444.291      741.993        0.883        0.154       71.047       25.316        0.127      341.761       16.697      864.057
06/17/2013  07:51:00       94.700       64.852       28.252       36.207       22.125       29.453     1310.921      489.499      867.493        0.832        0.133      114.778       14.213        0.015      341.171       15.700      864.061
06/17/2013  07:52:00       59.090       50.555       20.530       26.415       26.074       25.191      697.729      679.838      634.604        0.424        0.101       77.765        8.498        0.012      341.155       15.672      864.061
06/17/2013  07:53:00       30.926       21.143       31.992       30.848       36.845       23.051      951.576     1357.529      531.362        0.263        0.142       37.463       18.753        0.251      341.494       16.246      864.065
06/17/2013  07:54:00       24.477       23.158       29.524       30.290       39.518       23.677      917.508     1561.689      560.592        0.252        0.152       33.696        9.081        0.073      341.305       15.926      864.063
06/17/2013  07:55:00       46.804       52.107       33.396       36.528       29.950       24.045     1334.304      897.025      578.152        0.441        0.140       70.042       11.045        0.025      341.316       15.943      864.068
06/17/2013  07:56:00       61.051       55.181       22.437       18.205       13.229       19.216      331.423      175.010      369.254        0.408        0.044       82.293        9.018        0.012      341.198       15.746      864.061
06/17/2013  07:57:00       53.799       41.803       28.177       22.502       16.861       22.234      506.339      284.302      494.343        0.336        0.064       68.131        7.640        0.013      341.225       15.790      864.058
06/17/2013  07:58:00       30.807       21.128       10.566       19.476       14.463       11.238      379.306      209.191      126.304        0.111        0.036       37.355        7.638        0.042      341.291       15.901      864.053
06/17/2013  07:59:00      -13.638       26.309       15.850       17.991       18.860       21.442      323.666      355.699      459.771        0.113        0.057       29.634       13.256        0.200      341.904       16.940      864.057
06/17/2013  08:00:00       -8.444       22.750       26.669       16.764       19.923       16.346      281.022      396.933      267.186        0.112        0.047       24.267       12.170        0.252      342.166       17.388      864.052
06/17/2013  08:01:00      -15.459        8.297       30.319       18.904       18.310       14.309      357.353      335.274      204.742        0.106        0.045       17.544        8.943        0.260      342.372       17.736      864.055
06/17/2013  08:02:00        6.896      -33.965       11.447       19.653       25.935       19.231      386.245      672.602      369.824        0.138        0.071       34.658       12.238        0.125      341.734       16.654      864.055
06/17/2013  08:03:00       -4.920       -1.632       30.965       16.179       27.411       25.121      261.770      751.372      631.043        0.131        0.082        5.184       20.178       15.151      342.433       17.840      864.053
06/17/2013  08:04:00        4.542      -33.341       21.675       23.041       39.576       23.374      530.885     1566.278      546.332        0.212        0.132       33.649       23.373        0.482      341.954       17.026      864.063
06/17/2013  08:05:00        3.218      -35.373       15.799       36.928       33.376       27.111     1363.657     1113.969      735.027        0.236        0.161       35.519       15.125        0.181      341.738       16.661      864.067
06/17/2013  08:06:00       18.547      -28.123       24.190       32.258       42.699       36.274     1040.599     1823.231     1315.787        0.295        0.209       33.688       33.049        0.962      342.100       17.273      864.077
06/17/2013  08:07:00       28.134       -3.499       41.256       28.632       24.636       28.663      819.810      606.912      821.540        0.238        0.112       28.351       13.827        0.238      342.409       17.800      864.086
06/17/2013  08:08:00      -16.076       -2.326       19.786       17.971       18.425       17.175      322.950      339.478      294.995        0.081        0.048       16.243        9.056        0.311      342.012       17.125      864.086
06/17/2013  08:09:00      -18.920      -48.685       -4.010       26.210       44.024       14.746      686.981     1938.098      217.434        0.279        0.142       52.232       15.765        0.091      341.555       16.349      864.091
06/17/2013  08:10:00      -28.489      -48.017        1.885       31.710       29.943       20.437     1005.499      896.558      417.684        0.272        0.116       55.833       19.650        0.124      341.709       16.609      864.079
06/17/2013  08:11:00      -71.824      -75.455       -1.199       23.624       30.736       19.359      558.078      944.688      374.760        0.637        0.094      104.173       19.080        0.034      341.556       16.351      864.079
06/17/2013  08:12:00      -80.211      -61.932      -11.094       14.768       11.793       10.739      218.083      139.083      115.334        0.543        0.024      101.338        4.444        0.002      341.515       16.280      864.082
06/17/2013  08:13:00      -69.848      -21.037       -7.630       20.229       26.070       12.192      409.221      679.648      148.635        0.331        0.062       72.947        7.314        0.010      341.594       16.415      864.084
06/17/2013  08:14:00      -79.912      -47.809       -4.790       35.693       30.301       21.366     1274.001      918.138      456.525        0.567        0.132       93.121       21.579        0.054      341.702       16.599      864.076
06/17/2013  08:15:00      -45.671      -40.893       23.305       64.023       40.035       25.942     4098.950     1602.790      673.009        0.534        0.319       61.303       33.947        0.307      341.992       17.091      864.061
06/17/2013  08:16:00      -32.950       -8.423       17.451       39.844       27.200       27.019     1587.533      739.834      730.025        0.226        0.153       34.009       20.494        0.363      342.249       17.528      864.055
06/17/2013  08:17:00      -20.882       -2.733       -1.866       28.809       50.329       29.040      829.985     2533.045      843.331        0.233        0.210       21.060       14.628        0.482      342.071       17.225      864.037
06/17/2013  08:18:00      -34.230       21.954       13.954       28.603       20.668       19.788      818.141      427.178      391.580        0.174        0.082       40.665        9.066        0.050      342.358       17.713      864.037
06/17/2013  08:19:00      -21.914        3.156       17.152       18.488       19.199       29.659      341.807      368.584      879.628        0.119        0.080       22.140       15.048        0.462      342.487       17.933      864.038
06/17/2013  08:20:00      -30.857       10.416       -8.655       30.378       17.429       19.704      922.805      303.786      388.232        0.137        0.081       32.568       10.875        0.112      341.857       16.863      864.032
06/17/2013  08:21:00      -31.324       18.617       12.378       31.911       22.453       33.286     1018.320      504.136     1107.953        0.206        0.132       36.439       16.790        0.212      342.002       17.107      864.032
06/17/2013  08:22:00       -5.229       21.717       54.774       21.188       32.709       26.546      448.951     1069.886      704.673        0.286        0.111       22.338       22.823        1.044      342.848       18.547      864.024
06/17/2013  08:23:00       11.316       14.770       40.881       25.278       21.354       24.254      638.960      455.987      588.246        0.185        0.084       18.607        8.994        0.234      342.458       17.884      864.027
06/17/2013  08:24:00      -12.396      -14.871        8.832       32.765       32.007       28.901     1073.546     1024.426      835.240        0.169        0.147       19.360       14.718        0.578      342.023       17.144      864.030
06/17/2013  08:25:00      -31.039        0.972       12.308       26.330       15.205       19.754      693.274      231.184      390.216        0.121        0.066       31.054       15.694        0.255      342.497       17.951      864.038
06/17/2013  08:26:00      -21.349      -28.843        5.368       25.288       25.033       26.657      639.468      626.671      710.590        0.165        0.099       35.884       15.853        0.195      342.422       17.822      864.050
06/17/2013  08:27:00      -38.894        3.226        7.539       16.522       23.635       15.076      272.977      558.628      227.285        0.132        0.053       39.027        8.905        0.052      342.048       17.185      864.049
06/17/2013  08:28:00      -52.561        5.516       -5.838       17.747       10.735       13.924      314.966      115.245      193.874        0.173        0.031       52.850        7.710        0.021      341.971       17.054      864.047
06/17/2013  08:29:00      -34.591       22.946       -0.922       18.048       16.231       16.506      325.738      263.433      272.453        0.129        0.043       41.510        7.909        0.036      342.096       17.268      864.041
06/17/2013  08:30:00       13.577       42.658       39.485       33.849       33.219       26.237     1145.769     1103.488      688.380        0.325        0.147       44.766       16.433        0.135      342.770       18.412      864.040
06/17/2013  08:31:00       59.912       79.489       13.584       33.568       26.040       29.393     1126.795      678.069      863.919        0.638        0.133       99.539       19.705        0.039      342.091       17.259      864.050
06/17/2013  08:32:00       79.363       16.560       -2.499       28.101       36.253       26.492      789.654     1314.294      701.813        0.469        0.140       81.072       14.755        0.033      342.271       17.563      864.050
06/17/2013  08:33:00       20.222      -49.431       -0.416       50.182       44.508       27.694     2518.222     1980.980      766.959        0.406        0.263       53.407       26.497        0.246      342.104       17.279      864.058
06/17/2013  08:34:00        3.421      -41.016       -9.971       55.990       34.391       27.563     3134.858     1182.715      759.708        0.343        0.254       41.158       17.224        0.175      342.014       17.128      864.049
06/17/2013  08:35:00       43.266      -49.249       10.246       38.856       32.072       25.154     1509.770     1028.615      632.699        0.379        0.159       65.555       17.073        0.068      341.767       16.708      864.049
06/17/2013  08:36:00       30.841      -49.219        4.464       23.311       45.118       27.183      543.424     2035.634      738.889        0.336        0.166       58.083       26.919        0.215      341.912       16.954      864.061
06/17/2013  08:37:00       11.328       15.587       28.741       32.399       42.081       36.651     1049.703     1770.850     1343.294        0.268        0.208       19.269       32.999        2.933      342.426       17.827      864.064
06/17/2013  08:38:00        8.359      -10.233        4.205       52.023       35.920       33.014     2706.379     1290.230     1089.943        0.264        0.254       13.213       16.667        1.591      342.260       17.546      864.058
06/17/2013  08:39:00      -15.323      -28.470       20.196       23.662       29.873       26.126      559.878      892.410      682.587        0.179        0.107       32.332       16.592        0.263      342.410       17.801      864.054
06/17/2013  08:40:00      -29.539      -25.689        4.449       19.348       27.643       16.848      374.352      764.130      283.872        0.149        0.071       39.147        9.190        0.055      342.238       17.508      864.048
06/17/2013  08:41:00      -23.146       -3.308       21.304       21.394       14.478       17.463      457.724      209.615      304.947        0.099        0.049       23.381       13.413        0.329      342.845       18.542      864.050
06/17/2013  08:42:00      -11.331        6.978       28.886       13.596       21.981       26.836      184.845      483.181      720.160        0.120        0.069       13.307       20.237        2.313      343.184       19.118      864.047
06/17/2013  08:43:00       -9.098      -11.008       33.538       14.761       16.624       19.357      217.879      276.369      374.712        0.110        0.043       14.281       13.310        0.869      343.519       19.689      864.058
06/17/2013  08:44:00       -5.538      -17.416       35.123       18.446       23.867       15.728      340.236      569.612      247.378        0.136        0.058       18.275       11.141        0.372      343.384       19.459      864.054
06/17/2013  08:45:00       20.797       25.670       42.361       26.903       28.160       24.547      723.753      792.963      602.578        0.250        0.106       33.037       17.360        0.276      342.954       18.726      864.048
06/17/2013  08:46:00       38.173        2.684       38.689       32.501       16.201       22.833     1056.331      262.485      521.343        0.240        0.092       38.267       11.546        0.091      342.868       18.580      864.039
06/17/2013  08:47:00       49.985       25.085       -1.278       34.953       28.646       23.892     1221.744      820.595      570.826        0.287        0.131       55.927       10.544        0.036      342.409       17.798      864.032
06/17/2013  08:48:00        7.094       -0.272       16.669       19.707       26.710       29.927      388.352      713.450      895.634        0.116        0.100        7.099       18.857        7.056      343.171       19.097      864.034
06/17/2013  08:49:00       26.482      -36.704       -3.357       37.996       47.157       42.225     1443.731     2223.755     1782.911        0.375        0.273       45.260       33.157        0.537      342.697       18.289      864.018
06/17/2013  08:50:00       15.628      -11.176       11.559       44.789       63.657       43.815     2006.093     4052.182     1919.720        0.424        0.399       19.213       18.689        0.946      343.159       19.075      864.011
06/17/2013  08:51:00       36.552      -23.709       30.413       46.772       47.906       57.209     2187.616     2295.004     3272.876        0.529        0.388       43.568       40.466        0.863      343.007       18.816      864.006
06/17/2013  08:52:00        2.782       33.149       57.094       37.749       39.771       32.555     1425.023     1581.765     1059.831        0.422        0.203       33.266       27.248        0.671      343.133       19.029      864.009
06/17/2013  08:53:00       -0.555       11.947       53.725       26.797       34.671       23.481      718.077     1202.085      551.346        0.275        0.124       11.960       14.959        1.565      343.458       19.583      863.993
06/17/2013  08:54:00        0.105       -6.772       53.820       25.167       53.727       30.377      633.401     2886.555      922.762        0.369        0.222        6.773       34.979       26.675      343.530       19.709      864.000
06/17/2013  08:55:00       -1.643       25.715       74.178       31.649       52.627       26.927     1001.688     2769.638      725.038        0.533        0.225       25.768       23.453        0.828      343.297       19.309      863.994
06/17/2013  08:56:00       -7.530       32.509       67.244       26.063       45.276       29.104      679.271     2049.951      847.021        0.461        0.179       33.369       31.210        0.875      343.082       18.943      864.002
06/17/2013  08:57:00       36.486       -5.295       31.183       51.849       31.596       31.690     2688.270      998.313     1004.251        0.351        0.235       36.868       34.064        0.854      342.981       18.772      863.994
06/17/2013  08:58:00        2.199        5.316       29.178       49.425       35.336       22.764     2442.824     1248.633      518.194        0.255        0.210        5.753       20.772       13.036      343.012       18.825      863.974
06/17/2013  08:59:00       16.724      -62.522       23.347       42.257       60.398       35.751     1785.681     3647.877     1278.110        0.572        0.336       64.721       33.228        0.264      343.121       19.009      863.971
06/17/2013  09:00:00        4.723      -10.804       50.287       27.253       63.221       35.973      742.734     3996.903     1294.052        0.435        0.302       11.791       35.696        9.165      343.364       19.424      863.963
06/17/2013  09:01:00      -22.165      -16.426        8.835       40.951       33.160       31.028     1676.971     1099.572      962.748        0.229        0.187       27.588       26.566        0.927      343.006       18.813      863.962
06/17/2013  09:02:00      -30.600       -3.017        9.702       24.123       29.401       20.526      581.928      864.436      421.323        0.145        0.093       30.749       19.394        0.398      343.212       19.166      863.956
06/17/2013  09:03:00      -22.009        2.784        8.127       26.386       18.470       23.303      696.212      341.135      543.039        0.107        0.079       22.185       20.407        0.846      343.218       19.177      863.955
06/17/2013  09:04:00        7.451        0.083       28.445       34.755       31.350       26.478     1207.886      982.810      701.059        0.188        0.145        7.451       12.606        2.862      343.684       19.970      863.947
06/17/2013  09:05:00       11.695      -76.105       -9.148       34.712       50.061       29.915     1204.926     2506.114      894.927        0.531        0.230       76.998       28.145        0.134      343.103       18.980      863.952
06/17/2013  09:06:00      -21.869      -34.232       -3.396       45.104       37.489       28.153     2034.361     1405.452      792.617        0.295        0.212       40.621        9.695        0.057      343.222       19.182      863.943
06/17/2013  09:07:00      -41.497       20.155        4.644       19.548       12.031       14.877      382.114      144.736      221.327        0.145        0.037       46.132        7.012        0.023      342.909       18.648      863.947
06/17/2013  09:08:00       -0.665      -13.162       17.687       18.709       20.030       24.292      350.016      401.206      590.114        0.091        0.067       13.179       15.820        1.441      343.790       20.149      863.940
06/17/2013  09:09:00      -14.027       15.804       42.697       22.319       24.335       21.444      498.142      592.177      459.825        0.191        0.078       21.131       13.195        0.390      343.893       20.327      863.945
06/17/2013  09:10:00      -34.300       -6.956       15.858       31.430       29.237       26.029      987.815      854.804      677.532        0.200        0.126       34.998       26.127        0.557      343.659       19.927      863.926
06/17/2013  09:11:00       21.526       -2.435       27.151       37.395       23.929       28.135     1398.386      572.620      791.573        0.198        0.138       21.664        3.977        0.034      343.404       19.494      863.932
06/17/2013  09:12:00       26.054      -31.666       17.879       34.686       36.359       29.845     1203.109     1322.000      890.752        0.271        0.171       41.007       21.653        0.279      342.848       18.547      863.923
06/17/2013  09:13:00       40.692       36.885       57.027       44.747       51.214       29.865     2002.328     2622.847      891.945        0.589        0.276       54.922       20.835        0.144      343.175       19.101      863.903
06/17/2013  09:14:00       70.030       39.361       13.534       45.154       53.541       33.692     2038.877     2866.688     1135.128        0.634        0.302       80.333       19.116        0.057      343.087       18.951      863.888
06/17/2013  09:15:00       10.519       26.466       51.385       32.706       34.522       22.871     1069.695     1191.768      523.092        0.312        0.139       28.480       19.999        0.493      343.937       20.401      863.876
06/17/2013  09:16:00       11.354       52.854       57.580       39.982       37.949       25.719     1598.579     1440.118      661.463        0.497        0.185       54.060       13.775        0.065      343.766       20.111      863.849
06/17/2013  09:17:00       49.100       35.198       45.855       46.370       45.680       25.945     2150.202     2086.697      673.161        0.533        0.246       60.413       23.788        0.155      343.346       19.394      863.835
06/17/2013  09:18:00       -2.289      -83.077       33.321       41.208       57.908       39.292     1698.103     3353.371     1543.876        0.730        0.330       83.108       23.914        0.083      343.454       19.577      863.813
06/17/2013  09:19:00       12.676      -69.189       11.915       50.785       81.276       45.817     2579.157     6605.779     2099.162        0.818        0.564       70.341       17.097        0.059      343.465       19.597      863.796
06/17/2013  09:20:00       32.155      -36.882       31.280       39.702       56.281       38.086     1576.268     3167.551     1450.564        0.478        0.310       48.930       32.323        0.436      343.582       19.797      863.786
06/17/2013  09:21:00       23.906       16.265       41.038       41.108       44.096       31.133     1689.833     1944.464      969.281        0.356        0.230       28.914       27.754        0.921      343.748       20.080      863.762
06/17/2013  09:22:00       17.810      -19.487       35.313       42.350       77.122       41.887     1793.510     5947.834     1754.488        0.572        0.475       26.400       48.911        3.433      343.804       20.175      863.746
06/17/2013  09:23:00       33.879      -36.527       27.263       44.603       69.784       45.108     1989.388     4869.835     2034.725        0.606        0.445       49.820       38.251        0.589      343.689       19.979      863.734
06/17/2013  09:24:00       35.536      -24.045        8.300       53.023       27.776       36.021     2811.417      771.486     1297.505        0.339        0.244       42.906       24.407        0.324      343.498       19.653      863.734
06/17/2013  09:25:00      -23.235        6.011       24.338       21.186       28.983       19.825      448.863      840.028      393.016        0.142        0.084       24.000       13.405        0.312      344.116       20.708      863.717
06/17/2013  09:26:00      -12.667       -6.567       29.390       32.792       31.459       17.041     1075.307      989.645      290.397        0.171        0.118       14.268        9.130        0.409      343.994       20.499      863.711
06/17/2013  09:27:00       46.426      -40.251        4.716       60.419       54.431       40.961     3650.497     2962.752     1677.779        0.604        0.415       61.445       49.345        0.645      343.495       19.648      863.696
06/17/2013  09:28:00       69.566       -9.564       19.505       44.125       42.252       34.057     1947.038     1785.254     1159.898        0.510        0.245       70.221       30.306        0.186      343.045       18.880      863.687
06/17/2013  09:29:00       57.919       45.817        6.462       47.195       34.396       43.780     2227.397     1183.115     1916.665        0.541        0.266       73.850       34.248        0.215      343.210       19.161      863.667
06/17/2013  09:30:00       44.871       31.926       25.299       44.337       29.717       26.929     1965.787      883.126      725.160        0.362        0.179       55.070       20.955        0.145      344.076       20.638      863.651
06/17/2013  09:31:00       61.822       38.935       11.847       31.692       28.367       34.095     1004.363      804.688     1162.436        0.422        0.149       73.060       20.956        0.082      344.007       20.521      863.631
06/17/2013  09:32:00       72.200       56.018        4.020       40.735       34.852       30.619     1659.312     1214.632      937.511        0.609        0.191       91.383       21.778        0.057      343.868       20.283      863.628
06/17/2013  09:33:00       83.791       50.845       15.628       50.967       47.917       42.607     2597.636     2296.086     1815.345        0.828        0.335       98.010       32.028        0.107      343.997       20.503      863.608
06/17/2013  09:34:00       61.976       30.404       24.973       50.054       39.031       38.911     2505.390     1523.380     1514.067        0.546        0.277       69.032       28.451        0.170      344.220       20.885      863.617
06/17/2013  09:35:00       41.152       55.269        5.214       49.214       57.374       43.236     2421.979     3291.753     1869.310        0.618        0.379       68.907       31.182        0.205      344.063       20.615      863.605
06/17/2013  09:36:00       11.298       68.874       22.465       34.533       67.177       43.748     1192.556     4512.776     1913.927        0.650        0.381       69.795       40.185        0.331      344.285       20.997      863.597
06/17/2013  09:37:00       38.271       22.356       20.147       45.305       30.847       28.653     2052.577      951.515      821.015        0.310        0.191       44.322       26.003        0.344      344.331       21.074      863.581
06/17/2013  09:38:00       24.733       48.229       58.448       42.545       39.334       34.637     1810.041     1547.125     1199.714        0.545        0.228       54.201       30.852        0.324      344.240       20.920      863.576
06/17/2013  09:39:00       28.034       68.129       11.406       33.813       46.387       35.864     1143.332     2151.763     1286.240        0.507        0.229       73.671       23.029        0.098      343.993       20.497      863.562
06/17/2013  09:40:00       71.660       69.535       22.530       69.353       50.998       41.891     4809.819     2600.790     1754.833        0.982        0.458       99.851       21.702        0.047      344.221       20.886      863.538
06/17/2013  09:41:00      188.459       94.552       16.966       60.158       46.631       49.907     3618.971     2174.427     2490.686        2.651        0.414      210.848       28.397        0.018      343.543       19.726      863.512
06/17/2013  09:42:00      171.337       65.796        1.170       83.170       62.726       46.606     6917.174     3934.605     2172.161        2.335        0.651      183.536       27.956        0.023      343.709       20.011      863.491
06/17/2013  09:43:00      133.704       86.843       12.820       41.061       38.135       39.638     1685.998     1454.307     1571.177        1.515        0.236      159.432       21.691        0.019      343.660       19.927      863.479
06/17/2013  09:44:00      123.168       90.279       10.741       49.959       43.999       43.708     2495.897     1935.943     1910.401        1.489        0.317      152.711       21.544        0.020      343.966       20.450      863.466
06/17/2013  09:45:00      131.451       57.610       -0.979       54.593       44.687       38.908     2980.435     1996.948     1513.865        1.354        0.325      143.521       21.596        0.023      343.668       19.942      863.470
06/17/2013  09:46:00       64.525       32.928        9.837       46.459       33.410       33.699     2158.396     1116.240     1135.595        0.488        0.221       72.441       29.700        0.168      343.846       20.244      863.470
06/17/2013  09:47:00        9.603       79.225       22.008       30.314       49.799       37.627      918.931     2479.932     1415.765        0.583        0.241       79.805       37.260        0.218      344.218       20.881      863.469
06/17/2013  09:48:00       11.252       49.910       25.590       30.399       66.105       28.595      924.090     4369.838      817.656        0.469        0.306       51.162       27.707        0.293      344.836       21.939      863.459
06/17/2013  09:49:00        8.871        7.314       10.151       36.854       49.227       24.845     1358.207     2423.346      617.268        0.232        0.220       11.498       17.740        2.381      344.384       21.166      863.461
06/17/2013  09:50:00        8.167      -35.009       42.747       40.912       73.048       44.208     1673.802     5336.012     1954.381        0.604        0.448       35.949       36.825        1.049      344.730       21.757      863.433
06/17/2013  09:51:00       69.934       -0.888       52.148       59.884       64.840       39.258     3586.036     4204.239     1541.156        0.847        0.467       69.940       45.908        0.431      344.166       20.793      863.439
06/17/2013  09:52:00       42.408        0.126       27.165       41.010       25.426       31.399     1681.848      646.491      985.875        0.292        0.166       42.408       25.994        0.376      343.967       20.455      863.417
06/17/2013  09:53:00       23.212      -10.578       12.382       17.469       27.071       21.997      305.169      732.820      483.869        0.116        0.076       25.508       16.119        0.399      344.024       20.551      863.409
06/17/2013  09:54:00       20.409       14.976       16.164       24.278       32.010       19.124      589.437     1024.651      365.732        0.144        0.099       25.314       10.857        0.184      344.071       20.630      863.383
06/17/2013  09:55:00       22.975       24.647       16.510       43.937       45.171       29.034     1930.498     2040.396      842.984        0.311        0.241       33.694       20.283        0.362      344.240       20.919      863.370
06/17/2013  09:56:00       44.463       51.935       21.095       42.015       40.844       31.340     1765.231     1668.224      982.174        0.477        0.221       68.368       22.415        0.107      344.205       20.860      863.334
06/17/2013  09:57:00       57.512        6.439       32.410       42.143       52.125       33.141     1776.036     2716.983     1098.320        0.499        0.280       57.871       12.921        0.050      344.262       20.955      863.295
06/17/2013  09:58:00       39.043      -48.254       38.447       52.499       73.822       40.498     2756.154     5449.652     1640.122        0.759        0.492       62.071       43.433        0.490      344.530       21.414      863.277
06/17/2013  09:59:00       68.868      -38.428       17.223       40.188       45.331       29.560     1615.112     2054.871      873.801        0.553        0.227       78.864       25.703        0.106      343.849       20.252      863.260
06/17/2013  10:00:00       56.794       11.859       31.520       60.897       64.795       30.782     3708.483     4198.433      947.514        0.661        0.443       58.019       26.156        0.203      344.185       20.824      863.249
06/17/2013  10:01:00       15.975       20.047       21.217       53.606       56.816       33.876     2873.603     3228.037     1147.605        0.418        0.362       25.634       30.703        1.435      344.500       21.363      863.230
06/17/2013  10:02:00       77.748      -38.384        7.115       81.193       61.685       52.686     6592.295     3805.065     2775.832        1.037        0.659       86.707       54.021        0.388      344.326       21.066      863.222
06/17/2013  10:03:00       15.141       33.381       63.603       45.375       44.678       38.266     2058.903     1996.159     1464.260        0.545        0.276       36.654       28.049        0.586      344.728       21.754      863.222
06/17/2013  10:04:00       -2.517      -20.217       28.157       42.558       62.661       43.850     1811.214     3926.444     1922.854        0.443        0.383       20.373       44.194        4.705      343.836       20.229      863.227
06/17/2013  10:05:00       13.705      -32.905        9.030       38.358       20.296       26.529     1471.357      411.946      703.777        0.197        0.129       35.645       17.936        0.253      343.787       20.146      863.224
06/17/2013  10:06:00       28.671      -27.786       22.135       27.420       28.228       22.141      751.834      796.843      490.220        0.206        0.102       39.925       12.060        0.091      343.919       20.371      863.224
06/17/2013  10:07:00       45.740      -17.108       33.978       37.664       39.972       32.495     1418.598     1597.735     1055.954        0.380        0.204       48.835       27.154        0.309      344.529       21.413      863.222
06/17/2013  10:08:00       -1.055        4.923       43.533       26.178       27.211       21.327      685.274      740.447      454.856        0.190        0.094        5.035       17.157       11.614      345.371       22.855      863.207
06/17/2013  10:09:00      -25.243       -9.672        6.789       31.917       25.202       27.513     1018.694      635.118      756.948        0.159        0.121       27.033       24.059        0.792      345.098       22.387      863.195
06/17/2013  10:10:00      -12.903        5.217       34.002       55.415       49.613       37.709     3070.778     2461.460     1421.972        0.415        0.348       13.918       19.307        1.924      344.728       21.754      863.171
06/17/2013  10:11:00       53.172      -38.822       23.706       68.483       74.601       35.145     4689.917     5565.276     1235.173        0.819        0.575       65.836       43.230        0.431      344.674       21.661      863.161
06/17/2013  10:12:00       35.636      -31.590       22.364       59.549       65.017       40.765     3546.039     4227.253     1661.825        0.610        0.472       47.622       44.198        0.861      344.956       22.143      863.138
06/17/2013  10:13:00        8.609       14.762       41.696       30.949       49.166       37.753      957.810     2417.294     1425.269        0.341        0.240       17.089       35.590        4.338      345.030       22.271      863.124
06/17/2013  10:14:00       29.451       45.680       58.381       54.929       46.895       32.182     3017.228     2199.159     1035.710        0.631        0.313       54.351       25.418        0.219      344.869       21.994      863.124
06/17/2013  10:15:00       65.282       43.650       65.431       65.217       50.424       38.374     4253.222     2542.621     1472.573        0.936        0.413       78.531       18.789        0.057      344.660       21.636      863.108
06/17/2013  10:16:00       47.057      -18.849       19.438       44.136       43.100       46.955     1947.967     1857.584     2204.743        0.448        0.301       50.692       26.766        0.279      344.416       21.220      863.137
06/17/2013  10:17:00        2.855       -5.139       32.518       17.982       28.612       21.025      323.360      818.671      442.048        0.134        0.079        5.879       18.752       10.174      344.999       22.218      863.126
06/17/2013  10:18:00       16.067       41.013       15.071       27.318       24.718       31.840      746.251      611.004     1013.804        0.227        0.119       44.047       20.096        0.208      344.557       21.460      863.120
06/17/2013  10:19:00        9.055       12.845       39.318       26.780       32.314       31.595      717.155     1044.174      998.248        0.228        0.138       15.716       24.339        2.399      345.048       22.302      863.129
06/17/2013  10:20:00       42.792        4.063       42.853       49.948       54.129       47.169     2494.779     2929.999     2224.950        0.567        0.382       42.985       42.621        0.983      344.913       22.069      863.121
06/17/2013  10:21:00       34.325      -89.284        0.378       42.829       77.832       34.922     1834.305     6057.840     1219.574        0.913        0.456       95.655       36.934        0.149      344.483       21.335      863.131
06/17/2013  10:22:00        1.674       -0.053       46.141       27.890       65.340       34.528      777.834     4269.301     1192.168        0.418        0.312        1.675       44.054      691.609      345.446       22.983      863.133
06/17/2013  10:23:00       25.071        9.790       25.743       27.574       32.279       22.105      760.353     1041.933      488.646        0.184        0.115       26.915       20.012        0.553      344.832       21.931      863.120
06/17/2013  10:24:00       11.981       22.682       41.671       28.730       31.580       25.459      825.428      997.321      648.140        0.243        0.124       25.651       13.557        0.279      345.600       23.249      863.120
06/17/2013  10:25:00       74.581       47.469       24.529       67.303       37.204       40.083     4529.675     1384.164     1606.643        0.797        0.376       88.406       41.392        0.219      344.938       22.115      863.114
06/17/2013  10:26:00      113.368       63.781        4.794       52.982       33.513       31.233     2807.040     1123.100      975.529        1.092        0.245      130.078       15.971        0.015      344.626       21.580      863.100
06/17/2013  10:27:00       40.063       57.974       56.027       56.929       64.265       41.714     3240.948     4130.047     1740.026        0.861        0.456       70.470       29.239        0.172      345.043       22.293      863.079
06/17/2013  10:28:00      109.079       49.164       43.620       89.605       61.561       46.339     8029.067     3789.778     2147.294        1.509        0.698      119.647       34.162        0.082      344.540       21.429      863.065
06/17/2013  10:29:00      103.523       67.158       26.221       56.162       35.093       41.442     3154.169     1231.503     1717.457        1.101        0.305      123.398       19.216        0.024      344.438       21.257      863.057
06/17/2013  10:30:00      118.249      120.562       64.282       41.824       36.612       39.505     1749.238     1340.411     1560.650        1.865        0.233      168.873       27.313        0.026      344.389       21.173      863.045
06/17/2013  10:31:00       97.520       73.065       25.234       33.013       34.429       36.673     1089.836     1185.324     1344.898        0.955        0.181      121.855       19.249        0.025      344.283       20.991      863.055
06/17/2013  10:32:00       54.253       -7.566        6.035       49.248       60.016       53.599     2425.357     3601.978     2872.883        0.597        0.445       54.778       41.708        0.580      344.501       21.366      863.059
06/17/2013  10:33:00      -52.614      -29.778       -9.318       23.796       22.364       21.034      566.231      500.155      442.437        0.263        0.075       60.457        4.791        0.006      344.621       21.570      863.055
06/17/2013  10:34:00     -116.233       77.050      -17.351       31.302       31.589       20.809      979.806      997.851      433.031        1.108        0.121      139.452       17.002        0.015      344.579       21.499      863.027
06/17/2013  10:35:00     -124.366       75.981      -20.025       34.195       33.347       25.058     1169.284     1112.033      627.915        1.227        0.145      145.740       18.967        0.017      344.588       21.512      863.018
06/17/2013  10:36:00      -73.736       23.644       10.148       35.142       25.076       25.502     1234.934      628.809      650.345        0.431        0.126       77.434       10.679        0.019      344.839       21.944      863.012
06/17/2013  10:37:00       16.676       28.922       29.656       35.618       20.381       22.472     1268.671      415.367      505.005        0.209        0.109       33.385       12.270        0.135      345.557       23.172      862.996
06/17/2013  10:38:00       18.481       12.146       11.618       30.191       33.690       19.471      911.526     1135.041      379.109        0.152        0.121       22.115       13.181        0.355      345.738       23.482      863.001
06/17/2013  10:39:00       -9.633       25.467       12.289       22.540       42.437       27.540      508.052     1800.881      758.454        0.198        0.153       27.228       19.529        0.514      346.044       24.010      862.994
06/17/2013  10:40:00       -1.120       18.105        3.483       52.267       40.727       36.585     2731.829     1658.668     1338.476        0.303        0.286       18.139       25.869        2.034      345.710       23.436      862.985
06/17/2013  10:41:00       31.361        3.482       41.793       40.338       49.476       48.614     1627.135     2447.884     2363.277        0.459        0.322       31.554       40.370        1.637      345.750       23.505      862.980
06/17/2013  10:42:00       24.390      -81.782        7.038       35.590       49.254       41.925     1266.638     2425.947     1757.737        0.639        0.273       85.342       36.277        0.181      345.380       22.871      862.982
06/17/2013  10:43:00       20.489      -93.336      -21.932       59.158       31.781       32.450     3499.699     1010.044     1053.017        0.759        0.278       95.558       22.775        0.057      345.301       22.734      862.965
06/17/2013  10:44:00       62.731     -119.937      -12.087       49.340       38.857       28.125     2434.390     1509.845      791.039        1.160        0.237      135.351       25.880        0.037      344.922       22.085      862.970
06/17/2013  10:45:00       30.098      -88.422       21.222       61.909       68.875       65.307     3832.746     4743.820     4264.956        1.101        0.642       93.404       50.526        0.293      345.620       23.283      862.946
06/17/2013  10:46:00        2.687       35.985      103.306       40.017      107.313       63.649     1601.399    11515.985     4051.207        1.457        0.858       36.085       75.748        4.406      345.654       23.339      862.935
06/17/2013  10:47:00       46.654      -39.110       22.416       43.351       85.580       48.428     1879.336     7323.961     2345.287        0.788        0.577       60.878       51.160        0.706      345.351       22.820      862.931
06/17/2013  10:48:00       38.604      -62.465        8.342       52.255       56.246       42.657     2730.558     3163.658     1819.631        0.659        0.386       73.431       39.999        0.297      345.575       23.204      862.904
06/17/2013  10:49:00       50.945      -17.783       44.351       51.516       39.563       33.916     2653.932     1565.230     1150.275        0.512        0.268       53.960       24.314        0.203      345.749       23.502      862.896
06/17/2013  10:50:00      -24.376       30.356       19.738       34.716       35.060       35.734     1205.233     1229.237     1276.897        0.281        0.186       38.932       28.628        0.541      345.190       22.543      862.885
06/17/2013  10:51:00       -1.515       11.244       16.437       15.521       13.785       16.501      240.913      190.026      272.279        0.055        0.035       11.346       10.902        0.923      346.084       24.079      862.885
06/17/2013  10:52:00       -7.619       20.097       25.956       44.516       49.129       31.299     1981.666     2413.620      979.598        0.325        0.269       21.493       11.380        0.280      346.008       23.948      862.868
06/17/2013  10:53:00       15.755       -5.795       40.900       36.973       85.046       54.002     1367.008     7232.806     2916.263        0.673        0.576       16.787       56.964       11.515      345.690       23.400      862.864
06/17/2013  10:54:00       33.922     -123.263       16.000       52.719      108.362       39.450     2779.252    11742.338     1556.281        1.634        0.804      127.846       48.832        0.146      345.180       22.526      862.857
06/17/2013  10:55:00       44.636      -50.355       18.737       45.961       61.796       31.386     2112.434     3818.733      985.098        0.590        0.346       67.290       29.676        0.194      345.490       23.060      862.866
06/17/2013  10:56:00       52.587      -70.308        0.808       67.162       68.777       49.208     4510.794     4730.245     2421.473        0.968        0.583       87.798       51.411        0.343      345.924       23.804      862.846
06/17/2013  10:57:00       -2.263       21.488       55.701       51.467       74.642       62.175     2648.896     5571.377     3865.681        0.783        0.604       21.607       55.544        6.608      346.135       24.165      862.837
06/17/2013  10:58:00       85.896       64.699       53.247       78.331       47.952       45.230     6135.683     2299.347     2045.756        1.244        0.524      107.536       30.349        0.080      345.373       22.856      862.832
06/17/2013  10:59:00      126.549      128.228       63.079       51.101       40.861       41.834     2611.294     1669.588     1750.095        2.123        0.302      180.159       12.010        0.004      345.177       22.520      862.833
06/17/2013  11:00:00       58.838       36.158       37.196       47.578       46.401       43.095     2263.639     2153.072     1857.196        0.621        0.314       69.060       17.827        0.067      345.563       23.183      862.822
06/17/2013  11:01:00       46.889       47.270       49.714       39.901       37.302       46.056     1592.079     1391.423     2121.190        0.600        0.255       66.581       28.938        0.189      345.383       22.874      862.815
06/17/2013  11:02:00      110.845       83.436       64.729       39.983       29.669       46.241     1598.679      880.273     2138.229        1.403        0.231      138.737       20.126        0.021      345.194       22.550      862.804
06/17/2013  11:03:00       58.868      -61.777       16.700       48.399       82.797       41.939     2342.457     6855.351     1758.880        0.926        0.548       85.334       49.941        0.343      345.634       23.304      862.798
06/17/2013  11:04:00       59.050      -69.976        3.773       67.206       64.597       47.378     4516.637     4172.729     2244.708        0.966        0.547       91.562       49.162        0.288      345.713       23.440      862.806
06/17/2013  11:05:00      -20.199      -48.151        1.614       39.278       52.226       24.688     1542.738     2727.515      609.516        0.380        0.244       52.217        8.608        0.027      345.548       23.158      862.784
06/17/2013  11:06:00      -42.120       -7.121        0.643       28.854       31.157       21.975      832.543      970.782      482.896        0.206        0.114       42.718       14.547        0.116      346.010       23.951      862.791
06/17/2013  11:07:00       -4.499       16.989       68.407       28.010       32.494       22.889      784.547     1055.887      523.886        0.368        0.118       17.574       12.528        0.508      346.810       25.327      862.797
06/17/2013  11:08:00      -31.625        7.525       32.383       44.207       34.075       36.455     1954.296     1161.117     1328.973        0.327        0.222       32.508       27.120        0.696      346.458       24.722      862.802
06/17/2013  11:09:00      -54.414      -17.556       16.073       32.481       34.475       23.793     1055.001     1188.521      566.124        0.317        0.140       57.176       11.967        0.044      345.671       23.368      862.798
06/17/2013  11:10:00      -35.649       28.563       41.622       28.764       45.510       33.750      827.348     2071.142     1139.082        0.393        0.202       45.681       27.152        0.353      345.860       23.693      862.798
06/17/2013  11:11:00       -2.169       65.890      109.873       49.541       51.745       45.452     2454.325     2677.571     2065.844        1.181        0.360       65.926       36.722        0.310      346.004       23.939      862.787
06/17/2013  11:12:00       35.266       99.773      113.039       56.014       66.785       53.611     3137.609     4460.273     2874.098        1.722        0.524      105.823       40.199        0.144      345.799       23.587      862.789
06/17/2013  11:13:00       53.594      114.748       88.188       49.842       57.875       66.801     2484.190     3349.539     4462.333        1.705        0.515      126.647       55.278        0.191      345.528       23.122      862.798
06/17/2013  11:14:00       18.322        6.886       14.503       24.891       38.116       20.052      619.565     1452.825      402.063        0.153        0.124       19.573       13.614        0.484      345.880       23.727      862.789
06/17/2013  11:15:00       46.159      -86.248       -0.684       52.024       85.921       52.115     2706.545     7382.434     2715.950        1.118        0.640       97.823       46.646        0.227      346.047       24.011      862.767
06/17/2013  11:16:00       59.337      -59.812       11.439       58.807       75.390       57.336     3458.289     5683.656     3287.380        0.983        0.621       84.251       58.823        0.487      345.896       23.755      862.751
06/17/2013  11:17:00       41.034      -21.548       19.917       65.056       65.212       57.822     4232.306     4252.566     3343.427        0.718        0.591       46.348       49.553        1.143      346.362       24.554      862.734
06/17/2013  11:18:00       91.644      -64.053       -6.705       52.807       54.587       49.347     2788.571     2979.767     2435.082        1.037        0.410      111.810       37.799        0.114      345.903       23.767      862.736
06/17/2013  11:19:00       43.476      -49.187       11.552       35.971       65.376       40.684     1293.944     4274.046     1655.223        0.583        0.361       65.647       46.166        0.495      345.972       23.886      862.727
06/17/2013  11:20:00        8.249        0.189       37.244       24.538       33.294       23.994      602.109     1108.497      575.704        0.187        0.114        8.251       25.345        9.435      346.521       24.827      862.707
06/17/2013  11:21:00       -9.586        4.874       46.136       24.365       35.424       24.785      593.639     1254.834      614.307        0.235        0.123       10.754       17.074        2.521      346.973       25.606      862.702
06/17/2013  11:22:00      -30.900       18.202       18.171       35.539       46.861       23.331     1263.019     2195.928      544.339        0.281        0.200       35.863       22.264        0.385      346.587       24.943      862.682
06/17/2013  11:23:00      -73.826      109.660       -7.194       51.980       58.069       38.442     2701.914     3371.955     1477.764        1.254        0.378      132.195       33.203        0.063      346.054       24.026      862.677
06/17/2013  11:24:00      -81.207       22.877        4.093       48.667       48.803       41.031     2368.468     2381.778     1683.534        0.678        0.322       84.368       33.781        0.160      345.921       23.797      862.642
06/17/2013  11:25:00      -34.619       34.693      -12.112       46.996       52.756       40.889     2208.656     2783.225     1671.871        0.460        0.333       49.011       24.754        0.255      346.227       24.323      862.637
06/17/2013  11:26:00       13.015       18.305       24.768       46.839       47.972       30.003     2193.894     2301.318      900.190        0.326        0.270       22.460       26.529        1.395      346.642       25.036      862.618
06/17/2013  11:27:00       27.797       41.943       53.970       48.172       62.739       51.797     2320.564     3936.156     2682.953        0.719        0.447       50.318       47.314        0.884      346.676       25.095      862.610
06/17/2013  11:28:00       89.340       85.103       35.307       60.899       48.474       48.744     3708.666     2349.716     2375.983        1.245        0.422      123.386       26.196        0.045      346.485       24.766      862.616
06/17/2013  11:29:00       89.219       44.580       19.152       64.036       57.329       47.656     4100.556     3286.643     2271.113        0.998        0.483       99.737       14.380        0.021      346.461       24.725      862.608
06/17/2013  11:30:00       78.661       34.829        7.572       65.950       63.179       50.694     4349.398     3991.543     2569.903        0.918        0.546       86.026       28.925        0.113      346.521       24.828      862.603
06/17/2013  11:31:00       51.230       65.639       71.319       81.294       69.710       52.304     6608.769     4859.551     2735.741        1.311        0.710       83.265       46.463        0.311      346.894       25.471      862.578
06/17/2013  11:32:00      232.688      151.613       19.635       76.240       69.742       62.875     5812.584     4863.935     3953.206        4.607        0.731      277.723       47.092        0.029      345.867       23.700      862.585
06/17/2013  11:33:00       92.085       63.538       56.889      107.758       71.586       54.373    11611.757     5124.618     2956.386        1.772        0.985      111.878       41.485        0.137      346.455       24.713      862.567
06/17/2013  11:34:00       32.971      137.249      120.326       88.728      117.904       84.185     7872.636    13901.373     7087.068        3.163        1.443      141.153       84.301        0.357      346.701       25.137      862.557
06/17/2013  11:35:00      126.856       99.002       43.303       78.465       69.998       82.331     6156.721     4899.659     6778.462        2.280        0.892      160.915       57.715        0.129      345.874       23.713      862.586
06/17/2013  11:36:00       14.758      235.812      -35.843       32.313       92.381       27.382     1044.120     8534.295      749.774        3.372        0.516      236.273       29.768        0.016      345.559       23.172      862.556
06/17/2013  11:37:00        9.778      195.276      -17.088       67.254       99.137       52.585     4523.143     9828.053     2765.177        2.781        0.856      195.521       63.216        0.105      346.113       24.126      862.554
06/17/2013  11:38:00       77.983      102.858       -8.934       45.396       49.474       34.225     2060.838     2447.637     1171.362        1.121        0.284      129.078       27.925        0.047      345.814       23.614      862.528
06/17/2013  11:39:00       25.008      164.215       -8.359       51.255       68.954       49.916     2627.125     4754.662     2491.593        1.877        0.494      166.108       46.391        0.078      346.271       24.398      862.489
06/17/2013  11:40:00      -10.437       71.164        7.556       33.853       53.286       36.508     1146.002     2839.366     1332.817        0.527        0.266       71.925       36.440        0.257      346.372       24.573      862.468
06/17/2013  11:41:00      -69.479      129.796       -0.504       45.380       66.761       40.223     2059.355     4456.971     1617.850        1.490        0.407      147.222       45.719        0.096      346.279       24.412      862.463
06/17/2013  11:42:00      -46.589      146.987       -0.644       42.560       82.528       40.017     1811.320     6810.859     1601.336        1.700        0.511      154.194       38.202        0.061      346.309       24.462      862.464
06/17/2013  11:43:00      -39.725       97.856       16.861       51.483       67.803       45.163     2650.455     4597.278     2039.662        1.036        0.464      105.611       37.827        0.128      346.791       25.294      862.449
06/17/2013  11:44:00      -11.485       81.861       15.301       39.621       64.362       33.407     1569.851     4142.428     1116.037        0.695        0.341       82.662       35.554        0.185      346.842       25.382      862.449
06/17/2013  11:45:00       26.398      124.837       -4.982       46.971       81.047       33.769     2206.289     6568.586     1140.362        1.311        0.496      127.598       44.051        0.119      346.360       24.551      862.446
06/17/2013  11:46:00        7.943      106.495       15.774       48.162       70.209       38.416     2319.602     4929.315     1475.762        1.019        0.436      106.791       39.740        0.138      346.847       25.390      862.445
06/17/2013  11:47:00       78.074       60.486       52.465       46.519       52.467       34.617     2164.032     2752.781     1198.324        0.931        0.306       98.763       29.297        0.088      346.275       24.405      862.437
06/17/2013  11:48:00        8.914      -21.513       31.950       50.739      103.417       42.790     2574.420    10695.121     1831.014        0.833        0.755       23.286       54.563        5.490      346.652       25.054      862.425
06/17/2013  11:49:00      -32.221      -46.794       19.217       63.391       70.572       49.796     4018.433     4980.426     2479.633        0.754        0.574       56.814        5.729        0.010      346.845       25.386      862.421
06/17/2013  11:50:00      -44.467      -23.646        9.437       62.525       41.322       47.981     3909.416     1707.545     2302.174        0.527        0.396       50.363       32.413        0.414      346.900       25.480      862.412
06/17/2013  11:51:00      -46.147      -37.925       19.628       45.822       52.206       38.982     2099.695     2725.497     1519.558        0.515        0.317       59.731       29.349        0.241      347.018       25.683      862.400
06/17/2013  11:52:00       38.446      -59.652       -3.617      112.585       71.345       43.506    12675.288     5090.141     1892.738        1.235        0.983       70.968       40.916        0.332      346.539       24.858      862.408
06/17/2013  11:53:00       -1.278       23.018       21.396       23.340       30.615       26.246      544.775      937.259      688.863        0.158        0.109       23.053       12.130        0.277      346.614       24.988      862.386
06/17/2013  11:54:00       -6.631      -36.699       28.267       61.853       53.590       36.390     3825.845     2871.896     1324.200        0.510        0.401       37.293       27.875        0.559      346.874       25.436      862.376
06/17/2013  11:55:00      145.063     -185.876      -26.651      120.254      124.858       69.634    14460.960    15589.609     4848.899        4.559        1.745      235.782       74.467        0.100      346.608       24.976      862.370
06/17/2013  11:56:00       63.460     -118.357      -13.020      137.855      127.605       84.390    19004.010    16283.132     7121.689        3.030        2.120      134.296       91.192        0.461      346.639       25.029      862.367
06/17/2013  11:57:00      -74.854     -123.138        5.658       72.458      117.081       45.726     5250.141    13707.971     2090.903        2.092        1.052      144.104       55.567        0.149      346.827       25.354      862.402
06/17/2013  11:58:00     -100.415      -41.134        3.189       55.068       84.805       48.832     3032.448     7191.830     2384.567        1.219        0.630      108.513       53.125        0.240      346.195       24.266      862.420
06/17/2013  11:59:00      -80.446      -58.405       -3.274       72.938       58.872       34.059     5319.971     3465.859     1160.042        0.992        0.497       99.412       36.458        0.134      346.353       24.540      862.403
06/17/2013  12:00:00        0.468      -30.203        2.607       62.802       46.163       25.942     3944.045     2131.020      672.986        0.383        0.337       30.207       20.353        0.454      346.114       24.129      862.411
06/17/2013  12:01:00       52.495       55.363       15.272       47.105       39.432       47.099     2218.908     1554.906     2218.320        0.602        0.300       76.294       27.318        0.128      346.355       24.544      862.383
06/17/2013  12:02:00       83.311       10.920       19.763      101.687       58.341       48.372    10340.173     3403.670     2339.813        1.176        0.804       84.023       53.309        0.403      346.859       25.411      862.363
06/17/2013  12:03:00       94.475       53.524       22.530       98.116      106.426       52.071     9626.835    11326.580     2711.435        1.798        1.183      108.583       41.470        0.146      346.559       24.892      862.347
06/17/2013  12:04:00       53.331        9.333       51.249       46.780       43.893       43.910     2188.406     1926.565     1928.098        0.580        0.302       54.142       32.072        0.351      346.795       25.300      862.350
06/17/2013  12:05:00       -6.883       -6.749       22.206       24.579       23.227       18.853      604.127      539.499      355.441        0.104        0.075        9.640       15.535        2.597      347.140       25.894      862.338
06/17/2013  12:06:00      -18.684        3.442       28.385       24.795       15.158       16.099      614.809      229.767      259.174        0.113        0.055       18.998       14.885        0.614      347.610       26.705      862.334
06/17/2013  12:07:00      -95.399      -65.416        0.096       65.917       46.250       29.118     4344.995     2139.050      847.872        1.035        0.367      115.673       28.029        0.059      346.549       24.876      862.314
06/17/2013  12:08:00     -127.191       -3.581      -15.688       53.900       47.083       30.482     2905.227     2216.764      929.170        1.124        0.303      127.241       24.835        0.038      346.122       24.144      862.302
06/17/2013  12:09:00      -64.498      -17.140        8.951       41.428       59.361       30.178     1716.295     3523.706      910.733        0.534        0.308       66.737       31.036        0.216      346.675       25.094      862.283
06/17/2013  12:10:00      -95.400     -141.161      -17.607       51.001       67.987       40.114     2601.116     4622.229     1609.136        1.908        0.442      170.375       34.260        0.040      346.568       24.907      862.260
06/17/2013  12:11:00       37.525      -76.791        3.407       92.951       72.668       42.183     8639.873     5280.594     1779.417        1.151        0.785       85.469       40.498        0.225      346.468       24.737      862.258
06/17/2013  12:12:00      -12.008      -26.035       17.944       35.757       52.720       28.921     1278.554     2779.410      836.444        0.302        0.245       28.671       22.023        0.590      346.828       25.358      862.233
06/17/2013  12:13:00      -27.293        6.781       21.468       38.931       33.086       27.026     1515.622     1094.716      730.404        0.230        0.167       28.123       19.545        0.483      347.011       25.670      862.224
06/17/2013  12:14:00        0.275       51.988       10.152       22.993       40.547       29.738      528.672     1644.068      884.356        0.293        0.153       51.989       26.619        0.262      347.362       26.277      862.211
06/17/2013  12:15:00      -34.969       98.041        3.701       40.367       57.360       36.848     1629.527     3290.152     1357.762        0.856        0.314      104.090       34.424        0.109      347.212       26.018      862.192
06/17/2013  12:16:00      -57.915      128.075       11.629       53.200       77.035       42.122     2830.262     5934.381     1774.247        1.521        0.527      140.561       39.196        0.078      347.015       25.679      862.180
06/17/2013  12:17:00      -23.308      107.387       12.932       33.557       49.348       42.717     1126.094     2435.204     1824.732        0.881        0.269      109.887       34.367        0.098      346.940       25.550      862.159
06/17/2013  12:18:00        6.161       20.728       20.123       29.640       29.454       34.224      878.501      867.529     1171.283        0.189        0.146       21.624       19.577        0.820      347.342       26.243      862.141
06/17/2013  12:19:00       72.737       62.800       12.557       40.679       45.091       42.414     1654.749     2033.234     1798.952        0.744        0.274       96.096       29.492        0.094      346.814       25.332      862.122
06/17/2013  12:20:00       53.800       48.212        9.128       32.394       27.134       32.179     1049.388      736.269     1035.467        0.406        0.141       72.241       22.585        0.098      346.866       25.421      862.120
06/17/2013  12:21:00       34.088       58.759       -3.639       42.682       29.472       21.574     1821.742      868.589      465.416        0.389        0.158       67.931       11.469        0.029      346.895       25.471      862.101
06/17/2013  12:22:00       -9.050       -9.746        8.249       17.181       18.814       17.064      295.181      353.956      291.164        0.059        0.047       13.300        7.349        0.305      347.349       26.255      862.098
06/17/2013  12:23:00      -26.999      -22.567        8.631       44.734       70.975       46.127     2001.104     5037.440     2127.660        0.524        0.458       35.188       44.421        1.594      347.500       26.514      862.076
06/17/2013  12:24:00      -62.794     -120.480       -6.510       51.212       81.913       37.719     2622.691     6709.728     1422.686        1.463        0.538      135.862       31.452        0.054      347.122       25.862      862.055
06/17/2013  12:25:00       26.951       60.888       14.191       78.411       79.753       54.840     6148.335     6360.490     3007.389        1.007        0.776       66.587       38.690        0.338      347.132       25.880      862.030
06/17/2013  12:26:00       32.772      -26.834       38.385       51.156       84.180       48.269     2616.888     7086.208     2329.883        0.765        0.602       42.356       54.257        1.641      347.375       26.300      862.000
06/17/2013  12:27:00       15.236      -44.570        8.651       52.186       62.097       45.249     2723.431     3856.030     2047.431        0.546        0.431       47.102       41.801        0.788      347.377       26.301      861.980
06/17/2013  12:28:00      -62.132      -46.670       19.942       66.443       63.639       38.621     4414.644     4049.872     1491.552        0.819        0.498       77.707       38.334        0.243      347.407       26.354      861.976
06/17/2013  12:29:00        6.822      -66.038       30.948       48.953       80.612       51.497     2396.429     6498.321     2651.929        0.845        0.577       66.390       52.866        0.634      347.152       25.916      861.962
06/17/2013  12:30:00      -34.587     -109.652        2.589       35.533       50.632       30.631     1262.587     2563.635      938.245        0.899        0.238      114.977       13.094        0.013      346.790       25.290      861.939
06/17/2013  12:31:00      -70.840        8.497        2.787       36.899       16.668       19.607     1361.543      277.819      384.445        0.356        0.101       71.348       17.065        0.057      346.824       25.350      861.912
06/17/2013  12:32:00        3.598      -38.706       11.898       16.568       49.769       29.171      274.491     2477.000      850.943        0.263        0.180       38.873       31.172        0.643      347.693       26.849      861.896
06/17/2013  12:33:00       46.649       32.844       88.728       68.987      124.759       69.354     4759.180    15564.802     4810.041        1.813        1.257       57.052       87.784        2.368      347.237       26.061      861.857
06/17/2013  12:34:00      107.713       68.956       34.561       71.982       43.411       44.198     5181.462     1884.532     1953.502        1.328        0.451      127.895       23.343        0.033      346.931       25.534      861.826
06/17/2013  12:35:00       91.801       97.384      103.353       85.659       80.060       54.418     7337.481     6409.578     2961.293        2.265        0.835      133.832       37.379        0.078      347.381       26.308      861.766
06/17/2013  12:36:00       44.340       39.669       88.422       60.924       71.240       49.620     3711.750     5075.179     2462.141        1.130        0.562       59.495       38.238        0.413      347.615       26.712      861.743
06/17/2013  12:37:00      104.841     -117.880       25.354      113.174      140.338       86.699    12808.402    19694.766     7516.772        3.277        2.001      157.757      103.684        0.432      347.335       26.229      861.698
06/17/2013  12:38:00       48.937     -148.298       16.396       85.510       91.385       73.130     7311.959     8351.240     5347.961        2.283        1.051      156.163       68.011        0.190      347.277       26.128      861.679
06/17/2013  12:39:00      -31.217      -49.955       29.748       73.363       67.758       58.423     5382.161     4591.178     3413.238        0.887        0.669       58.907       27.777        0.222      347.721       26.896      861.656
06/17/2013  12:40:00       91.796      -53.263       66.611      118.838      194.980      118.196    14122.354    38017.306    13970.348        4.089        3.306      106.129      137.946        1.689      347.555       26.607      861.630
06/17/2013  12:41:00      141.849     -134.027       22.923      117.255      166.664       93.762    13748.722    27777.026     8791.262        4.445        2.516      195.152      111.843        0.328      347.135       25.883      861.637
06/17/2013  12:42:00       70.102      -54.686       26.445       65.968       93.365       59.720     4351.820     8716.958     3566.481        1.262        0.832       88.909       72.291        0.661      347.157       25.924      861.614
06/17/2013  12:43:00      103.648       72.334       91.158      107.945      125.706       69.057    11652.202    15801.882     4768.844        2.825        1.611      126.393       68.828        0.297      347.121       25.859      861.574
06/17/2013  12:44:00       89.085     -152.898       14.276       89.377      126.265       83.562     7988.324    15942.931     6982.625        3.121        1.546      176.957       87.644        0.245      347.345       26.244      861.551
06/17/2013  12:45:00       62.449      -20.032       58.476       71.154      109.321       59.204     5062.902    11951.101     3505.094        1.412        1.026       65.583       66.549        1.030      347.585       26.661      861.545
06/17/2013  12:46:00       81.670      -42.417       36.068      112.152      153.883       80.976    12578.081    23680.067     6557.053        2.628        2.141       92.029       90.491        0.967      347.453       26.431      861.531
06/17/2013  12:47:00      133.295      -80.736       31.455       90.395      152.813       80.272     8171.303    23351.708     6443.555        3.161        1.898      155.839       98.563        0.400      347.315       26.194      861.540
06/17/2013  12:48:00       58.612     -113.886       34.928      111.929      141.029       79.649    12528.183    19889.103     6343.918        2.819        1.938      128.084       93.517        0.533      347.402       26.343      861.547
06/17/2013  12:49:00      -31.005      -81.256      -10.971       73.237      106.110       51.708     5363.641    11259.404     2673.677        1.349        0.965       86.971       46.591        0.287      347.187       25.975      861.538
06/17/2013  12:50:00      -61.071      -49.318        6.628       80.208       67.944       52.311     6433.306     4616.438     2736.435        0.999        0.689       78.497       49.102        0.391      347.482       26.484      861.527
06/17/2013  12:51:00      -18.276       18.512       42.841       46.417       40.429       55.477     2154.510     1634.511     3077.737        0.469        0.343       26.014       33.526        1.661      347.715       26.884      861.506
06/17/2013  12:52:00       45.130      -82.799       11.593       65.142       81.997       40.331     4243.447     6723.553     1626.605        1.081        0.630       94.299       34.205        0.132      347.492       26.500      861.473
06/17/2013  12:53:00     -142.625     -128.507       11.392      124.637      118.246       61.701    15534.305    13982.215     3807.028        3.515        1.666      191.979       57.218        0.089      347.440       26.408      861.466
06/17/2013  12:54:00     -170.235     -189.232        7.692      134.496      149.705       75.079    18089.185    22411.665     5636.800        5.548        2.307      254.536       76.849        0.091      347.182       25.965      861.458
06/17/2013  12:55:00     -131.428     -162.578       -5.999      168.388      121.953       76.113    28354.607    14872.548     5793.166        4.637        2.451      209.058       39.362        0.035      347.291       26.151      861.432
06/17/2013  12:56:00      179.292     -205.598       23.755      181.521      251.441      143.725    32949.914    63222.464    20656.848        9.588        5.841      272.793      162.218        0.354      347.266       26.109      861.457
06/17/2013  12:57:00       59.579      134.149      186.054      113.797      118.812       84.712    12949.777    14116.250     7176.113        4.519        1.712      146.784       84.662        0.333      347.252       26.084      861.441
06/17/2013  12:58:00       87.529      153.217      193.085      116.801      164.839      102.249    13642.499    27171.791    10454.956        5.983        2.563      176.456      103.693        0.345      347.091       25.807      861.434
06/17/2013  12:59:00      139.611       92.773       87.929      126.544       59.729       73.581    16013.456     3567.606     5414.236        3.041        1.250      167.625       78.998        0.222      346.866       25.421      861.415
06/17/2013  13:00:00       75.966      109.294      110.430       72.307       65.424       50.064     5228.293     4280.314     2506.372        2.096        0.601      133.102       42.440        0.102      346.886       25.455      861.427
06/17/2013  13:01:00       33.895       -7.179       -4.903       40.857       50.043       25.375     1669.278     2504.255      643.888        0.302        0.241       34.647       28.844        0.693      347.005       25.660      861.408
06/17/2013  13:02:00      -25.603      -32.918       21.763       53.058       41.654       26.464     2815.139     1735.049      700.351        0.373        0.263       41.703       18.162        0.190      347.812       27.053      861.397
06/17/2013  13:03:00      -40.033      -56.498       -1.461       46.856       63.403       35.168     2195.467     4019.946     1236.781        0.612        0.373       69.244       24.469        0.125      347.626       26.732      861.378
06/17/2013  13:04:00     -132.799     -149.634        4.302       98.180       91.045       41.456     9639.333     8289.141     1718.561        2.984        0.982      200.065       34.632        0.030      347.363       26.275      861.381
06/17/2013  13:05:00       -2.376     -142.416      -16.483       75.189      118.890       37.227     5653.442    14134.810     1385.882        2.086        1.059      142.436       44.575        0.098      346.869       25.425      861.383
06/17/2013  13:06:00     -174.330     -118.630        1.833      105.196       67.950       53.881    11066.111     4617.157     2903.211        3.152        0.929      210.865       46.681        0.049      347.178       25.955      861.361
06/17/2013  13:07:00     -140.523     -118.538       11.736       93.284       63.572       42.950     8701.961     4041.345     1844.715        2.426        0.729      183.842       37.812        0.042      347.144       25.899      861.347
06/17/2013  13:08:00      -51.592     -146.070      -10.430       67.413       52.140       25.013     4544.471     2718.630      625.657        1.600        0.394      154.914        8.477        0.003      346.995       25.641      861.336
06/17/2013  13:09:00      -56.801      -92.330        9.923       61.450       87.055       33.916     3776.120     7578.525     1150.294        1.217        0.625      108.403       40.924        0.143      347.318       26.199      861.305
06/17/2013  13:10:00      -25.039      -29.869       26.359       40.594       80.479       32.420     1647.904     6476.814     1051.073        0.569        0.459       38.975       34.249        0.772      347.718       26.890      861.269
06/17/2013  13:11:00       16.490       -3.729       26.840       30.450       55.373       30.765      927.189     3066.168      946.467        0.297        0.247       16.907       20.133        1.418      347.772       26.983      861.235
06/17/2013  13:12:00      -14.318      -57.349       -4.920       51.754       67.112       34.524     2678.444     4504.022     1191.882        0.594        0.419       59.110       17.971        0.092      347.693       26.849      861.206
06/17/2013  13:13:00      107.123     -165.948      -24.668      112.473       91.466       58.911    12650.065     8366.106     3470.455        3.205        1.224      197.520       65.402        0.110      347.690       26.838      861.169
06/17/2013  13:14:00       66.922     -194.051        5.713      103.175      132.716       57.114    10645.174    17613.590     3261.969        3.684        1.576      205.266       41.084        0.040      347.681       26.825      861.173
06/17/2013  13:15:00       73.014     -141.631        2.558       87.621       86.599       59.486     7677.493     7499.439     3538.579        2.205        0.936      159.344       56.890        0.127      347.438       26.407      861.151
06/17/2013  13:16:00       93.384      -14.480       78.048      128.566      139.367       90.543    16529.226    19423.280     8198.084        2.958        2.208       94.500       99.018        1.098      348.082       27.517      861.149
06/17/2013  13:17:00      255.229     -268.319      -37.170      145.389      198.614      102.641    21137.987    39447.404    10535.271       10.481        3.556      370.320      120.506        0.106      347.447       26.420      861.130
06/17/2013  13:18:00      221.140     -237.507      -21.636      144.795      170.141       97.117    20965.643    28947.978     9431.690        8.255        2.967      324.519      105.406        0.105      347.244       26.071      861.143
06/17/2013  13:19:00      216.055     -282.190      -58.795      100.235       83.451       51.569    10047.073     6964.023     2659.373        7.472        0.984      355.403       54.254        0.023      346.956       25.574      861.164
06/17/2013  13:20:00      -53.239      -26.538       -5.534      114.193       77.353       29.686    13040.075     5983.518      881.269        1.173        0.995       59.486       35.732        0.361      347.189       25.978      861.152
06/17/2013  13:21:00       -6.411        4.705       38.590       57.926       59.134       29.267     3355.371     3496.833      856.562        0.463        0.385        7.952       24.398        9.414      347.750       26.946      861.126
06/17/2013  13:22:00      162.161      109.385       18.124       70.557       54.423       45.799     4978.283     2961.876     2097.564        2.431        0.502      195.605       18.788        0.009      346.932       25.531      861.127
06/17/2013  13:23:00      -18.101       33.874        2.242       45.381       69.488       25.387     2059.456     4828.554      644.494        0.450        0.377       38.406       30.063        0.613      347.566       26.628      861.109
06/17/2013  13:24:00       35.648       92.506       11.923      102.196       62.650       51.986    10444.046     3925.018     2702.582        1.352        0.854       99.137       13.743        0.019      347.689       26.841      861.110
06/17/2013  13:25:00       50.519      -62.767       20.871       52.655       68.504       37.730     2772.538     4692.835     1423.527        0.791        0.444       80.572       18.839        0.055      347.844       27.108      861.130
06/17/2013  13:26:00      128.979      -96.236       33.732      100.987      138.298      104.829    10198.370    19126.254    10989.165        3.367        2.016      160.925       89.478        0.309      347.966       27.316      861.122
06/17/2013  13:27:00      134.155     -216.012      -35.081      105.208      116.498       77.421    11068.619    13571.682     5994.007        4.826        1.532      254.281       54.974        0.047      347.685       26.830      861.146
06/17/2013  13:28:00       70.878      -67.838       26.959      118.631      107.648       76.821    14073.211    11588.142     5901.438        2.095        1.578       98.111       89.313        0.829      347.782       27.000      861.146
06/17/2013  13:29:00       49.714     -184.667        0.827       96.222      114.249       69.290     9258.703    13052.819     4801.161        3.184        1.356      191.241       56.190        0.086      347.460       26.443      861.141
06/17/2013  13:30:00      -20.271      -84.084        8.306      108.791       89.491       58.045    11835.413     8008.615     3369.272        1.538        1.161       86.493       42.009        0.236      347.824       27.072      861.129
06/17/2013  13:31:00        0.003      -95.393        3.740       64.569       97.677       39.832     4169.101     9540.757     1586.577        1.220        0.765       95.393       38.500        0.163      347.911       27.223      861.122
06/17/2013  13:32:00      -10.538      -33.648       61.160       93.213      108.930       77.328     8688.583    11865.716     5979.632        1.575        1.327       35.260       57.420        2.652      347.895       27.196      861.110
06/17/2013  13:33:00      -21.060        3.988       14.102       67.431       51.995       49.992     4546.975     2703.510     2499.167        0.520        0.487       21.434       44.369        4.285      347.858       27.132      861.138
06/17/2013  13:34:00      -81.139      -38.031       13.669       81.343       58.102       31.315     6616.611     3375.896      980.618        0.959        0.549       89.610       22.053        0.061      348.042       27.450      861.134
06/17/2013  13:35:00     -139.132     -173.620       -4.176       85.391       56.807       49.509     7291.610     3227.075     2451.093        3.124        0.648      222.490       36.617        0.027      347.427       26.386      861.178
06/17/2013  13:36:00      -33.609     -175.457       -2.916      127.103      100.119       52.303    16155.285    10023.848     2735.601        3.041        1.446      178.647       43.328        0.059      347.328       26.215      861.118
06/17/2013  13:37:00     -328.783      -28.834       -4.239      207.430      188.848       88.838    43027.251    35663.450     7892.272        9.775        4.329      330.045       93.517        0.080      347.546       26.591      861.050
06/17/2013  13:38:00     -313.477     -112.291       -1.242      178.968      180.206       79.080    32029.379    32474.089     6253.670        9.080        3.538      332.983       90.138        0.073      347.772       26.981      861.022
06/17/2013  13:39:00     -325.401     -150.380      -20.414      201.348      160.052       89.805    40540.916    25616.557     8064.962       10.155        3.711      358.469      101.968        0.081      347.536       26.573      860.984
06/17/2013  13:40:00     -424.522       48.543      -32.663      186.376      146.626       78.611    34735.956    21499.078     6179.713       12.302        3.121      427.288       86.968        0.041      347.783       26.998      860.951
06/17/2013  13:41:00     -394.697      -35.740       -8.785      179.277      153.849       86.759    32140.363    23669.559     7527.123       11.023        3.167      396.312       97.373        0.060      347.875       27.158      860.890
06/17/2013  13:42:00     -225.643     -259.298       13.192      235.302      193.702       93.429    55367.038    37520.651     8728.924       10.995        5.081      343.730      101.366        0.087      347.873       27.155      860.921
06/17/2013  13:43:00     -492.957      -55.288      -22.704      204.840      146.223       82.318    41959.236    21381.306     6776.260       15.833        3.506      496.047       93.841        0.036      347.619       26.714      860.914
06/17/2013  13:44:00     -316.043      -96.804       -8.172      170.904      139.494       74.455    29208.333    19458.575     5543.615        8.175        2.711      330.536       82.503        0.062      347.891       27.186      860.912
06/17/2013  13:45:00     -405.765     -194.544       -6.744      224.101      164.281      101.428    50221.203    26988.411    10287.561       14.500        4.375      449.991      109.761        0.059      347.702       26.860      860.895
06/17/2013  13:46:00     -280.499      -26.334        7.135      275.817      176.407      109.334    76075.011    31119.501    11953.945        9.926        5.957      281.733      142.048        0.254      347.841       27.101      860.867
06/17/2013  13:47:00     -415.829     -134.164      -13.903      198.624      199.345       95.101    39451.369    39738.505     9044.142       13.965        4.412      436.936      109.497        0.063      347.694       26.845      860.882
06/17/2013  13:48:00     -606.644     -115.218      -42.504      211.782      161.033       85.005    44851.464    25931.498     7225.843       23.054        3.900      617.489       91.564        0.022      347.577       26.644      860.883
06/17/2013  13:49:00     -276.936     -210.897       -1.066      190.960      139.922       96.514    36465.874    19578.297     9314.995        9.325        3.268      348.097       92.696        0.071      347.834       27.088      860.892
06/17/2013  13:50:00     -426.159     -108.637      -21.494      234.735      208.858      102.909    55100.689    43621.463    10590.198       15.157        5.466      439.788      110.926        0.064      347.844       27.106      860.928
06/17/2013  13:51:00     -439.594     -141.614      -35.365      217.632      174.834       83.804    47363.616    30566.935     7023.076       14.973        4.248      461.841      100.603        0.047      347.470       26.460      860.932
06/17/2013  13:52:00     -334.664     -226.737        2.827      197.989      173.796       96.677    39199.474    30205.145     9346.398       12.107        3.938      404.239      103.123        0.065      347.610       26.702      860.904
06/17/2013  13:53:00     -463.979     -163.047      -15.838      286.578      215.487      112.550    82127.163    46434.480    12667.569       19.164        7.061      491.793      130.787        0.071      347.595       26.674      860.869
06/17/2013  13:54:00     -297.260     -153.540       23.491      252.436      222.285      103.465    63723.807    49410.440    10705.053       11.814        6.192      334.571      119.304        0.127      347.762       26.963      860.837
06/17/2013  13:55:00     -520.447     -363.587       -3.784      329.831      242.767      132.905   108788.414    58935.956    17663.788       29.419        9.269      634.871      171.667        0.073      347.347       26.246      860.811
06/17/2013  13:56:00     -429.472     -242.524      -32.854      271.714      258.045      104.179    73828.663    66587.154    10853.186       19.778        7.563      493.218      123.975        0.063      347.543       26.584      860.835
06/17/2013  13:57:00     -432.276     -230.012      -37.805      282.731      177.324       94.849    79936.772    31443.657     8996.419       18.076        6.019      489.662      125.101        0.065      347.529       26.562      860.833
06/17/2013  13:58:00     -300.130     -127.619        4.270      303.640      223.957      118.817    92197.142    50156.900    14117.386       13.140        7.824      326.136      144.332        0.196      347.889       27.182      860.793
06/17/2013  13:59:00     -500.710      -64.949       -5.609      240.294      192.703      106.782    57741.089    37134.551    11402.389       18.060        5.314      504.905      119.747        0.056      347.643       26.758      860.775
06/17/2013  14:00:00     -407.205     -153.222       -6.449      174.563      161.021       87.019    30472.411    25927.827     7572.239       12.664        3.199      435.078       82.202        0.036      347.664       26.794      860.825
06/17/2013  14:01:00     -429.699       22.101       -7.122      264.144      133.864       75.193    69772.200    17919.498     5654.030       13.924        4.667      430.267      104.525        0.059      347.885       27.175      860.805
06/17/2013  14:02:00     -500.099      -84.753      -25.235      216.047      179.742      100.406    46676.391    32307.073    10081.396       17.347        4.453      507.230      104.128        0.042      347.765       26.969      860.780
06/17/2013  14:03:00     -340.996      -25.744      -16.018      170.971      142.249       97.985    29231.199    20234.722     9601.056        8.812        2.953      341.966      101.246        0.088      347.947       27.280      860.785
06/17/2013  14:04:00     -485.829     -105.292      -23.824      239.246      165.136       91.383    57238.664    27269.742     8350.847       17.025        4.643      497.108      107.528        0.047      347.641       26.754      860.756
06/17/2013  14:05:00     -398.314     -155.834      -16.267      220.318      210.765      102.872    48540.184    44421.904    10582.729       14.335        5.177      427.713      117.192        0.075      347.806       27.038      860.746
06/17/2013  14:06:00     -525.155     -248.264      -11.993      275.293      230.066      105.664    75786.269    52930.370    11164.776       23.870        6.994      580.881      118.785        0.042      347.505       26.521      860.779
06/17/2013  14:07:00     -483.726     -218.193      -26.377      280.017      163.291       90.398    78409.307    26663.924     8171.746       19.775        5.662      530.659      118.917        0.050      347.386       26.316      860.783
06/17/2013  14:08:00     -613.264      -98.577      -21.349      275.162      203.239      112.442    75714.222    41306.185    12643.313       25.794        6.483      621.136      137.663        0.049      347.452       26.428      860.780
06/17/2013  14:09:00     -566.224     -139.043      -44.440      212.071      201.712       96.934    44974.293    40687.683     9396.226       21.847        4.753      583.046       73.917        0.016      347.528       26.559      860.740
06/17/2013  14:10:00     -482.714     -109.085      -29.852      183.752      183.189       80.055    33764.635    33558.292     6408.765       15.975        3.687      494.886       84.413        0.029      347.467       26.453      860.732
06/17/2013  14:11:00     -377.004     -180.406      -13.501      187.693      154.971       75.479    35228.587    24016.005     5697.025       11.989        3.247      417.945       86.854        0.043      347.752       26.947      860.758
06/17/2013  14:12:00     -532.525     -197.481      -32.034      251.041      222.947      102.199    63021.340    49705.183    10444.611       22.337        6.159      567.963       98.945        0.030      347.622       26.722      860.747
06/17/2013  14:13:00     -501.016     -240.286       -4.543      351.890      194.978      134.654   123826.323    38016.584    18131.566       24.434        8.999      555.657      168.733        0.092      347.406       26.349      860.723
06/17/2013  14:14:00     -518.883     -199.402      -31.987      251.386      207.090      104.781    63194.789    42886.195    10979.120       21.352        5.853      555.878      118.162        0.045      347.454       26.431      860.722
06/17/2013  14:15:00     -291.693      -57.073        7.605      209.844      146.252       95.534    44034.358    21389.737     9126.711        8.146        3.728      297.224       94.245        0.101      347.796       27.023      860.724
06/17/2013  14:16:00     -519.401     -174.109      -18.637      216.926      152.306       79.555    47057.001    23197.071     6329.011       18.850        3.829      547.806       95.794        0.031      347.501       26.513      860.690
06/17/2013  14:17:00     -460.577     -221.361       -5.440      346.701      199.433      107.219   120201.476    39773.453    11495.992       21.628        8.574      511.011      130.749        0.065      347.747       26.936      860.648
06/17/2013  14:18:00     -460.851     -142.245       -9.011      249.256      211.878      117.920    62128.448    44892.283    13905.157       17.679        6.046      482.304      127.170        0.070      347.776       26.986      860.689
06/17/2013  14:19:00     -511.803     -263.755      -15.816      244.609      212.922      111.601    59833.453    45335.783    12454.698       22.467        5.881      575.768      118.097        0.042      347.672       26.807      860.669
06/17/2013  14:20:00     -539.429     -214.173       -3.241      319.662      213.409      117.111   102183.653    45543.284    13715.020       24.912        8.072      580.391      144.835        0.062      347.710       26.873      860.653
06/17/2013  14:21:00     -586.498     -216.347      -25.381      228.545      215.865      105.386    52232.994    46597.813    11106.246       25.066        5.497      625.128      112.738        0.033      347.625       26.726      860.701
06/17/2013  14:22:00     -270.245     -125.172       19.708      230.468      143.704       86.510    53115.581    20650.697     7484.001        8.515        4.063      297.826      110.509        0.138      347.903       27.206      860.709
06/17/2013  14:23:00     -360.902      -93.979       -9.569      252.686      165.284       87.759    63850.224    27318.906     7701.648       11.900        4.944      372.937      112.258        0.091      347.792       27.014      860.703
06/17/2013  14:24:00     -323.773      -26.290       -4.954      267.050      155.612       98.123    71315.853    24215.198     9628.067       10.533        5.258      324.839      128.035        0.155      347.753       26.948      860.726
06/17/2013  14:25:00     -388.842      -99.563        4.484      209.126      156.261       95.893    43733.867    24417.415     9195.562       11.922        3.867      401.386      103.937        0.067      347.797       27.022      860.719
06/17/2013  14:26:00     -622.184     -205.800      -22.556      293.233      227.658      117.250    85985.569    51828.210    13747.575       29.074        7.578      655.337      130.486        0.040      347.568       26.629      860.726
06/17/2013  14:27:00     -466.354     -346.527        6.368      272.129      197.940      123.734    74053.948    39180.379    15310.139       23.305        6.427      581.005      138.890        0.057      347.324       26.208      860.697
06/17/2013  14:28:00     -518.492     -304.634      -22.117      227.777      174.592      109.331    51882.218    30482.367    11953.347       22.820        4.716      601.362      105.474        0.031      347.289       26.148      860.688
06/17/2013  14:29:00     -251.227     -119.506       25.427      290.684      169.926      114.129    84497.048    28874.678    13025.507       10.219        6.320      278.203      129.137        0.215      347.718       26.887      860.675
06/17/2013  14:30:00     -301.221        4.967        3.779      268.737      150.934       89.939    72219.576    22781.218     8089.019        9.691        5.154      301.262      108.669        0.130      347.901       27.203      860.698
06/17/2013  14:31:00     -301.630     -147.182        9.975      228.357      182.878       93.241    52146.954    33444.432     8693.825       10.349        4.714      335.623      113.955        0.115      347.925       27.245      860.710
06/17/2013  14:32:00     -370.401     -112.469      -33.344      189.282      120.973       73.247    35827.535    14634.499     5365.060       10.338        2.791      387.100       72.110        0.035      347.448       26.421      860.786
06/17/2013  14:33:00     -369.213     -122.046      -30.360      199.684      102.591       64.718    39873.521    10524.900     4188.380       10.335        2.729      388.862       81.225        0.044      347.648       26.766      860.692
06/17/2013  14:34:00     -380.914     -200.961       -9.145      248.835      178.615      109.844    61919.000    31903.310    12065.737       14.570        5.294      430.675      110.737        0.066      347.655       26.779      860.717
06/17/2013  14:35:00     -371.402     -122.081      -12.575      157.964      121.797       70.369    24952.575    14834.424     4951.774        9.886        2.237      390.952       36.938        0.009      347.604       26.691      860.744
06/17/2013  14:36:00     -512.056     -174.024      -33.398      183.736      176.292       71.064    33758.839    31078.693     5050.080       18.173        3.494      540.819       76.677        0.020      347.252       26.084      860.725
06/17/2013  14:37:00     -553.179     -238.512      -46.282      236.901      248.177       96.745    56122.130    61591.590     9359.630       24.603        6.354      602.408      101.820        0.029      347.513       26.532      860.702
06/17/2013  14:38:00     -546.878     -284.957      -33.737      298.267      236.883      131.807    88963.494    56113.468    17373.037       27.190        8.122      616.665      152.903        0.061      347.475       26.467      860.672
06/17/2013  14:39:00     -481.793     -171.563      -12.497      311.046      245.482      126.058    96749.834    60261.374    15890.603       21.727        8.645      511.428      143.938        0.079      347.489       26.491      860.671
06/17/2013  14:40:00     -621.150     -227.241      -10.432      271.010      201.633      107.347    73446.343    40655.910    11523.377       28.157        6.281      661.412      118.349        0.032      347.364       26.276      860.664
06/17/2013  14:41:00     -333.305     -185.321        1.652      235.256      202.049      103.859    55345.599    40823.792    10786.732       12.618        5.348      381.361      112.991        0.088      347.535       26.570      860.668
06/17/2013  14:42:00     -446.224     -164.622       -0.580      245.579      218.284      106.095    60308.930    47648.088    11256.186       17.269        5.961      475.622      119.296        0.063      347.675       26.812      860.676
06/17/2013  14:43:00     -408.034     -340.595        1.809      218.102      198.202      104.667    47568.348    39283.858    10955.176       19.013        4.890      531.504      112.249        0.045      347.365       26.279      860.695
06/17/2013  14:44:00     -256.399     -308.081       28.683      231.621      229.470      113.386    53648.197    52656.559    12856.391       14.030        5.958      400.817      127.139        0.101      347.412       26.358      860.639
06/17/2013  14:45:00     -426.976     -198.398       -0.967      229.703      165.910       99.764    52763.647    27526.073     9952.881       15.594        4.512      470.818      110.777        0.055      347.407       26.350      860.677
06/17/2013  14:46:00     -397.481     -169.533      -19.617      182.882      181.059       91.795    33445.811    32782.248     8426.233       13.087        3.733      432.125       90.301        0.044      347.553       26.603      860.627
06/17/2013  14:47:00     -456.123     -135.251       -5.219      177.542      202.834       84.719    31521.107    41141.720     7177.351       15.309        3.992      475.753       91.528        0.037      347.911       27.219      860.683
06/17/2013  14:48:00     -500.845     -156.059      -11.939      183.565      159.603       86.692    33696.035    25473.244     7515.575       17.100        3.334      524.596       91.854        0.031      347.912       27.222      860.683
06/17/2013  14:49:00     -494.496     -274.241      -22.449      221.015      205.279      113.524    48847.789    42139.456    12887.732       21.204        5.194      565.451      116.734        0.043      347.583       26.652      860.712
06/17/2013  14:50:00     -410.118     -308.096       -3.066      269.843      219.611      133.450    72815.365    48229.083    17808.892       20.096        6.943      512.952      157.887        0.095      347.589       26.665      860.672
06/17/2013  14:51:00     -317.111     -107.507       15.117      275.912      187.621      106.077    76127.314    35201.580    11252.380       11.744        6.129      334.839      123.400        0.136      347.895       27.193      860.678
06/17/2013  14:52:00     -424.960     -315.596      -10.364      279.961      198.708      118.699    78378.059    39484.811    14089.553       20.610        6.598      529.331      128.217        0.059      347.651       26.771      860.699
06/17/2013  14:53:00     -464.033     -197.102       -7.868      240.350      187.475      108.294    57768.357    35146.759    11727.605       17.942        5.232      504.158      116.449        0.053      347.509       26.525      860.682
06/17/2013  14:54:00     -351.907     -227.465        2.161      264.878      210.173      114.220    70160.306    44172.538    13046.096       15.146        6.369      419.021      133.086        0.101      347.616       26.710      860.689
06/17/2013  14:55:00     -409.427     -318.246       12.262      292.374      191.812      109.673    85482.800    36792.026    12028.168       20.166        6.715      518.566      129.138        0.062      347.595       26.674      860.709
06/17/2013  14:56:00     -658.043     -438.874      -11.660      365.853      273.911      139.593   133848.209    75027.028    19486.317       42.702       11.418      790.969      188.208        0.057      347.310       26.183      860.670
06/17/2013  14:57:00     -458.526     -230.321        2.894      264.896      177.133      119.491    70169.832    31376.067    14278.066       18.954        5.791      513.121      128.673        0.063      347.405       26.348      860.689
06/17/2013  14:58:00     -492.044     -304.170       -9.597      304.065      192.157      124.727    92455.567    36924.121    15556.920       23.980        7.247      578.469      145.497        0.063      347.397       26.332      860.736
06/17/2013  14:59:00     -474.459     -183.805       -7.171      214.993      158.700       84.777    46222.140    25185.769     7187.211       16.876        3.930      508.818       95.819        0.035      347.356       26.263      860.775
06/17/2013  15:00:00     -225.641     -139.772       14.936      214.385      192.550       91.203    45960.849    37075.411     8317.958        8.100        4.568      265.424      101.819        0.147      347.559       26.614      860.752
06/17/2013  15:01:00     -244.452     -163.581       -3.804      221.584      185.458       77.847    49099.444    34394.575     6060.081        8.802        4.478      294.135       97.584        0.110      347.838       27.096      860.731
06/17/2013  15:02:00     -468.683     -266.769      -21.118      258.443      183.385      105.566    66792.839    33630.102    11144.194       20.140        5.578      539.286      119.094        0.049      347.394       26.328      860.736
06/17/2013  15:03:00     -476.620     -324.774      -14.851      242.342      195.604      110.218    58729.627    38260.754    12147.992       22.098        5.457      576.754      119.042        0.043      347.441       26.409      860.701
06/17/2013  15:04:00     -482.128     -190.180      -22.637      336.393      225.098      114.311   113160.587    50668.955    13067.046       22.298        8.845      518.282      147.030        0.080      347.389       26.319      860.701
06/17/2013  15:05:00     -458.165     -122.857       -9.633      243.693      191.862      102.667    59386.154    36811.182    10540.558       16.590        5.337      474.352      117.389        0.061      347.573       26.636      860.672
06/17/2013  15:06:00     -570.505      -69.613      -27.117      364.604      222.148      121.762   132936.333    49349.744    14825.954       26.404        9.856      574.736      153.932        0.072      347.482       26.480      860.719
06/17/2013  15:07:00     -615.051     -156.344      -40.451      264.576      214.714      102.315    70000.355    46102.251    10468.458       26.544        6.329      634.611      107.664        0.029      347.369       26.284      860.704
06/17/2013  15:08:00     -345.977      -84.266        3.417      221.592      187.171       96.414    49102.900    35032.996     9295.678       11.010        4.672      356.091      107.892        0.092      347.567       26.625      860.730
06/17/2013  15:09:00     -279.628     -244.550       -2.149      195.098      143.397      102.885    38063.106    20562.674    10585.243       10.359        3.461      371.479      100.281        0.073      347.502       26.515      860.709
06/17/2013  15:10:00     -306.203     -185.284       -1.506      230.585      171.363       81.390    53169.544    29365.199     6624.357       10.861        4.458      357.897       70.995        0.039      347.614       26.707      860.692
06/17/2013  15:11:00     -515.034        8.164      -27.940      313.310      199.258       97.204    98163.458    39703.795     9448.638       20.668        7.366      515.099      117.578        0.052      347.570       26.631      860.709
06/17/2013  15:12:00     -755.221     -183.791      -34.513      296.225      171.987      119.248    87749.065    29579.602    14220.117       36.841        6.577      777.263      143.584        0.034      347.279       26.130      860.684
06/17/2013  15:13:00     -361.528     -187.217       -8.511      190.119      158.753       93.711    36145.306    25202.403     8781.709       11.796        3.506      407.127       85.231        0.044      347.375       26.295      860.679
06/17/2013  15:14:00     -598.815     -145.025      -14.905      318.307      196.611      111.201   101319.526    38655.727    12365.575       26.606        7.617      616.126      112.263        0.033      347.505       26.520      860.651
06/17/2013  15:15:00     -659.347        5.799      -48.818      296.634      211.414      105.022    87991.451    44695.956    11029.666       29.041        7.186      659.373      132.586        0.040      347.406       26.347      860.658
06/17/2013  15:16:00     -461.771     -109.897       -7.127      231.441      236.718      116.398    53564.911    56035.283    13548.388       17.423        6.157      474.668      134.378        0.080      347.480       26.477      860.661
06/17/2013  15:17:00     -416.775      -73.138        1.570      193.586      144.408       83.454    37475.724    20853.652     6964.506       12.216        3.265      423.143       93.828        0.049      347.352       26.256      860.670
06/17/2013  15:18:00     -491.793      -95.221      -13.671      189.547      193.170       97.899    35928.170    37314.573     9584.255       16.695        4.141      500.926      102.980        0.042      347.431       26.390      860.682
06/17/2013  15:19:00     -609.265     -164.289      -57.739      163.896      186.437       77.026    26862.043    34758.684     5932.973       23.453        3.378      631.027       54.244        0.007      347.321       26.201      860.621
06/17/2013  15:20:00     -539.753     -125.669      -37.784      167.172      180.030       83.307    27946.328    32410.855     6939.973       18.791        3.365      554.190       78.795        0.020      347.408       26.353      860.606
06/17/2013  15:21:00     -348.549      -99.896        2.188      279.141      170.501      101.504    77919.951    29070.693    10303.124       12.436        5.865      362.582      142.233        0.154      347.619       26.717      860.582
06/17/2013  15:22:00     -564.749     -207.500      -37.772      318.443      250.498      116.936   101405.740    62749.041    13674.009       27.059        8.891      601.663      139.334        0.054      347.374       26.293      860.502
06/17/2013  15:23:00     -435.425      -73.105       -4.025      243.087      180.110       97.946    59091.368    32439.448     9593.338       14.802        5.056      441.519      101.943        0.053      347.766       26.969      860.517
06/17/2013  15:24:00     -567.657     -265.322      -17.807      236.697      204.004      111.331    56025.377    41617.814    12394.676       25.147        5.502      626.602      125.211        0.040      347.547       26.591      860.520
06/17/2013  15:25:00     -413.082     -202.246      -18.427      312.828      218.614      128.993    97861.343    47792.198    16639.135       18.705        8.115      459.935      165.994        0.130      347.605       26.692      860.511
06/17/2013  15:26:00     -470.638     -167.979      -15.529      315.554      252.706      135.209    99574.273    63860.348    18281.570       21.580        9.086      499.717      150.163        0.090      347.315       26.192      860.527
06/17/2013  15:27:00     -548.520     -182.651      -29.141      257.252      178.566      104.857    66178.384    31885.667    10995.034       22.205        5.453      578.131      111.560        0.037      347.321       26.202      860.543
06/17/2013  15:28:00     -324.739      -77.891        5.450      204.477      182.902      104.904    41810.822    33453.262    11004.858        9.889        4.313      333.950      100.722        0.091      347.677       26.817      860.550
06/17/2013  15:29:00     -428.502      -89.754      -21.608      305.120      225.205      117.160    93097.932    50717.240    13726.557       17.481        7.877      437.802      140.656        0.103      347.499       26.509      860.489
06/17/2013  15:30:00     -382.566      -58.607        7.499      269.754      237.167      111.295    72767.440    56248.022    12386.650       14.560        7.070      387.029      135.229        0.122      347.649       26.767      860.489
06/17/2013  15:31:00     -433.487     -193.468      -14.976      229.826      195.157      111.556    52819.882    38086.109    12444.829       16.444        5.168      474.701      101.767        0.046      347.623       26.723      860.516
06/17/2013  15:32:00     -513.920     -117.159      -24.340      261.361      184.918       94.698    68309.416    34194.766     8967.638       19.493        5.574      527.105      115.768        0.048      347.396       26.331      860.532
06/17/2013  15:33:00     -379.569     -128.759       -7.590      306.550      148.485       92.099    93973.015    22047.786     8482.315       14.258        6.225      400.814      126.930        0.100      347.566       26.625      860.513
06/17/2013  15:34:00     -699.336     -116.679      -59.220      363.336      177.187      103.281   132013.028    31395.387    10666.955       34.010        8.704      709.002      146.136        0.042      347.335       26.225      860.488
06/17/2013  15:35:00     -480.246      -73.018       -8.092      244.195      182.141      106.996    59631.188    33175.380    11448.095       17.012        5.213      485.765      118.870        0.060      347.546       26.591      860.463
06/17/2013  15:36:00     -610.067     -201.622      -20.454      279.580      192.842      100.257    78164.784    37188.083    10051.503       26.930        6.270      642.521      111.656        0.030      347.431       26.391      860.452
06/17/2013  15:37:00     -486.046      -81.596      -22.278      230.517      189.397       90.910    53137.975    35871.136     8264.656       17.031        4.864      492.847       92.881        0.036      347.480       26.477      860.388
06/17/2013  15:38:00     -442.255     -293.556       -4.656      227.364      205.882      119.753    51694.493    42387.570    14340.763       19.508        5.421      530.815      131.771        0.062      347.581       26.650      860.376
06/17/2013  15:39:00     -399.018     -278.165      -19.262      250.212      218.785      125.591    62606.153    47866.927    15773.007       18.158        6.312      486.406      126.595        0.068      347.568       26.629      860.364
06/17/2013  15:40:00     -513.343     -386.377        0.288      298.521      244.183      138.361    89114.941    59625.375    19143.850       29.031        8.394      642.501      167.613        0.068      347.252       26.082      860.381
06/17/2013  15:41:00     -632.915     -379.620      -12.286      247.122      188.164      119.451    61069.500    35405.841    14268.490       32.777        5.537      738.033      125.199        0.029      347.222       26.032      860.333
06/17/2013  15:42:00     -479.916     -271.700      -19.142      245.407      197.254      109.483    60224.632    38909.249    11986.471       20.779        5.556      551.489      128.052        0.054      347.445       26.415      860.369
06/17/2013  15:43:00     -308.285     -170.304        4.701      226.861      176.612       94.717    51466.093    31191.838     8971.348       10.783        4.581      352.198      110.153        0.098      347.678       26.819      860.401
06/17/2013  15:44:00     -393.805     -277.753        0.058      296.876      205.526      126.644    88135.254    42240.793    16038.811       18.929        7.321      481.901      133.946        0.077      347.477       26.472      860.432
06/17/2013  15:45:00     -399.886      -71.411        2.380      197.857      212.516      103.020    39147.553    45162.865    10613.102       12.995        4.746      406.213      115.732        0.081      347.463       26.446      860.448
06/17/2013  15:46:00     -535.759     -191.122      -24.449      257.976      232.741      101.056    66551.446    54168.451    10212.363       22.752        6.547      568.828      121.262        0.045      347.511       26.530      860.487
06/17/2013  15:47:00     -426.606     -148.028       -0.666      295.599      194.888      109.822    87378.938    37981.486    12060.966       17.064        6.871      451.559      144.960        0.103      347.409       26.354      860.458
06/17/2013  15:48:00     -529.282     -279.285      -22.023      334.718      243.478      126.464   112035.869    59281.388    15993.218       27.293        9.366      598.448      169.003        0.080      347.208       26.008      860.384
06/17/2013  15:49:00     -357.575     -105.902      -13.012      222.632      206.844      100.145    49565.089    42784.432    10028.973       12.079        5.119      372.928       96.155        0.066      347.406       26.350      860.331
06/17/2013  15:50:00     -347.803     -172.657       -0.302      360.485      169.883      106.605   129949.530    28860.266    11364.579       16.044        8.509      388.300      150.162        0.150      347.529       26.561      860.329
06/17/2013  15:51:00     -238.608     -208.024        8.082      297.355      216.161      131.223    88419.797    46725.751    17219.606       12.629        7.618      316.556      135.384        0.183      347.563       26.620      860.337
06/17/2013  15:52:00     -473.661     -243.773       -2.115      303.790      236.423      139.153    92288.507    55895.714    19363.609       22.563        8.377      532.710      147.651        0.077      347.429       26.386      860.384
06/17/2013  15:53:00     -698.522     -267.223      -44.207      259.893      219.264      112.262    67544.312    48076.493    12602.825       34.473        6.411      747.891      126.097        0.028      347.135       25.881      860.439
06/17/2013  15:54:00     -525.562     -340.136      -20.532      276.275      210.015      128.741    76327.793    44106.359    16574.125       26.464        6.850      626.025      152.649        0.059      347.159       25.923      860.390
06/17/2013  15:55:00     -662.164     -202.336      -26.917      308.005      241.707      124.548    94867.051    58422.468    15512.238       32.443        8.440      692.388      148.615        0.046      347.289       26.148      860.391
06/17/2013  15:56:00     -537.708     -133.976      -34.205      262.761      267.681      120.382    69043.403    71652.910    14491.907       23.169        7.759      554.148      116.251        0.044      347.297       26.161      860.402
06/17/2013  15:57:00     -481.345     -198.182      -33.912      216.378      218.115      106.011    46819.237    47574.131    11238.244       18.885        5.282      520.547      101.338        0.038      347.260       26.097      860.375
06/17/2013  15:58:00     -418.361      -59.771       -9.895      220.525      187.796      104.867    48631.245    35267.183    10997.056       13.678        4.745      422.609      107.776        0.065      347.477       26.471      860.374
06/17/2013  15:59:00     -349.635     -133.811       -1.984      273.111      189.432      106.475    74589.667    35884.322    11336.828       13.096        6.091      374.367      121.074        0.105      347.469       26.456      860.346
06/17/2013  16:00:00     -407.518      -87.608       -4.439      231.420      205.218       99.238    53555.259    42114.479     9848.234       13.962        5.276      416.829      113.490        0.074      347.499       26.509      860.310
06/17/2013  16:01:00     -521.224     -147.306      -13.516      259.310      206.570      113.917    67241.833    42671.167    12977.181       20.820        6.145      541.639      131.378        0.059      347.571       26.633      860.289
06/17/2013  16:02:00     -513.925     -258.434      -13.658      341.227      198.238      116.142   116435.547    39298.363    13488.954       25.012        8.461      575.245      155.141        0.073      347.455       26.433      860.331
06/17/2013  16:03:00     -575.648     -336.385      -30.279      287.590      217.734      117.701    82707.973    47408.138    13853.583       29.468        7.198      666.728      116.343        0.030      347.312       26.187      860.323
06/17/2013  16:04:00     -504.658     -224.048      -20.771      309.356      257.256      143.124    95700.892    66180.654    20484.487       24.380        9.118      552.157      166.109        0.091      347.241       26.065      860.341
06/17/2013  16:05:00     -289.227     -208.783       30.409      265.377      191.476      110.358    70425.030    36662.978    12178.782       12.369        5.963      356.711      119.245        0.112      347.307       26.176      860.340
06/17/2013  16:06:00     -688.249      -48.687      -32.352      328.806      197.428      117.311   108113.267    38977.980    13761.938       31.895        8.043      689.969      147.949        0.046      347.209       26.010      860.279
06/17/2013  16:07:00     -451.471     -109.500       -3.075      213.049      201.856      104.805    45389.860    40745.799    10984.091       15.645        4.856      464.561      108.408        0.054      347.550       26.598      860.332
06/17/2013  16:08:00     -531.769     -221.942      -16.040      332.431      253.780      128.540   110510.258    64404.348    16522.417       26.183        9.572      576.226      165.064        0.082      347.328       26.213      860.332
06/17/2013  16:09:00     -497.261     -206.492       -2.385      268.025      231.882      112.295    71837.206    53769.465    12610.182       21.404        6.911      538.431      123.229        0.052      347.379       26.301      860.344
06/17/2013  16:10:00     -410.055     -226.530      -19.285      232.374      179.050      104.009    53997.691    32059.030    10817.796       15.833        4.844      468.467      106.847        0.052      347.357       26.264      860.335
06/17/2013  16:11:00     -357.258     -116.912       15.450      286.523      203.526      114.266    82095.697    41422.740    13056.701       13.903        6.829      375.901      137.215        0.133      347.366       26.282      860.321
06/17/2013  16:12:00     -575.306     -123.823      -24.694      273.318      234.557      120.494    74702.797    55017.114    14518.767       24.555        7.212      588.480      121.390        0.043      347.359       26.267      860.280
06/17/2013  16:13:00     -483.404     -274.357       -9.309      320.558      276.765      129.505   102757.358    76598.837    16771.567       25.254        9.806      555.834      148.744        0.072      347.228       26.044      860.237
06/17/2013  16:14:00     -344.116     -187.226       13.169      308.839      241.751      114.120    95381.337    58443.310    13023.407       16.021        8.342      391.751      149.034        0.145      347.364       26.277      860.290
06/17/2013  16:15:00     -647.242     -251.799      -23.365      310.854      259.798      129.263    96630.269    67494.859    16708.992       33.182        9.042      694.496      144.436        0.043      347.161       25.926      860.241
06/17/2013  16:16:00     -584.451       -3.402      -17.280      283.492      228.100      122.950    80367.444    52029.801    15116.704       24.467        7.376      584.461      118.342        0.041      347.281       26.132      860.218
06/17/2013  16:17:00     -479.088     -233.744       -4.099      299.558      278.994      151.120    89734.962    77837.684    22837.148       23.726        9.520      533.068      168.079        0.099      347.243       26.068      860.240
06/17/2013  16:18:00     -375.145     -236.525       -4.084      254.801      240.633       99.923    64923.335    57904.107     9984.560       16.473        6.641      443.484      132.692        0.090      347.428       26.386      860.292
06/17/2013  16:19:00     -238.885      -61.704        9.297      214.843      120.185       81.395    46157.391    14444.426     6625.070        6.408        3.361      246.726       84.334        0.117      347.602       26.687      860.359
06/17/2013  16:20:00     -403.388     -190.104      -19.691      255.193      209.165       83.115    65123.445    43749.810     6908.160       15.749        5.789      445.939       92.659        0.043      347.579       26.648      860.335
06/17/2013  16:21:00     -484.529     -102.969       -0.649      314.742      289.630      129.092    99062.675    83885.582    16664.809       22.245        9.981      495.349      148.928        0.090      347.345       26.244      860.255
06/17/2013  16:22:00     -508.347     -101.019      -23.820      283.149      153.049      107.850    80173.591    23424.103    11631.671       19.219        5.761      518.287      133.296        0.066      347.341       26.237      860.296
06/17/2013  16:23:00     -518.004     -268.409      -30.959      284.441      185.488      122.641    80906.598    34405.647    15040.706       23.581        6.518      583.414      117.276        0.040      347.229       26.042      860.283
06/17/2013  16:24:00     -443.080     -117.916      -16.657      251.596      182.320      120.566    63300.572    33240.748    14536.076       16.077        5.554      458.502      123.501        0.073      347.303       26.170      860.300
06/17/2013  16:25:00     -457.370     -113.142       -2.205      235.797      179.241       99.566    55600.164    32127.500     9913.432       15.980        4.882      471.157      109.607        0.054      347.231       26.048      860.287
06/17/2013  16:26:00     -560.190     -206.973      -14.102      271.825      221.906      126.038    73888.778    49242.178    15885.615       24.790        6.951      597.202      133.374        0.050      347.235       26.055      860.216
06/17/2013  16:27:00     -395.024     -152.595        4.311      284.850      212.335      119.423    81139.550    45086.128    14261.783       15.989        7.024      423.473      139.193        0.108      347.263       26.102      860.259
06/17/2013  16:28:00     -470.995     -319.085      -15.958      249.421      249.980      125.410    62210.623    62489.984    15727.744       23.214        7.021      568.904      135.427        0.057      347.067       25.764      860.250
06/17/2013  16:29:00     -448.481     -278.419      -34.785      263.702      244.109      121.287    69538.826    59589.185    14710.544       21.182        7.192      527.875      128.289        0.059      347.235       26.055      860.222
06/17/2013  16:30:00     -737.399      -89.674      -52.899      258.450      205.620      115.512    66796.257    42279.740    13342.956       33.848        6.121      742.831      122.261        0.027      347.062       25.756      860.232
06/17/2013  16:31:00     -549.725      -42.955      -13.801      271.688      210.942      116.807    73814.471    44496.565    13643.959       21.807        6.598      551.400      129.454        0.055      347.207       26.004      860.165
06/17/2013  16:32:00     -624.896     -142.196      -16.171      288.142      199.704      104.047    83025.808    39881.731    10825.859       27.233        6.687      640.871      117.979        0.034      347.268       26.110      860.138
06/17/2013  16:33:00     -609.481     -226.988      -16.859      294.209      240.296      115.750    86558.951    57742.285    13398.170       29.046        7.885      650.377      114.357        0.031      347.119       25.854      860.186
06/17/2013  16:34:00     -651.570     -158.742      -56.431      242.009      214.521      111.929    58568.517    46019.076    12528.207       28.500        5.856      670.628      112.770        0.028      347.035       25.709      860.190
06/17/2013  16:35:00     -460.810     -252.208       -5.428      285.551      272.578      128.832    81539.121    74298.515    16597.608       22.418        8.622      525.314      141.865        0.073      347.076       25.780      860.142
06/17/2013  16:36:00     -211.219     -121.077       10.618      247.519      197.300       99.026    61265.884    38927.145     9806.223        8.467        5.500      243.460      124.014        0.259      347.344       26.242      860.136
06/17/2013  16:37:00     -169.761     -156.591       12.034      159.634      199.650       99.305    25482.903    39860.154     9861.472        6.433        3.760      230.954      105.313        0.208      347.387       26.318      860.128
06/17/2013  16:38:00     -501.377      -31.667      -20.022      295.054      149.121      100.710    87057.085    22237.050    10142.496       18.609        5.972      502.376      124.255        0.061      347.414       26.363      860.077
06/17/2013  16:39:00     -514.086     -308.898       -0.151      247.911      239.443      124.191    61459.765    57333.048    15423.434       24.693        6.711      599.752      123.651        0.043      347.203       25.999      860.054
06/17/2013  16:40:00     -407.475     -209.621      -19.717      234.600      153.810       96.125    55037.121    23657.588     9240.047       14.913        4.397      458.233      104.777        0.052      347.281       26.134      860.040
06/17/2013  16:41:00     -597.287     -165.839      -60.803      278.815      255.855       97.132    77737.718    65461.735     9434.693       27.026        7.632      619.882      101.249        0.027      347.308       26.180      860.067
06/17/2013  16:42:00     -522.767     -151.218      -26.004      257.525      253.015      114.179    66318.910    64016.348    13036.765       22.007        7.169      544.199      121.457        0.050      347.108       25.836      860.042
06/17/2013  16:43:00     -483.235     -235.494      -10.199      289.448      232.843      129.643    83780.413    54215.637    16807.332       22.191        7.740      537.563      137.359        0.065      347.121       25.858      860.032
06/17/2013  16:44:00     -312.646      -94.322       -8.144      261.850      171.897      117.732    68565.522    29548.601    13860.877       10.932        5.599      326.564      123.867        0.144      347.276       26.125      860.029
06/17/2013  16:45:00     -282.716      -38.568       20.062      210.486      170.636      109.373    44304.355    29116.750    11962.431        8.358        4.269      285.335      120.111        0.177      347.406       26.350      860.060
06/17/2013  16:46:00     -601.238     -232.082      -40.672      298.256      239.803      112.531    88956.808    57505.434    12663.258       28.803        7.956      644.476      115.268        0.032      347.143       25.896      860.082
06/17/2013  16:47:00     -524.445      -59.855      -19.398      275.288      190.591      112.588    75783.635    36325.114    12675.974       20.187        6.239      527.850      140.206        0.071      347.026       25.694      860.141
06/17/2013  16:48:00     -366.276      -79.928      -20.596      202.322      175.217       80.999    40934.212    30700.875     6560.875       10.957        3.910      374.896       99.829        0.071      347.083       25.791      860.100
06/17/2013  16:49:00     -259.262     -206.761        0.918      246.350      171.188      102.771    60688.518    29305.176    10561.932       10.524        5.028      331.613      114.862        0.120      347.253       26.085      860.102
06/17/2013  16:50:00     -170.116     -136.988       24.285      191.796      154.750       83.179    36785.752    23947.631     6918.680        5.796        3.383      218.415       99.585        0.208      347.428       26.388      860.143
06/17/2013  16:51:00     -358.777     -121.936       17.704      256.202      186.856      112.751    65639.561    34915.196    12712.817       12.856        5.663      378.932      114.219        0.091      347.190       25.976      860.147
06/17/2013  16:52:00     -555.402     -243.574      -22.451      314.223      302.612      146.277    98736.391    91574.026    21396.911       28.996       10.585      606.465      177.100        0.085      346.945       25.554      860.117
06/17/2013  16:53:00     -467.240     -222.339       -9.392      234.970      224.478      113.134    55210.707    50390.245    12799.238       19.309        5.920      517.443      127.488        0.061      346.982       25.617      860.110
06/17/2013  16:54:00     -597.151      -93.213      -36.730      271.755      220.157      128.151    73851.038    48468.932    16422.554       25.266        6.937      604.382      132.084        0.048      347.179       25.957      860.075
06/17/2013  16:55:00     -739.919     -179.003      -18.291      304.395      245.584      126.862    92656.405    60311.333    16093.896       37.443        8.453      761.264      143.343        0.035      346.974       25.604      860.153
06/17/2013  16:56:00     -778.663     -201.753      -46.781      327.023      240.125      128.262   106943.802    57660.190    16451.131       41.510        9.053      804.376      146.178        0.033      346.896       25.470      860.136
06/17/2013  16:57:00     -469.697      -74.916      -36.309      241.436      206.278       92.015    58291.451    42550.666     8466.755       16.841        5.465      475.634       87.517        0.034      347.103       25.825      860.143
06/17/2013  16:58:00     -727.425      -60.476      -44.010      258.656      202.724      108.007    66902.991    41097.158    11665.619       32.718        5.983      729.935      121.436        0.028      347.048       25.732      860.158
06/17/2013  16:59:00     -729.827     -181.604      -22.169      322.674      226.130      127.504   104118.703    51134.659    16257.387       36.878        8.576      752.082      149.220        0.039      346.974       25.605      860.076
06/17/2013  17:00:00     -389.618     -243.474       13.446      323.950      230.735      126.551   104943.655    53238.696    16015.117       19.270        8.710      459.436      172.049        0.140      347.116       25.849      860.095
06/17/2013  17:01:00     -609.252     -159.508      -34.043      323.204      215.617      115.209   104460.902    46490.742    13273.115       28.097        8.211      629.786      125.076        0.039      347.044       25.725      860.070
06/17/2013  17:02:00     -426.546     -137.790       -8.869      315.015      199.598      112.898    99234.524    39839.369    12745.956       17.638        7.591      448.249      123.540        0.076      347.123       25.861      860.086
06/17/2013  17:03:00     -427.860     -108.391      -23.631      233.109      169.461       98.059    54339.773    28717.064     9615.484       14.400        4.634      441.376      102.577        0.054      347.192       25.980      860.095
06/17/2013  17:04:00     -713.101     -175.416      -46.605      318.493      260.180      125.682   101437.826    67693.525    15795.971       36.315        9.246      734.360      131.205        0.032      346.915       25.504      860.083
06/17/2013  17:05:00     -647.811     -107.400      -50.166      349.274      210.985      129.684   121992.541    44514.683    16817.962       30.848        9.166      656.654      157.836        0.058      346.925       25.520      860.055
06/17/2013  17:06:00     -594.080      -75.192      -33.428      279.835      212.860      126.429    78307.759    45309.519    15984.258       24.962        6.980      598.819      137.427        0.053      346.983       25.620      860.072
06/17/2013  17:07:00     -636.387     -117.018      -35.910      275.072      196.663      110.129    75664.720    38676.345    12128.324       27.319        6.323      647.056      105.956        0.027      346.865       25.417      860.102
06/17/2013  17:08:00     -767.798     -200.925      -19.977      409.946      274.050      133.797   168055.494    75103.255    17901.747       44.562       13.053      793.653      153.739        0.038      346.744       25.208      859.973
06/17/2013  17:09:00     -698.725     -289.106      -28.724      317.348      254.192      134.751   100709.912    64613.410    18157.830       37.802        9.174      756.174      147.282        0.038      346.824       25.345      859.951
06/17/2013  17:10:00     -687.828     -212.948       -1.118      273.034      231.562      127.317    74547.508    53620.931    16209.735       33.139        7.219      720.038      141.754        0.039      346.823       25.344      859.941
06/17/2013  17:11:00     -596.099     -153.287      -36.279      310.018      226.603      124.253    96111.073    51348.903    15438.690       27.149        8.145      615.492      160.797        0.068      346.830       25.356      859.989
06/17/2013  17:12:00     -544.543     -118.195      -10.067      274.077      202.107      118.396    75118.247    40847.410    14017.679       22.026        6.499      557.223      134.726        0.058      346.912       25.498      859.957
06/17/2013  17:13:00     -683.607      -26.418      -38.918      312.124      209.928      120.622    97421.647    44069.624    14549.569       31.275        7.802      684.117      150.400        0.048      346.931       25.531      859.962
06/17/2013  17:14:00     -424.244     -226.553       -8.817      259.742      239.397      132.937    67466.110    57311.077    17672.285       18.689        7.122      480.946      133.957        0.078      346.905       25.487      859.970
06/17/2013  17:15:00     -545.318     -367.947      -11.917      299.934      204.865      150.968    89960.252    41969.563    22791.355       29.378        7.736      657.843      149.121        0.051      346.711       25.151      859.965
06/17/2013  17:16:00     -576.213     -235.207      -11.426      311.465      218.493      131.339    97010.224    47739.105    17249.973       27.470        8.100      622.370      147.715        0.056      346.827       25.351      859.971
06/17/2013  17:17:00     -559.197     -121.233       -3.962      287.452      187.827       96.382    82628.807    35278.832     9289.423       22.728        6.360      572.188      112.601        0.039      347.041       25.720      860.032
06/17/2013  17:18:00     -626.464     -139.219      -26.570      284.228      203.597       97.994    80785.281    41451.638     9602.914       27.217        6.592      641.747      124.962        0.038      346.884       25.449      860.027
06/17/2013  17:19:00     -656.014     -132.665      -23.008      232.417      205.265      113.664    54017.559    42133.588    12919.601       27.876        5.454      669.294      112.589        0.028      346.823       25.344      859.985
06/17/2013  17:20:00     -658.510       -0.208      -47.457      229.428      169.782      101.814    52637.115    28825.965    10366.164       26.384        4.591      658.510      105.774        0.026      346.882       25.445      859.960
06/17/2013  17:21:00     -741.622     -223.111      -55.022      348.135      239.949      136.305   121197.709    57575.698    18579.163       40.004        9.868      774.456      160.759        0.043      346.803       25.310      859.906
06/17/2013  17:22:00     -666.243     -345.641      -33.268      307.327      225.163      123.201    94450.175    50698.443    15178.609       36.236        8.016      750.564      136.254        0.033      346.795       25.297      859.855
06/17/2013  17:23:00     -399.916     -172.243        2.220      252.505      276.912      117.001    63758.972    76680.421    13689.336       17.184        7.706      435.431      140.440        0.104      346.935       25.538      859.860
06/17/2013  17:24:00     -681.499     -202.678      -38.879      278.535      224.003      106.338    77582.004    50177.419    11307.759       32.302        6.953      710.999      118.392        0.028      346.856       25.401      859.841
06/17/2013  17:25:00     -756.742     -264.906      -45.524      283.437      200.144      114.583    80336.724    40057.582    13129.218       38.919        6.676      801.769      125.905        0.025      346.717       25.162      859.765
06/17/2013  17:26:00     -648.681      -88.304      -36.905      269.903      205.742      110.802    72847.899    42329.926    12277.115       27.868        6.373      654.663      114.873        0.031      346.852       25.394      859.762
06/17/2013  17:27:00     -507.899     -237.874       -7.461      303.636      270.164      131.765    92194.833    72988.407    17362.135       24.854        9.127      560.844      151.901        0.073      346.862       25.412      859.738
06/17/2013  17:28:00     -383.665     -163.017       12.499      317.890      204.505      122.198   101053.841    41822.224    14932.361       16.584        7.890      416.861      167.761        0.162      346.942       25.548      859.760
06/17/2013  17:29:00     -735.851      -89.179      -65.820      323.219      223.769      104.772   104470.312    50072.478    10977.069       35.961        8.276      741.235      124.460        0.028      346.863       25.412      859.755
06/17/2013  17:30:00     -453.628      -83.546      -11.839      337.808      167.949      107.213   114114.109    28206.890    11494.570       18.333        7.691      461.257      145.926        0.100      346.982       25.618      859.761
06/17/2013  17:31:00     -485.650      -33.729      -11.514      235.964      235.407      105.752    55678.823    55416.379    11183.459       17.968        6.114      486.820       96.979        0.040      346.930       25.528      859.764
06/17/2013  17:32:00     -325.577      -41.416       12.653      265.710      225.646      121.446    70601.578    50915.982    14749.078       12.204        6.813      328.200      134.498        0.168      346.928       25.525      859.787
06/17/2013  17:33:00     -486.260      -72.668      -15.482      301.413      183.958      102.594    90849.591    33840.650    10525.521       18.857        6.761      491.660      122.928        0.063      346.849       25.391      859.774
06/17/2013  17:34:00     -547.454     -148.655      -15.337      257.990      206.169      108.528    66558.738    42505.805    11778.237       22.142        6.042      567.278      130.399        0.053      346.869       25.424      859.689
06/17/2013  17:35:00     -511.761      -83.471      -31.307      316.033      184.441      104.183    99876.835    34018.337    10854.190       20.727        7.237      518.524      133.948        0.067      346.987       25.627      859.710
06/17/2013  17:36:00     -463.060     -236.777       -3.935      276.194      207.551      113.856    76283.184    43077.253    12963.166       20.139        6.616      520.085      148.488        0.082      346.882       25.446      859.736
06/17/2013  17:37:00     -351.337     -143.420       15.679      267.041      230.348      122.241    71310.985    53060.061    14942.856       14.176        6.966      379.482      137.042        0.130      346.838       25.371      859.686
06/17/2013  17:38:00     -672.310      -93.317      -57.399      238.714      235.690      114.631    56984.221    55549.566    13140.267       29.481        6.284      678.755      115.840        0.029      346.847       25.385      859.751
06/17/2013  17:39:00     -826.167     -161.411      -38.244      282.786      215.684      130.095    79967.980    46519.518    16924.768       42.671        7.171      841.788      140.901        0.028      346.647       25.043      859.760
06/17/2013  17:40:00     -451.624     -173.839        6.234      249.868      218.131      131.006    62434.177    47581.107    17162.617       18.068        6.359      483.926      137.280        0.080      346.745       25.209      859.803
06/17/2013  17:41:00     -728.212      -26.878      -57.691      289.168      198.851      102.193    83617.894    39541.746    10443.415       33.395        6.680      728.708      125.172        0.030      346.683       25.102      859.782
06/17/2013  17:42:00     -630.923     -123.271      -17.559      212.692      202.478      105.723    45237.968    40997.347    11177.362       25.547        4.871      642.853      100.778        0.025      346.730       25.183      859.789
06/17/2013  17:43:00     -655.189     -188.742      -22.534      260.041      235.160      132.747    67621.159    55299.994    17621.733       30.294        7.027      681.833      143.767        0.044      346.613       24.983      859.794
06/17/2013  17:44:00     -566.923     -125.923       -8.376      275.288      185.019      116.132    75783.537    34231.940    13486.633       23.039        6.175      580.740      139.935        0.058      346.722       25.171      859.786
06/17/2013  17:45:00     -626.844     -293.786        1.632      393.625      283.208      153.761   154940.475    80206.907    23642.497       36.897       12.939      692.274      197.898        0.082      346.657       25.059      859.714
06/17/2013  17:46:00     -404.288     -155.918      -12.280      305.129      205.978      132.079    93103.739    42426.977    17444.836       17.041        7.649      433.312      139.985        0.104      346.751       25.219      859.778
06/17/2013  17:47:00     -346.035     -164.758       -0.052      294.722      229.354      135.902    86861.026    52603.262    18469.301       15.238        7.897      383.256      154.890        0.163      346.705       25.140      859.783
06/17/2013  17:48:00     -563.673     -151.919      -23.958      307.415      187.388      108.573    94503.962    35114.092    11788.002       24.137        7.070      583.787      111.610        0.037      346.642       25.033      859.791
06/17/2013  17:49:00     -788.998     -248.625      -22.928      369.948      248.223      155.894   136861.209    61614.723    24303.013       45.377       11.139      827.244      184.316        0.050      346.488       24.769      859.755
06/17/2013  17:50:00     -496.535      -45.316      -15.957      279.338      162.352       89.391    78029.937    26358.179     7990.824       18.059        5.619      498.598      110.058        0.049      346.716       25.160      859.795
06/17/2013  17:51:00     -420.471      -60.919      -31.172      195.111      154.064       84.280    38068.427    23735.636     7103.163       12.518        3.445      424.861       75.364        0.031      346.809       25.321      859.791
06/17/2013  17:52:00     -515.972      -42.070      -20.599      315.950      192.181       92.208    99824.553    36933.538     8502.381       20.681        7.263      517.684      133.007        0.066      346.741       25.204      859.732
06/17/2013  17:53:00     -463.019      -92.580      -27.985      220.326      187.915      102.199    48543.727    35312.146    10444.672       15.900        4.715      472.184      104.589        0.049      346.739       25.199      859.775
06/17/2013  17:54:00     -621.999      -93.768      -26.872      342.073      243.717      124.076   117013.873    59397.737    15394.844       29.406        9.590      629.027      158.910        0.064      346.564       24.898      859.790
06/17/2013  17:55:00     -537.927        8.396      -21.404      282.674      164.225      108.223    79904.679    26969.808    11712.174       20.422        5.929      537.993      126.211        0.055      346.578       24.922      859.796
06/17/2013  17:56:00     -557.287     -111.569      -31.663      229.446      208.780       95.476    52645.392    43589.174     9115.645       21.466        5.268      568.345      102.843        0.033      346.581       24.927      859.795
06/17/2013  17:57:00     -659.686     -154.563      -18.847      305.342      224.645      127.936    93233.872    50465.406    16367.502       30.972        8.003      677.551      152.013        0.050      346.453       24.707      859.749
06/17/2013  17:58:00     -596.705     -285.325      -29.459      257.309      196.323      106.284    66207.775    38542.767    11296.327       27.717        5.802      661.413      115.479        0.030      346.555       24.885      859.766
06/17/2013  17:59:00     -564.300     -313.872      -29.385      330.546      322.281      143.806   109260.940   103864.750    20680.093       32.576       11.690      645.717      155.361        0.058      346.517       24.818      859.777
06/17/2013  18:00:00     -384.221     -303.473        2.211      292.215      258.986      157.300    85389.548    67073.864    24743.232       20.843        8.860      489.613      174.545        0.127      346.503       24.794      859.756
06/17/2013  18:01:00     -407.978     -178.327        8.903      340.254      233.360      123.853   115772.998    54456.785    15339.547       19.191        9.278      445.249      142.189        0.102      346.543       24.864      859.854
06/17/2013  18:02:00     -465.827      -86.690       -6.835      218.436      196.376      115.116    47714.269    38563.636    13251.642       16.202        4.976      473.825      119.496        0.064      346.490       24.772      859.824
06/17/2013  18:03:00     -514.876       15.478      -12.110      227.161      194.259      106.690    51601.994    37736.413    11382.677       18.308        5.036      515.108      107.883        0.044      346.478       24.752      859.860
06/17/2013  18:04:00     -345.167      -46.306       14.665      245.124      134.701       90.933    60085.598    18144.228     8268.745       10.398        4.325      348.259      110.737        0.101      346.542       24.860      859.860
06/17/2013  18:05:00     -384.444      -88.736      -10.485      211.454      173.958       83.922    44712.677    30261.505     7042.920       11.888        4.101      394.552       86.482        0.048      346.616       24.990      859.833
06/17/2013  18:06:00     -533.978      -40.661      -20.942      324.167      219.211      111.592   105084.552    48053.381    12452.694       22.637        8.280      535.524      141.074        0.069      346.508       24.803      859.838
06/17/2013  18:07:00     -529.291     -102.497      -15.393      257.797      192.922      126.566    66459.494    37218.900    16018.866       20.527        5.985      539.124      139.620        0.067      346.459       24.719      859.806
06/17/2013  18:08:00     -610.759     -115.595      -15.401      296.659      209.229      125.463    88006.557    43776.945    15740.932       26.705        7.376      621.602      135.764        0.048      346.381       24.584      859.767
06/17/2013  18:09:00     -569.089     -172.534      -13.472      277.618      201.444       99.315    77071.531    40579.810     9863.558       24.064        6.376      594.668      105.864        0.032      346.390       24.599      859.752
06/17/2013  18:10:00     -297.074      -97.980       18.333      249.145      211.867      107.525    62073.063    44887.627    11561.546       10.833        5.926      312.815      121.578        0.151      346.453       24.708      859.808
06/17/2013  18:11:00     -509.745     -179.184       -7.808      348.677      222.402      128.074   121575.392    49462.521    16403.055       23.969        9.372      540.321      153.655        0.081      346.416       24.644      859.827
06/17/2013  18:12:00     -458.434     -150.502      -12.666      276.869      225.405      117.453    76656.226    50807.379    13795.102       18.709        7.063      482.507      131.795        0.075      346.480       24.755      859.838
06/17/2013  18:13:00     -482.746     -219.858      -27.692      211.022      194.440       97.285    44530.122    37806.745     9464.305       18.696        4.590      530.453       98.622        0.035      346.461       24.722      859.835
06/17/2013  18:14:00     -349.120      -88.573      -10.905      280.900      237.783      114.578    78904.841    56540.553    13128.073       13.918        7.429      360.181      129.571        0.129      346.504       24.796      859.853
06/17/2013  18:15:00     -414.879     -213.680        5.534      303.829      212.416      109.663    92312.142    45120.439    12025.896       18.361        7.473      466.673      144.231        0.096      346.388       24.598      859.845
06/17/2013  18:16:00     -283.300     -115.205       -8.705      281.303      210.817      126.217    79131.199    44443.992    15930.765       11.653        6.975      305.829      144.327        0.223      346.453       24.709      859.876
06/17/2013  18:17:00     -570.141       -5.671      -19.485      244.534      204.024      106.348    59796.718    41625.740    11309.919       21.908        5.637      570.169      121.034        0.045      346.383       24.588      859.903
06/17/2013  18:18:00     -659.759     -163.114      -45.192      307.235      242.712      111.250    94393.419    58909.044    12376.639       31.477        8.284      679.623      133.158        0.038      346.257       24.369      859.891
06/17/2013  18:19:00     -511.260     -183.294      -22.635      296.446      221.786       97.538    87880.255    49188.947     9513.710       22.101        7.329      543.124      108.376        0.040      346.314       24.468      859.868
06/17/2013  18:20:00     -368.855     -115.118       -3.536      225.581      193.795       89.380    50886.708    37556.634     7988.709       12.286        4.822      386.402      104.903        0.074      346.320       24.480      859.841
06/17/2013  18:21:00     -521.708     -180.548      -17.984      264.389      193.098      100.130    69901.383    37286.996    10025.963       21.113        5.861      552.066      114.670        0.043      346.261       24.376      859.798
06/17/2013  18:22:00     -359.809      -88.998       17.836      254.820      188.863      107.429    64933.428    35669.082    11540.933       12.490        5.607      370.653      133.914        0.131      346.404       24.623      859.823
06/17/2013  18:23:00     -366.306     -243.921      -22.164      266.860      138.907      106.991    71214.282    19295.231    11447.110       14.804        5.098      440.088      123.342        0.079      346.286       24.422      859.831
06/17/2013  18:24:00     -604.094     -202.127      -20.595      302.058      253.119      111.588    91239.070    64069.206    12451.817       28.695        8.388      637.013      131.959        0.043      346.211       24.292      859.812
06/17/2013  18:25:00     -394.728     -195.018       -7.093      295.024      169.883      120.430    87038.994    28860.089    14503.437       16.212        6.520      440.275      144.186        0.107      346.341       24.517      859.815
06/17/2013  18:26:00     -420.949     -314.628        7.848      275.793      232.716      118.236    76061.796    54156.722    13979.793       21.020        7.210      525.537      136.897        0.068      346.270       24.392      859.786
06/17/2013  18:27:00     -321.574     -150.581       13.830      222.537      190.469       95.298    49522.801    36278.381     9081.615       11.056        4.744      355.084      101.891        0.082      346.373       24.571      859.815
06/17/2013  18:28:00     -460.099     -256.670      -12.009      240.997      218.952      112.957    58079.680    47939.810    12759.179       19.822        5.939      526.849      120.404        0.052      346.311       24.464      859.822
06/17/2013  18:29:00     -414.302     -141.749      -12.493      236.488      245.005      105.677    55926.623    60027.344    11167.670       15.948        6.356      437.880      119.526        0.075      346.279       24.408      859.856
06/17/2013  18:30:00     -374.550      -88.149      -25.241      253.974      175.767      105.251    64502.679    30893.986    11077.852       12.756        5.324      384.783      119.953        0.097      346.353       24.536      859.876
06/17/2013  18:31:00     -463.918     -138.523      -19.798      235.790      195.080      101.897    55597.095    38056.289    10382.956       16.940        5.202      484.158      107.763        0.050      346.259       24.373      859.888
06/17/2013  18:32:00     -583.420     -243.956      -26.567      272.168      233.364      112.595    74075.630    54458.631    12677.731       27.088        7.061      632.372      115.276        0.033      346.159       24.202      859.877
06/17/2013  18:33:00     -548.271     -158.852      -13.718      257.920      212.739      121.291    66522.623    45258.036    14711.535       22.623        6.325      570.820      135.952        0.057      346.203       24.278      859.857
06/17/2013  18:34:00     -276.053      -92.013        3.998      228.952      177.337      109.504    52418.978    31448.252    11991.220        9.025        4.793      290.984      112.850        0.150      346.285       24.419      859.894
06/17/2013  18:35:00     -444.387     -164.953      -15.924      220.776      175.500       93.865    48741.876    30800.202     8810.670       15.663        4.418      474.014      105.518        0.050      346.143       24.173      859.882
06/17/2013  18:36:00     -259.686      -61.626       24.810      192.796      157.044       95.074    37170.242    24662.955     9039.020        7.135        3.544      266.898       80.111        0.090      346.264       24.383      859.886
06/17/2013  18:37:00     -452.462      -87.905      -13.831      235.014      226.843      105.052    55231.364    51457.883    11035.821       16.516        5.886      460.922      118.443        0.066      346.120       24.134      859.881
06/17/2013  18:38:00     -520.656     -154.230      -25.752      228.147      191.013      106.746    52051.133    36486.111    11394.670       19.771        4.997      543.019      114.353        0.044      346.108       24.116      859.844
06/17/2013  18:39:00     -389.600     -146.726       -1.024      207.646      153.924       87.349    43117.035    23692.698     7629.851       12.386        3.722      416.313      104.916        0.064      346.184       24.246      859.863
06/17/2013  18:40:00     -516.465     -195.314      -33.267      241.998      210.013      101.373    58562.935    44105.396    10276.419       20.944        5.647      552.162      109.970        0.040      346.092       24.088      859.892
06/17/2013  18:41:00     -432.973     -210.707      -21.476      280.940      182.546      114.598    78927.248    33323.156    13132.778       17.883        6.269      481.522      139.757        0.084      346.076       24.059      859.888
06/17/2013  18:42:00     -270.506     -201.559       -3.778      198.614      193.590      101.584    39447.471    37477.086    10319.240       10.051        4.362      337.342      109.924        0.106      346.082       24.069      859.878
06/17/2013  18:43:00     -325.020     -147.504       23.859      235.918      191.885      109.516    55657.462    36819.732    11993.675       11.620        5.224      356.925      112.897        0.100      346.155       24.195      859.918
06/17/2013  18:44:00     -529.586      -96.615        1.936      246.586      303.811      113.408    60804.535    92300.966    12861.435       22.785        8.298      538.327      119.074        0.049      346.047       24.009      859.939
06/17/2013  18:45:00     -433.382     -335.972       -5.592      236.182      203.117      125.160    55781.915    41256.555    15665.020       20.669        5.635      548.359      136.326        0.062      345.995       23.920      859.928
06/17/2013  18:46:00     -371.536      -66.002        0.370      286.858      136.438      102.296    82287.712    18615.206    10464.555       12.686        5.568      377.353      141.952        0.142      346.137       24.166      859.961
06/17/2013  18:47:00     -417.984     -168.307       -5.035      235.421      186.092       91.394    55422.819    34630.228     8352.939       15.072        4.920      450.597       84.193        0.035      346.065       24.042      859.967
06/17/2013  18:48:00     -277.853      -99.873       -0.809      193.106      130.594       77.240    37289.895    17054.857     5966.047        7.373        3.016      295.258       79.955        0.073      346.110       24.118      859.960
06/17/2013  18:49:00     -284.947      -57.998       10.454      245.385      176.646       90.060    60213.982    31203.829     8110.842        9.208        4.976      290.789      112.276        0.149      346.104       24.109      859.962
06/17/2013  18:50:00     -423.991      -63.990        0.552      183.330      157.708       83.775    33609.743    24871.893     7018.288       12.467        3.275      428.792       88.584        0.043      346.036       23.990      859.973
06/17/2013  18:51:00     -439.486      -99.647      -25.498      198.901      192.116       94.320    39561.797    36908.598     8896.196       14.453        4.268      450.641       99.085        0.048      345.974       23.885      859.990
06/17/2013  18:52:00     -414.245     -182.760      -11.070      213.319      213.675       89.543    45504.866    45656.983     8017.979       15.213        4.959      452.769       84.794        0.035      346.020       23.963      860.023
06/17/2013  18:53:00     -343.339     -206.374        9.173      227.597      210.499       91.510    51800.193    44309.653     8374.159       13.250        5.224      400.589      105.332        0.069      346.047       24.010      860.025
06/17/2013  18:54:00     -324.986     -212.300        2.327      207.046      198.631       93.955    42867.917    39454.148     8827.550       12.090        4.557      388.185       95.664        0.061      345.996       23.922      860.057
06/17/2013  18:55:00     -349.150     -191.278      -13.056      181.625      146.082       82.113    32987.658    21339.992     6742.467       10.985        3.054      398.112       88.406        0.049      345.912       23.777      860.042
06/17/2013  18:56:00     -346.381     -154.712      -12.147      176.815      148.483       91.382    31263.634    22047.156     8350.622       10.285        3.083      379.362       73.067        0.037      345.984       23.900      860.074
06/17/2013  18:57:00     -430.880     -328.284      -12.402      248.102      196.952      119.723    61554.631    38790.267    14333.559       20.411        5.734      541.690      126.985        0.055      345.821       23.623      860.038
06/17/2013  18:58:00     -400.106     -202.643      -20.741      207.279      156.256       76.196    42964.722    24416.060     5805.851       13.737        3.659      448.497       76.937        0.029      345.865       23.699      860.045
06/17/2013  18:59:00     -519.737     -209.795       -7.664      319.831      195.702       93.517   102292.091    38299.150     8745.418       23.174        7.467      560.482      111.749        0.040      345.809       23.603      860.060
06/17/2013  19:00:00     -358.914     -194.324        7.462      214.776      233.956      120.025    46128.656    54735.607    14406.074       14.093        5.764      408.143      129.592        0.101      345.818       23.618      860.055
06/17/2013  19:01:00     -430.814     -104.401      -26.803      162.777      166.841       87.147    26496.402    27836.004     7594.566       12.956        3.096      443.283       71.940        0.026      345.825       23.628      860.073
06/17/2013  19:02:00     -507.653     -371.140       -9.356      254.143      206.767      123.328    64588.482    42752.557    15209.867       25.902        6.128      628.853      132.092        0.044      345.746       23.494      860.051
06/17/2013  19:03:00     -409.192     -188.363       -8.560      231.210      186.949       96.367    53457.839    34949.986     9286.569       15.032        4.885      450.465      117.549        0.068      345.823       23.627      860.066
06/17/2013  19:04:00     -552.497     -245.186      -24.190      245.173      199.702      103.413    60109.898    39880.918    10694.203       23.830        5.534      604.458      111.699        0.034      345.744       23.490      860.089
06/17/2013  19:05:00     -651.830     -260.224      -21.676      317.105      229.382      116.163   100555.844    52616.132    13493.803       32.983        8.333      701.854      149.355        0.045      345.689       23.395      860.056
06/17/2013  19:06:00     -364.144     -252.367      -11.407      257.582      261.652      103.981    66348.684    68461.567    10811.954       17.099        7.281      443.047      112.960        0.065      345.719       23.448      860.063
06/17/2013  19:07:00     -649.146     -214.885      -15.580      258.546      206.035      113.869    66846.044    42450.558    12966.228       29.501        6.113      683.788      121.729        0.032      345.653       23.335      860.047
06/17/2013  19:08:00     -475.476     -143.643        1.033      223.303      182.785      102.781    49864.246    33410.341    10563.957       17.026        4.692      496.700      118.482        0.057      345.683       23.386      860.108
06/17/2013  19:09:00     -406.219     -187.721        1.578      245.013      180.465      106.055    60031.143    32567.700    11247.641       15.203        5.192      447.496      124.548        0.077      345.741       23.486      860.133
06/17/2013  19:10:00     -425.404     -148.920       -5.353      267.749      203.147      102.509    71689.544    41268.763    10508.059       16.330        6.173      450.717      120.916        0.072      345.674       23.370      860.139
06/17/2013  19:11:00     -476.641      -92.674      -14.211      235.168      165.291       95.371    55303.974    27321.084     9095.559       16.383        4.586      485.567      107.167        0.049      345.657       23.341      860.135
06/17/2013  19:12:00     -324.185      -85.086       14.017      202.781      149.352       82.404    41120.024    22305.889     6790.341        9.136        3.511      335.165       84.923        0.064      345.742       23.488      860.171
06/17/2013  19:13:00     -303.523     -236.991        6.144      181.054      166.418       85.958    32780.393    27694.847     7388.768       10.808        3.393      385.086       88.404        0.053      345.705       23.422      860.178
06/17/2013  19:14:00     -428.812     -253.699       -6.034      260.629      167.471      110.478    67927.415    28046.420    12205.418       17.821        5.409      498.240      115.051        0.053      345.619       23.275      860.136
06/17/2013  19:15:00     -271.398     -303.044        5.872      245.942      226.534      137.886    60487.655    51317.851    19012.618       14.815        6.541      406.808      154.366        0.144      345.620       23.277      860.111
06/17/2013  19:16:00     -327.937     -201.429       -6.958      253.214      208.701      116.971    64117.567    43556.075    13682.158       13.474        6.068      384.859      140.381        0.133      345.644       23.318      860.137
06/17/2013  19:17:00     -408.945     -135.883      -12.146      237.485      155.902       99.803    56399.067    24305.384     9960.586       13.824        4.533      430.930      110.403        0.066      345.610       23.260      860.143
06/17/2013  19:18:00     -521.619      -37.400      -22.236      222.990      199.394      106.161    49724.530    39757.860    11270.065       18.735        5.038      522.958      105.536        0.041      345.548       23.154      860.129
06/17/2013  19:19:00     -596.854     -230.789      -25.844      272.588      210.702      109.473    74304.274    44395.292    11984.339       27.040        6.534      639.921      117.534        0.034      345.517       23.101      860.113
06/17/2013  19:20:00     -359.241     -130.555       12.276      206.203      195.982      102.340    42519.779    38409.027    10473.439       11.881        4.570      382.228      105.292        0.076      345.560       23.174      860.124
06/17/2013  19:21:00     -285.768     -175.108       -5.359      207.213      183.564       96.250    42937.411    33695.819     9264.149        9.911        4.295      335.151      102.426        0.093      345.582       23.211      860.119
06/17/2013  19:22:00     -314.630      -79.489      -10.358      215.492      135.424       81.925    46436.981    18339.587     6711.756        8.844        3.574      324.516       80.105        0.061      345.620       23.277      860.119
06/17/2013  19:23:00     -434.492     -191.573       -7.103      215.933      226.510       94.554    46626.871    51306.832     8940.532       16.618        5.344      474.851       90.417        0.036      345.548       23.153      860.113
06/17/2013  19:24:00     -498.213     -285.674      -11.705      248.964      192.563       94.782    61982.863    37080.321     8983.646       21.898        5.402      574.304      107.555        0.035      345.498       23.067      860.094
06/17/2013  19:25:00     -405.525     -153.592        3.038      199.346      163.640      100.287    39738.660    26778.147    10057.417       13.230        3.829      433.637       95.970        0.049      345.520       23.105      860.092
06/17/2013  19:26:00     -369.941       -1.734      -13.441      151.944      178.168       85.017    23086.916    31744.009     7227.894        9.954        3.103      369.945       67.852        0.034      345.511       23.090      860.092
06/17/2013  19:27:00     -228.930     -127.478       12.956      152.487      151.622       80.325    23252.341    22989.246     6452.080        6.075        2.635      262.029       80.503        0.094      345.587       23.221      860.084
06/17/2013  19:28:00     -389.964     -239.487       -3.778      295.938      223.068      129.765    87579.104    49759.404    16838.976       18.178        7.709      457.630      138.403        0.091      345.480       23.036      860.056
06/17/2013  19:29:00     -577.207     -155.807      -23.615      256.002      257.726      110.208    65536.844    66422.616    12145.886       25.102        7.205      597.866      120.978        0.041      345.418       22.930      860.032
06/17/2013  19:30:00     -446.488     -324.137      -26.275      257.754      238.572      118.122    66437.255    56916.554    13952.911       22.118        6.865      551.739      141.018        0.065      345.402       22.904      860.029
06/17/2013  19:31:00     -446.135     -127.524      -25.236      271.764      192.194      101.197    73855.459    36938.615    10240.903       16.846        6.052      464.003      110.759        0.057      345.448       22.982      860.024
06/17/2013  19:32:00     -481.021     -317.162        3.355      281.900      221.938      107.755    79467.405    49256.571    11611.076       23.613        7.017      576.170      140.587        0.060      345.382       22.868      860.007
06/17/2013  19:33:00     -500.749      -82.041      -30.923      194.999      171.535       90.043    38024.575    29424.165     8107.821       16.698        3.778      507.425       90.947        0.032      345.388       22.879      860.026
06/17/2013  19:34:00     -438.969     -193.211        1.634      244.123      228.568      101.545    59596.171    52243.442    10311.484       17.606        6.108      479.608      126.099        0.069      345.333       22.784      860.026
06/17/2013  19:35:00     -345.246     -212.315        8.595      213.521      175.794      109.878    45591.399    30903.649    12073.266       12.644        4.428      405.305      115.742        0.082      345.335       22.789      860.005
06/17/2013  19:36:00     -455.026      -83.893       -5.455      207.997      188.043       96.782    43262.760    35360.281     9366.663       15.104        4.399      462.695       97.082        0.044      345.344       22.805      859.977
06/17/2013  19:37:00     -551.600     -167.434      -25.302      235.458      173.228       99.558    55440.697    30008.039     9911.877       21.413        4.768      576.452      101.103        0.031      345.322       22.765      859.970
06/17/2013  19:38:00     -427.103     -163.816      -14.469      222.407      177.286       97.601    49464.723    31430.210     9526.022       14.992        4.521      457.441      105.039        0.053      345.346       22.808      859.956
06/17/2013  19:39:00     -475.023     -130.865      -13.807      248.592      211.740       98.810    61798.164    44833.833     9763.319       17.966        5.820      492.720      107.889        0.048      345.341       22.798      859.938
06/17/2013  19:40:00     -611.459     -176.233      -25.213      235.723      185.223      109.189    55565.500    34307.745    11922.173       25.367        5.090      636.349      116.121        0.033      345.277       22.688      859.980
06/17/2013  19:41:00     -653.968     -176.825      -30.410      293.858      232.641      137.043    86352.569    54121.858    18780.703       30.953        7.963      677.452      155.975        0.053      345.234       22.616      859.954
06/17/2013  19:42:00     -520.252     -110.530       -3.476      254.292      186.417      103.053    64664.302    34751.298    10619.944       19.644        5.502      531.864      112.460        0.045      345.239       22.623      859.967
06/17/2013  19:43:00     -366.643     -154.062       -0.867      214.396      175.511       87.964    45965.569    30804.094     7737.646       12.132        4.225      397.696       94.684        0.057      345.239       22.624      859.979
06/17/2013  19:44:00     -270.091      -87.100       -1.259      169.496      149.914       77.756    28728.788    22474.063     6046.047        6.888        2.862      283.788       57.216        0.041      345.303       22.734      859.978
06/17/2013  19:45:00     -326.408      -95.991       -0.108      204.946      186.439       97.961    42002.709    34759.638     9596.447       10.104        4.318      340.230       97.221        0.082      345.325       22.772      859.945
06/17/2013  19:46:00     -334.353      -88.160        7.083      239.840      192.953       87.005    57523.380    37230.830     7569.848       11.095        5.116      345.780      104.887        0.092      345.273       22.681      859.983
06/17/2013  19:47:00     -508.744      -68.859      -22.854      269.669      195.699       87.667    72721.628    38298.080     7685.490       19.137        5.935      513.383      106.216        0.043      345.228       22.606      859.962
06/17/2013  19:48:00     -394.969      -53.073       17.131      246.225      178.512      117.756    60626.975    31866.525    13866.442       13.271        5.318      398.518      140.412        0.124      345.189       22.538      859.978
06/17/2013  19:49:00     -410.365     -170.946      -30.619      164.691      175.834       83.817    27123.076    30917.615     7025.214       13.180        3.253      444.548       69.666        0.025      345.215       22.582      859.939
06/17/2013  19:50:00     -279.529      -29.820        7.513      164.163      154.421       87.543    26949.332    23845.975     7663.787        6.876        2.923      281.115       86.553        0.095      345.182       22.526      859.914
06/17/2013  19:51:00     -366.881      -69.674        2.704      228.789      142.757       85.498    52344.441    20379.419     7309.964       10.973        4.002      373.438      108.682        0.085      345.120       22.421      859.907
06/17/2013  19:52:00     -502.108       -6.016      -21.806      237.423      157.508       99.337    56369.585    24808.856     9867.879       17.182        4.552      502.144      104.404        0.043      345.099       22.386      859.919
06/17/2013  19:53:00     -285.587      -14.307       15.167      202.270      159.481       98.210    40913.104    25434.167     9645.269        7.898        3.800      285.946       99.298        0.121      345.118       22.416      859.926
06/17/2013  19:54:00     -593.343      -58.608      -26.256      203.928      195.968      103.635    41586.504    38403.291    10740.304       22.344        4.537      596.231      104.438        0.031      345.041       22.285      859.928
06/17/2013  19:55:00     -459.362     -251.741      -16.485      270.198      210.320      117.459    73006.863    44234.470    13796.625       20.282        6.552      523.820      129.650        0.061      345.019       22.249      859.933
06/17/2013  19:56:00     -435.572     -177.931       -7.386      232.401      171.680       94.168    54010.108    29474.003     8867.657       15.688        4.618      470.512      104.556        0.049      345.019       22.248      859.946
06/17/2013  19:57:00     -534.769     -207.867      -29.868      226.919      190.769       93.643    51492.042    36392.677     8768.978       21.335        4.833      573.748       78.791        0.019      344.973       22.168      859.929
06/17/2013  19:58:00     -379.868     -102.680      -19.573      264.836      193.024       97.771    70138.248    37258.081     9559.224       13.607        5.848      393.501      119.154        0.092      344.942       22.113      859.945
06/17/2013  19:59:00     -721.383     -160.953      -44.183      254.662      243.548      123.935    64852.763    59315.724    15359.886       34.386        6.976      739.120      125.225        0.029      344.914       22.068      859.945
06/17/2013  20:00:00     -701.889      -69.464      -43.192      303.700      231.035      121.616    92233.724    53377.111    14790.453       32.984        8.020      705.318      153.567        0.047      344.897       22.038      859.960
06/17/2013  20:01:00     -521.043     -190.896      -10.703      280.785      240.886      111.712    78840.039    58026.035    12479.583       22.866        7.467      554.912      132.606        0.057      344.889       22.026      859.976
06/17/2013  20:02:00     -690.030     -182.064      -36.138      342.539      224.904      101.335   117333.090    50581.986    10268.800       34.435        8.909      713.644      125.821        0.031      344.887       22.022      859.988
06/17/2013  20:03:00     -509.086     -135.108      -12.394      252.201      211.306       92.221    63605.497    44650.116     8504.729       19.714        5.838      526.710      104.923        0.040      344.900       22.043      859.996
06/17/2013  20:04:00     -280.283      -22.863        8.958      193.172      121.044       72.802    37315.507    14651.629     5300.170        6.820        2.863      281.214       89.288        0.101      344.862       21.980      860.054
06/17/2013  20:05:00     -491.313      -69.379      -28.306      225.672      145.626       94.637    50927.962    21206.831     8956.067       16.403        4.055      496.188      108.134        0.047      344.816       21.898      860.060
06/17/2013  20:06:00     -593.413     -192.942       -7.871      181.020      214.956       98.221    32768.151    46206.062     9647.269       23.901        4.431      623.992       99.336        0.025      344.794       21.862      860.038
06/17/2013  20:07:00     -408.714     -105.988      -24.522      204.217      154.742       97.813    41704.599    23945.207     9567.470       12.703        3.761      422.233      107.043        0.064      344.847       21.953      860.066
06/17/2013  20:08:00     -356.850     -103.503      -15.871      222.694      171.393       81.530    49592.683    29375.603     6647.070       11.194        4.281      371.557      105.438        0.081      344.790       21.854      860.101
06/17/2013  20:09:00     -481.784        2.933      -33.223      230.164      193.115       90.189    52975.551    37293.454     8134.035       16.580        4.920      481.793       96.355        0.040      344.744       21.777      860.082
06/17/2013  20:10:00     -460.026     -102.235      -10.991      210.293      163.848       97.871    44223.354    26846.189     9578.637       15.141        4.032      471.249       96.564        0.042      344.723       21.741      860.033
06/17/2013  20:11:00     -385.627     -117.494      -14.312      169.448      157.877       84.566    28712.732    24925.186     7151.430       11.174        3.039      403.129       86.850        0.046      344.716       21.727      860.032
06/17/2013  20:12:00     -484.675     -115.592      -32.687      237.092      191.693       95.378    56212.644    36746.353     9096.985       17.568        5.103      498.268       98.957        0.039      344.731       21.755      860.020
06/17/2013  20:13:00     -447.134      -59.834       -5.659      153.355      143.038       87.898    23517.853    20459.795     7726.138       12.761        2.585      451.120       86.779        0.037      344.682       21.671      860.067
06/17/2013  20:14:00     -534.528      -93.436      -41.830      152.067      183.133       75.370    23124.338    33537.577     5680.600       17.926        3.117      542.633       67.659        0.016      344.677       21.660      860.015
06/17/2013  20:15:00     -647.091     -120.552      -39.564      260.944      209.526       97.940    68091.761    43901.087     9592.207       27.818        6.079      658.224      122.198        0.034      344.694       21.689      860.047
06/17/2013  20:16:00     -452.373      -80.393      -15.705      190.344      208.364       82.446    36230.947    43415.489     6797.309       14.888        4.322      459.461       72.861        0.025      344.754       21.792      860.056
06/17/2013  20:17:00     -520.126     -108.520      -33.482      238.386      206.349      101.192    56828.072    42579.972    10239.857       19.652        5.482      531.326      120.636        0.052      344.676       21.659      860.136
06/17/2013  20:18:00     -424.767      -24.321       -4.820      244.037      180.896       95.207    59553.935    32723.491     9064.464       14.117        5.067      425.463      105.989        0.062      344.625       21.575      860.130
06/17/2013  20:19:00     -389.124      -11.331      -13.184      205.904      151.144      106.950    42396.419    22844.385    11438.310       11.418        3.834      389.289       97.441        0.063      344.572       21.485      860.110
06/17/2013  20:20:00     -468.700      -61.756      -14.323      234.218      124.939       90.813    54858.080    15609.638     8247.024       15.119        3.936      472.751      117.515        0.062      344.574       21.484      860.088
06/17/2013  20:21:00     -522.572      -69.738      -34.659      194.799      157.490       86.108    37946.457    24803.020     7414.672       17.464        3.508      527.205       83.556        0.025      344.572       21.483      860.092
06/17/2013  20:22:00     -408.945      -84.837      -12.353      199.589      158.049       87.887    39835.955    24979.563     7724.147       12.355        3.627      417.652       98.919        0.056      344.561       21.463      860.110
06/17/2013  20:23:00     -507.215       -4.994      -25.806      196.451      177.181       90.543    38592.862    31393.029     8198.109       16.806        3.909      507.240       96.937        0.037      344.544       21.435      860.074
06/17/2013  20:24:00     -616.281      -85.203      -41.793      184.986      187.326       90.192    34219.846    35091.196     8134.574       23.311        3.872      622.142       86.313        0.019      344.531       21.414      860.104
06/17/2013  20:25:00     -444.300      -84.112      -20.492      294.813      188.367       99.725    86914.608    35482.235     9945.046       16.859        6.617      452.192      120.216        0.071      344.523       21.397      860.087
06/17/2013  20:26:00     -676.784     -124.613      -28.885      263.533      189.223       99.839    69449.442    35805.497     9967.784       29.479        5.761      688.160      107.217        0.024      344.520       21.394      860.029
06/17/2013  20:27:00     -740.356     -152.852      -65.309      275.082      212.719      112.693    75670.006    45249.233    12699.684       35.466        6.681      755.970      121.244        0.026      344.485       21.333      859.969
06/17/2013  20:28:00     -515.237     -105.041      -17.570      212.302      184.132       94.229    45072.293    33904.653     8879.176       18.232        4.393      525.835      104.774        0.040      344.464       21.298      859.926
06/17/2013  20:29:00     -500.971     -198.057       -5.827      282.844      194.646      110.338    80000.967    37886.875    12174.518       21.012        6.503      538.701      110.642        0.042      344.430       21.240      859.885
06/17/2013  20:30:00     -583.659     -150.218      -28.486      228.984      180.304       97.515    52433.799    32509.613     9509.233       22.922        4.723      602.680       82.055        0.019      344.433       21.245      859.914
06/17/2013  20:31:00     -369.657      -58.089       -7.923      233.903      159.245       98.798    54710.765    25358.876     9761.029       11.494        4.492      374.193       86.198        0.053      344.367       21.132      859.980
06/17/2013  20:32:00     -238.573      -44.019        0.239      195.053      164.927       86.059    38045.567    27201.077     7406.132        6.574        3.633      242.600       85.177        0.123      344.410       21.207      860.016
06/17/2013  20:33:00     -429.908      -16.947      -11.090      205.498      206.707       95.245    42229.374    42727.667     9071.609       13.961        4.701      430.242       95.956        0.050      344.415       21.214      859.982
06/17/2013  20:34:00     -436.473      -60.549      -13.895      245.505      143.565       94.123    60272.755    20610.954     8859.163       14.204        4.487      440.653       96.592        0.048      344.415       21.214      859.944
06/17/2013  20:35:00     -502.611      -74.497      -20.898      227.386      159.590      102.958    51704.548    25469.012    10600.266       17.317        4.389      508.102      107.879        0.045      344.373       21.143      859.981
06/17/2013  20:36:00     -533.930     -129.094      -28.266      240.705      208.343      108.848    57938.947    43406.599    11847.863       20.785        5.660      549.315      120.470        0.048      344.368       21.133      860.014
06/17/2013  20:37:00     -581.466     -135.743      -28.311      214.555      171.709       90.742    46033.658    29484.141     8234.149       22.052        4.188      597.101       87.590        0.022      344.369       21.136      860.019
06/17/2013  20:38:00     -393.050     -142.413        8.460      240.025      141.489       98.311    57612.117    20019.004     9664.960       13.105        4.365      418.055      121.120        0.084      344.346       21.096      859.997
06/17/2013  20:39:00     -399.785     -131.965      -21.231      244.726      138.125       87.395    59890.698    19078.598     7637.905       13.213        4.330      421.002      115.452        0.075      344.330       21.068      860.034
06/17/2013  20:40:00     -401.912     -106.617      -27.952      154.243      117.720       67.524    23791.029    13857.905     4559.496       10.794        2.110      415.812       60.949        0.021      344.348       21.101      860.069
06/17/2013  20:41:00     -467.137       -0.162      -27.948      220.583      139.631       75.915    48656.676    19496.813     5763.142       14.644        3.696      467.137       81.453        0.030      344.313       21.039      860.069
06/17/2013  20:42:00     -435.495      -69.649      -11.903      184.929      226.370       89.720    34198.720    51243.371     8049.626       14.405        4.675      441.029       99.643        0.051      344.278       20.981      860.080
06/17/2013  20:43:00     -400.826     -282.188      -27.952      229.284      165.573       90.029    52571.057    27414.364     8105.278       16.456        4.405      490.195       93.803        0.037      344.282       20.987      860.073
06/17/2013  20:44:00     -327.807       -8.687       -0.429      157.580      122.410       92.275    24831.512    14984.264     8514.689        7.792        2.417      327.922       79.482        0.059      344.269       20.965      860.052
06/17/2013  20:45:00     -447.039      -77.367      -31.505      247.505      162.184      106.370    61258.707    26303.682    11314.639       15.283        4.944      453.685      114.334        0.064      344.263       20.954      860.026
06/17/2013  20:46:00     -528.419     -110.245        2.240      256.902      176.402      101.475    65998.665    31117.603    10297.107       19.938        5.371      539.796      131.477        0.059      344.242       20.919      859.972
06/17/2013  20:47:00     -399.238       -7.388      -23.015      169.242      169.222       82.658    28642.696    28636.128     6832.394       11.203        3.206      399.306       63.442        0.025      344.217       20.875      859.926
06/17/2013  20:48:00     -697.744     -133.308      -41.621      301.132      247.481      128.197    90680.212    61246.952    16434.462       33.732        8.418      710.365      152.832        0.046      344.219       20.879      859.880
06/17/2013  20:49:00     -590.887     -176.266      -22.159      218.023      172.455       81.202    47533.842    29740.755     6593.810       23.227        4.193      616.618       73.625        0.014      344.210       20.864      859.862
06/17/2013  20:50:00     -553.944      -82.632      -61.812      217.681      184.018       91.512    47385.202    33862.498     8374.457       20.354        4.481      560.073       82.347        0.022      344.194       20.836      859.822
06/17/2013  20:51:00     -347.333     -148.874      -10.500      222.289      161.630       97.133    49412.195    26124.316     9434.729       11.393        4.249      377.894      101.531        0.072      344.159       20.777      859.882
06/17/2013  20:52:00     -456.162      -71.990      -26.802      253.864      179.303      100.202    64446.905    32149.553    10040.358       16.029        5.332      461.808      112.871        0.060      344.131       20.730      859.922
06/17/2013  20:53:00     -482.880     -183.887       -6.944      305.480      301.361      134.429    93317.753    90818.360    18071.036       23.458       10.110      516.708      116.191        0.051      344.161       20.779      859.928
06/17/2013  20:54:00     -374.023     -118.577      -21.024      280.988      184.282      109.863    78954.367    33959.931    12069.898       13.966        6.249      392.369      121.803        0.096      344.143       20.749      859.915
06/17/2013  20:55:00     -399.979     -138.812       -5.930      256.010      204.153      106.960    65541.252    41678.398    11440.526       14.895        5.933      423.382      122.873        0.084      344.118       20.708      859.903
06/17/2013  20:56:00     -297.119      -55.961      -26.669      166.916      128.223       71.862    27861.041    16441.041     5164.088        7.078        2.473      302.343       80.925        0.072      344.096       20.670      859.880
06/17/2013  20:57:00     -388.008      -48.315      -13.641      225.142      155.833       83.595    50689.134    24283.827     6988.185       11.750        4.098      391.005      104.182        0.071      344.054       20.599      859.843
06/17/2013  20:58:00     -242.586      -76.345       11.980      260.453      179.878       94.047    67835.971    32355.997     8844.856        8.691        5.452      254.316      123.509        0.236      344.025       20.548      859.884
06/17/2013  20:59:00     -392.288     -146.413       -3.258      293.371      219.090      126.556    86066.663    48000.335    16016.512       16.268        7.504      418.720      156.903        0.140      344.054       20.598      859.917
06/17/2013  21:00:00     -439.411     -132.526       -7.384      278.178      210.396      110.011    77382.754    44266.495    12102.507       17.220        6.688      458.961      110.527        0.058      344.027       20.553      859.957
06/17/2013  21:01:00     -366.192     -112.972       -6.080      234.801      187.460       89.315    55131.625    35141.432     7977.206       12.255        4.913      383.222       86.218        0.051      344.043       20.580      859.996
06/17/2013  21:02:00     -465.539     -161.189        3.716      296.606      200.072      115.662    87975.398    40028.977    13377.799       19.202        7.069      492.655      144.837        0.086      344.025       20.547      860.009
06/17/2013  21:03:00     -345.014     -124.098       -4.772      219.366      156.483       90.152    48121.431    24486.880     8127.399       10.758        4.037      366.654      100.154        0.075      343.998       20.503      860.015
06/17/2013  21:04:00     -397.432     -104.016      -21.855      291.764      168.875       96.190    85126.478    28518.717     9252.455       14.605        6.145      410.818       84.950        0.043      343.988       20.486      860.008
06/17/2013  21:05:00     -584.809     -102.216      -33.490      246.770      191.689      113.906    60895.669    36744.630    12974.690       23.207        5.531      593.675      122.178        0.042      343.942       20.405      860.002
06/17/2013  21:06:00     -425.788      -49.016      -16.859      200.251      170.762       86.412    40100.303    29159.633     7467.072       13.034        3.836      428.600       83.118        0.038      343.937       20.397      859.924
06/17/2013  21:07:00     -546.451     -173.765       -6.958      307.026      241.266      107.521    94264.977    58209.184    11560.721       24.641        8.202      573.414      138.510        0.058      343.905       20.343      859.876
06/17/2013  21:08:00     -412.926      -68.860       11.658      296.047      173.320      104.302    87643.833    30039.882    10878.863       15.195        6.428      418.628      118.135        0.080      343.915       20.359      859.917
06/17/2013  21:09:00     -337.444      -80.315        4.856      202.118      155.541       68.565    40851.767    24193.020     4701.178        9.503        3.487      346.870       78.084        0.051      343.915       20.359      859.976
06/17/2013  21:10:00     -500.241     -139.333      -23.197      297.543      166.337       88.717    88532.119    27667.986     7870.642       19.711        6.204      519.283      109.990        0.045      343.894       20.324      860.011
06/17/2013  21:11:00     -514.064      -40.551      -20.421      275.510      208.975       91.390    75905.507    43670.357     8352.187       19.710        6.396      515.661      118.169        0.053      343.853       20.254      860.049
06/17/2013  21:12:00     -257.044      -49.658       -5.749      150.003      175.772       96.149    22500.944    30895.695     9244.669        6.559        3.132      261.797       86.548        0.109      343.832       20.219      860.080
06/17/2013  21:13:00     -237.327     -121.572       -0.918      226.056      165.259       80.106    51101.379    27310.691     6416.936        7.795        4.241      266.653      103.159        0.150      343.818       20.194      860.113
06/17/2013  21:14:00     -292.039      -76.314       -6.547      211.345      149.491       93.472    44666.635    22347.626     8736.929        8.344        3.788      301.846       95.623        0.100      343.830       20.215      860.144
06/17/2013  21:15:00     -339.514     -108.591      -17.497      205.853      167.818       89.294    42375.506    28162.968     7973.439       10.292        3.926      356.457       98.912        0.077      343.795       20.155      860.150
06/17/2013  21:16:00     -427.230      -28.112      -18.945      201.747      181.524       87.175    40701.864    32950.987     7599.511       13.245        4.063      428.154       97.070        0.051      343.738       20.059      860.101
06/17/2013  21:17:00     -410.484     -158.016       -2.154      181.867      165.032       93.447    33075.516    27235.423     8732.287       13.124        3.452      439.848       94.016        0.046      343.732       20.048      860.111
06/17/2013  21:18:00     -488.252      -20.695      -13.103      223.304      172.377       87.985    49864.472    29713.758     7741.279       16.314        4.366      488.690       89.236        0.033      343.707       20.003      860.143
06/17/2013  21:19:00     -565.532     -131.814      -28.464      235.033      209.343      110.919    55240.727    43824.553    12303.016       22.467        5.568      580.691      113.604        0.038      343.709       20.007      860.124
06/17/2013  21:20:00     -579.443     -106.767      -28.043      219.749      182.367       97.435    48289.564    33257.715     9493.657       21.947        4.552      589.197       88.884        0.023      343.706       20.002      860.170
06/17/2013  21:21:00     -407.701      -78.149      -16.661      239.478      194.962       91.327    57349.914    38010.272     8340.556       13.813        5.185      415.123      114.289        0.076      343.696       19.986      860.195
06/17/2013  21:22:00     -510.522      -93.168      -26.265      202.534      139.605       77.512    41020.065    19489.625     6008.143       16.825        3.326      518.954       95.899        0.034      343.682       19.961      860.219
06/17/2013  21:23:00     -556.883      -75.094      -27.126      157.619      167.388       88.636    24843.900    28018.637     7856.275       18.859        3.036      561.923       91.428        0.026      343.654       19.913      860.233
06/17/2013  21:24:00     -475.430      -26.808      -17.826      247.293      139.287       84.317    61153.788    19400.973     7109.273       15.735        4.383      476.185      102.632        0.046      343.660       19.925      860.240
06/17/2013  21:25:00     -537.489      -99.345      -21.024      239.326      177.130      110.210    57276.890    31375.052    12146.197       19.998        5.040      546.593      115.938        0.045      343.660       19.923      860.233
06/17/2013  21:26:00     -613.135     -102.776      -31.937      237.294      177.122       97.519    56308.534    31372.183     9509.999       24.233        4.860      621.689      112.523        0.033      343.615       19.848      860.269
06/17/2013  21:27:00     -451.607        1.795      -15.125      181.373      191.686       98.265    32896.305    36743.423     9655.986       14.172        3.965      451.610       91.861        0.041      343.587       19.799      860.253
06/17/2013  21:28:00     -407.970      -49.941      -15.176      193.979      146.724       88.052    37627.826    21527.799     7753.144       11.802        3.345      411.015       93.739        0.052      343.587       19.798      860.280
06/17/2013  21:29:00     -500.344      -32.605      -49.365      163.949      134.051       87.427    26879.403    17969.631     7643.556       15.316        2.625      501.405       84.532        0.028      343.557       19.749      860.280
06/17/2013  21:30:00     -557.467      -45.973      -42.244      258.734      149.135       88.650    66943.150    22241.191     7858.852       20.584        4.852      559.360       98.318        0.031      343.552       19.740      860.250
06/17/2013  21:31:00     -554.499     -146.105      -38.679      241.278      189.922      104.707    58214.957    36070.415    10963.475       21.776        5.262      573.425      100.825        0.031      343.572       19.774      860.202
06/17/2013  21:32:00     -593.417      -93.136      -52.517      220.466      190.229      100.777    48605.158    36187.040    10156.066       22.924        4.747      600.682      105.423        0.031      343.571       19.772      860.212
06/17/2013  21:33:00     -545.189      -76.304      -32.779      222.968      192.079       96.435    49714.797    36894.446     9299.674       20.000        4.795      550.503      107.053        0.038      343.559       19.753      860.231
06/17/2013  21:34:00     -786.135     -139.783      -23.940      285.314      202.357      125.889    81403.803    40948.557    15848.066       38.813        6.910      798.466      142.509        0.032      343.543       19.725      860.204
06/17/2013  21:35:00     -558.105     -108.650       -8.559      261.067      193.054      109.342    68156.167    37270.035    11955.616       22.035        5.869      568.583      134.029        0.056      343.518       19.683      860.202
06/17/2013  21:36:00     -520.239      -19.989      -22.331      320.771      178.074      111.081   102894.099    31710.199    12338.937       20.922        7.347      520.623      138.697        0.071      343.509       19.668      860.227
06/17/2013  21:37:00     -528.606     -133.283      -31.118      229.364      164.216       83.464    52608.007    26966.829     6966.259       19.233        4.327      545.150       83.972        0.024      343.504       19.658      860.245
06/17/2013  21:38:00     -611.278     -129.458      -30.959      268.550      227.210      113.751    72119.369    51624.393    12939.280       26.400        6.834      624.836      118.437        0.036      343.504       19.657      860.245
06/17/2013  21:39:00     -601.424      -92.750      -33.878      256.314      183.915       95.953    65696.806    33824.642     9206.931       24.007        5.436      608.534      112.889        0.034      343.493       19.640      860.227
06/17/2013  21:40:00     -551.250      -24.521      -35.260      275.631      190.510       98.751    75972.262    36293.885     9751.716       21.384        6.101      551.795      115.779        0.044      343.495       19.642      860.238
06/17/2013  21:41:00     -525.082      -49.391      -41.776      319.420      144.350       98.253   102029.059    20837.051     9653.636       20.618        6.626      527.400      135.736        0.066      343.469       19.601      860.243
06/17/2013  21:42:00     -590.225     -134.545      -24.533      221.351      184.018       86.930    48996.469    33862.443     7556.759       22.872        4.521      605.366       97.742        0.026      343.452       19.572      860.256
06/17/2013  21:43:00     -522.545     -135.659      -24.982      185.269      157.330       88.101    34324.504    24752.881     7761.796       17.945        3.342      539.867       89.889        0.028      343.427       19.528      860.270
06/17/2013  21:44:00     -528.322      -39.524      -36.103      212.728      158.671       91.235    45253.164    25176.568     8323.859       18.036        3.938      529.799       88.710        0.028      343.410       19.498      860.265
06/17/2013  21:45:00     -460.309     -155.232      -20.943      204.040      154.808       84.600    41632.470    23965.405     7157.194       15.457        3.638      485.779       78.439        0.026      343.407       19.493      860.254
06/17/2013  21:46:00     -570.924     -127.749      -29.312      235.764      159.476       96.335    55584.601    25432.641     9280.506       21.670        4.515      585.042      115.996        0.039      343.395       19.473      860.279
06/17/2013  21:47:00     -380.289      -43.470        2.409      199.916      143.931       89.719    39966.264    20716.161     8049.533       10.761        3.437      382.765      107.602        0.079      343.372       19.435      860.308
06/17/2013  21:48:00     -474.730      -58.997       -7.244      218.623      191.541       86.698    47796.065    36688.102     7516.550       16.043        4.600      478.382      105.011        0.048      343.388       19.461      860.317
06/17/2013  21:49:00     -498.576     -138.415      -35.834      205.690      177.716       89.276    42308.571    31582.850     7970.210       17.542        4.093      517.433       92.940        0.032      343.387       19.459      860.315
06/17/2013  21:50:00     -642.308     -127.981      -23.606      263.145      167.883      102.535    69245.479    28184.659    10513.446       26.870        5.397      654.934      120.768        0.034      343.381       19.449      860.311
06/17/2013  21:51:00     -574.123     -179.681      -29.781      183.666      182.949       86.050    33733.208    33470.404     7404.585       21.868        3.730      601.583       89.204        0.022      343.376       19.442      860.312
06/17/2013  21:52:00     -500.076     -115.556      -21.348      170.797      165.464       83.413    29171.627    27378.483     6957.717       16.368        3.175      513.254       78.979        0.024      343.348       19.393      860.296
06/17/2013  21:53:00     -520.217      -59.116      -32.379      234.896      161.768       94.263    55176.313    26168.983     8885.507       18.268        4.512      523.565       96.420        0.034      343.329       19.360      860.275
06/17/2013  21:54:00     -523.515     -118.597      -15.013      239.905      182.292       88.139    57554.203    33230.339     7768.443       19.344        4.928      536.781      112.564        0.044      343.325       19.354      860.291
06/17/2013  21:55:00     -611.622      -86.468      -43.506      253.873      151.679       95.466    64451.639    23006.663     9113.844       23.999        4.829      617.704      103.870        0.028      343.325       19.353      860.263
06/17/2013  21:56:00     -557.642      -88.720      -37.035      212.678      169.418       98.402    45232.015    28702.331     9682.924       20.190        4.181      564.656      103.828        0.034      343.325       19.353      860.266
06/17/2013  21:57:00     -613.944     -150.562      -19.647      223.256      163.951       89.933    49843.111    26879.919     8087.950       24.238        4.241      632.137      101.063        0.026      343.322       19.349      860.292
06/17/2013  21:58:00     -422.165      -75.476      -10.105      205.296      133.083       85.764    42146.344    17711.209     7355.449       12.560        3.361      428.859       85.721        0.040      343.302       19.314      860.312
06/17/2013  21:59:00     -429.513     -125.728       -5.925      197.662      191.859       85.300    39070.413    36809.693     7276.084       14.172        4.158      447.537       92.028        0.042      343.295       19.302      860.305
06/17/2013  22:00:00     -648.341     -169.413      -32.677      194.580      214.818       97.582    37861.475    46146.702     9522.301       27.180        4.677      670.109       87.402        0.017      343.292       19.298      860.293
06/17/2013  22:01:00     -579.931     -169.162        4.179      233.154      179.496      100.082    54360.897    32218.820    10016.503       23.076        4.830      604.099      121.960        0.041      343.284       19.283      860.257
06/17/2013  22:02:00     -448.086     -150.155      -10.754      202.017      167.680       86.937    40810.986    28116.526     7558.120       14.995        3.824      472.575       78.741        0.028      343.253       19.230      860.275
06/17/2013  22:03:00     -437.889      -81.341      -29.176      244.469      177.460       78.657    59765.075    31492.103     6186.945       14.831        4.872      445.380      100.165        0.051      343.272       19.263      860.285
06/17/2013  22:04:00     -428.931     -151.566       -3.768      223.385      164.261      102.660    49901.051    26981.785    10539.105       14.718        4.371      454.922      117.093        0.066      343.280       19.277      860.269
06/17/2013  22:05:00     -483.984      -92.563      -21.261      201.284      171.218       90.616    40515.050    29315.469     8211.212       16.064        3.902      492.756       95.071        0.037      343.290       19.292      860.293
06/17/2013  22:06:00     -450.028      -97.217       -0.266      189.205      197.536       99.190    35798.400    39020.471     9838.725       14.830        4.233      460.409       96.947        0.044      343.278       19.273      860.279
06/17/2013  22:07:00     -584.491     -134.457      -32.744      201.566      176.542      101.977    40629.049    31166.975    10399.381       22.147        4.110      599.757      101.079        0.028      343.274       19.265      860.281
06/17/2013  22:08:00     -473.898      -93.128      -24.165      190.052      157.063       86.953    36119.631    24668.897     7560.775       15.108        3.417      482.962       84.910        0.031      343.260       19.243      860.276
06/17/2013  22:09:00     -564.648      -76.031      -16.901      186.924      135.297       95.626    34940.676    18305.232     9144.345       19.363        3.120      569.744       94.913        0.028      343.292       19.298      860.281
06/17/2013  22:10:00     -439.927      -77.467      -21.450      190.131      124.567       68.928    36149.903    15517.021     4751.124       12.820        2.821      446.696       74.188        0.028      343.321       19.346      860.307
06/17/2013  22:11:00     -339.933      -49.339       -4.020      166.568      107.922       66.791    27744.888    11647.098     4461.030        8.092        2.193      343.495       75.366        0.048      343.284       19.284      860.334
06/17/2013  22:12:00     -307.941      -67.898       -0.078      204.094      130.884       74.423    41654.329    17130.717     5538.808        8.187        3.216      315.338       91.370        0.084      343.267       19.257      860.367
06/17/2013  22:13:00     -351.465      -83.764       -4.829      189.368      161.946       89.255    35860.393    26226.570     7966.451       10.030        3.503      361.309      100.322        0.077      343.304       19.319      860.368
06/17/2013  22:14:00     -298.269      -56.994       -2.995      158.663      142.697       71.080    25174.033    20362.409     5052.402        7.140        2.529      303.666       70.553        0.054      343.282       19.280      860.369
06/17/2013  22:15:00     -482.203       58.325      -30.920      158.729      166.755       79.180    25194.962    27807.337     6269.490       14.806        2.964      485.717       75.619        0.024      343.293       19.299      860.374
06/17/2013  22:16:00     -413.878     -146.078        7.306      167.555      175.061       97.814    28074.683    30646.308     9567.553       13.047        3.414      438.901       97.333        0.049      343.307       19.322      860.376
06/17/2013  22:17:00     -361.845      -26.083        0.186      206.741      124.768       86.006    42741.873    15567.109     7396.975        9.865        3.285      362.784       97.495        0.072      343.312       19.332      860.395
06/17/2013  22:18:00     -170.414     -151.865       21.233      178.008      124.993       93.626    31686.921    15623.162     8765.920        5.430        2.804      228.263      100.344        0.193      343.309       19.326      860.401
06/17/2013  22:19:00     -102.146      -88.203       21.616      113.360       87.494       53.045    12850.556     7655.135     2813.782        2.100        1.166      134.958       56.820        0.177      343.282       19.282      860.419
06/17/2013  22:20:00     -169.356     -119.555       12.083      180.148      106.566       61.552    32453.314    11356.207     3788.678        4.535        2.380      207.304       85.727        0.171      343.278       19.274      860.458
06/17/2013  22:21:00      -47.579     -107.237       27.432       93.810      108.089       56.110     8800.304    11683.279     3148.382        1.907        1.182      117.318       53.464        0.208      343.290       19.296      860.483
06/17/2013  22:22:00       -2.027      -67.067       17.210       42.245       75.842       44.696     1784.681     5752.007     1997.732        0.716        0.477       67.097       24.061        0.129      343.289       19.297      860.488
06/17/2013  22:23:00       -2.653      -66.983       -2.613       66.958       71.141       43.496     4483.393     5060.999     1891.878        0.797        0.572       67.035       17.530        0.068      343.255       19.240      860.504
06/17/2013  22:24:00      -11.476      -96.153       29.161       68.717       66.630       52.565     4722.041     4439.571     2763.059        1.107        0.596       96.835       42.342        0.191      343.305       19.323      860.507
06/17/2013  22:25:00      -77.302      -62.851       19.144      146.019      105.471       71.762    21321.511    11124.134     5149.727        2.394        1.880       99.629       77.577        0.606      343.270       19.261      860.505
06/17/2013  22:26:00      -59.035       -9.253        4.756       90.909      106.929       52.611     8264.356    11433.858     2767.943        1.303        1.123       59.756       50.873        0.725      343.247       19.224      860.496
06/17/2013  22:27:00      -84.570      -95.387       19.824      103.697       76.725       62.265    10752.967     5886.698     3876.958        1.858        1.026      127.478       62.643        0.241      343.310       19.331      860.439
06/17/2013  22:28:00      -27.702      -34.658       17.367       53.445       56.194       30.114     2856.340     3157.757      906.852        0.459        0.346       44.369       37.129        0.700      343.258       19.243      860.444
06/17/2013  22:29:00      -15.357     -139.058        4.151       70.983       48.240       39.222     5038.556     2327.070     1538.386        1.425        0.445      139.903       36.223        0.067      343.288       19.294      860.449
06/17/2013  22:30:00      -62.579     -117.730       -0.164       82.792       86.862       55.762     6854.531     7544.938     3109.362        1.764        0.875      133.329       53.802        0.163      343.315       19.339      860.472
06/17/2013  22:31:00      -28.939     -193.974        0.544       79.439      101.262       48.237     6310.486    10253.986     2326.821        2.867        0.945      196.121       29.262        0.022      343.362       19.417      860.481
06/17/2013  22:32:00       -9.476     -172.806       -3.033       71.779       93.005       42.262     5152.262     8649.887     1786.090        2.277        0.779      173.065       37.895        0.048      343.337       19.375      860.484
06/17/2013  22:33:00       14.769      -13.634       18.394       41.260       65.373       39.691     1702.375     4273.643     1575.411        0.415        0.378       20.100       26.768        1.773      343.241       19.214      860.486
06/17/2013  22:34:00        7.721      -36.795        6.830       71.620       55.819       44.288     5129.397     3115.815     1961.387        0.583        0.510       37.596       43.540        1.341      343.162       19.079      860.462
06/17/2013  22:35:00        7.218       17.607       31.651       44.074       38.872       28.228     1942.502     1511.025      796.807        0.281        0.213       19.029       26.755        1.977      343.122       19.012      860.445
06/17/2013  22:36:00      -13.277      -26.371       27.420       24.053       34.614       23.051      578.552     1198.134      531.366        0.197        0.115       29.525       14.094        0.228      343.093       18.962      860.440
06/17/2013  22:37:00      -18.388       49.153       -5.912       25.829       67.990       23.539      667.116     4622.614      554.088        0.432        0.292       52.480       23.473        0.200      343.143       19.047      860.452
06/17/2013  22:38:00       42.371       38.986       -5.743       37.009       27.910       22.366     1369.690      778.992      500.236        0.300        0.132       57.578       18.484        0.103      343.191       19.129      860.449
06/17/2013  22:39:00        4.664       15.674        1.227       26.849       17.210       15.213      720.879      296.194      231.438        0.076        0.062       16.353       11.224        0.471      343.164       19.083      860.434
06/17/2013  22:40:00      138.853       92.528       38.354       67.745       51.436       43.566     4589.334     2645.630     1897.981        1.922        0.457      166.858       34.659        0.043      343.221       19.177      860.389
06/17/2013  22:41:00       33.129      -16.827       48.680       37.974       94.525       56.139     1442.033     8935.008     3151.564        0.864        0.676       37.158       63.249        2.897      343.109       18.989      860.379
06/17/2013  22:42:00       60.477      -82.747      -11.362       42.148       48.953       40.689     1776.484     2396.416     1655.555        0.823        0.291      102.492       35.761        0.122      343.212       19.165      860.411
06/17/2013  22:43:00       24.719       31.169       63.874       42.815       48.373       36.982     1833.094     2339.932     1367.659        0.560        0.277       39.781       32.261        0.658      343.153       19.064      860.422
06/17/2013  22:44:00       56.544      -21.944        5.225       28.014       45.927       27.634      784.763     2109.245      763.611        0.368        0.183       60.653       25.333        0.174      343.241       19.215      860.394
06/17/2013  22:45:00       47.486       47.104       36.423       37.529       32.314       22.491     1408.429     1044.203      505.860        0.438        0.148       66.886       21.841        0.107      343.096       18.967      860.364
06/17/2013  22:46:00       21.664        6.358       34.936       27.941       39.126       26.731      780.677     1530.812      714.534        0.238        0.151       22.578       24.668        1.194      343.102       18.976      860.328
06/17/2013  22:47:00       -5.948       25.862       30.732       21.998       27.645       22.920      483.895      764.219      525.348        0.171        0.089       26.537       14.186        0.286      342.974       18.759      860.321
06/17/2013  22:48:00       15.888       60.509        2.887       38.407       37.578       21.393     1475.066     1412.134      457.678        0.363        0.167       62.560       21.145        0.114      343.007       18.815      860.338
06/17/2013  22:49:00       18.465       33.993        2.895       49.284       26.926       19.312     2428.873      724.993      372.950        0.252        0.176       38.685       21.375        0.305      342.946       18.712      860.319
06/17/2013  22:50:00      -43.622       20.349      -13.087       20.767       23.073        9.930      431.283      532.349       98.611        0.178        0.053       48.135        5.913        0.015      342.968       18.749      860.340
06/17/2013  22:51:00       49.272       54.154       39.470       31.731       33.540       29.856     1006.837     1124.940      891.356        0.497        0.151       73.214       21.908        0.090      343.042       18.877      860.345
06/17/2013  22:52:00      -10.885       39.125       69.003       22.855       37.412       23.393      522.350     1399.620      547.226        0.444        0.123       40.611       20.846        0.263      342.906       18.644      860.338
06/17/2013  22:53:00       11.112      -51.485       10.693       28.378       38.357       21.489      805.301     1471.290      461.784        0.281        0.137       52.670       17.110        0.106      342.992       18.790      860.341
06/17/2013  22:54:00       36.548      -16.022       18.092       30.937       33.585       21.787      957.074     1127.970      474.695        0.224        0.128       39.906       21.763        0.297      343.122       19.011      860.334
06/17/2013  22:55:00       56.694       -4.714        5.332       34.468       46.041       31.990     1188.021     2119.763     1023.329        0.380        0.217       56.889       34.052        0.358      343.198       19.139      860.264
06/17/2013  22:56:00       55.904      -41.244       10.471       35.772       40.556       27.480     1279.623     1644.764      755.159        0.431        0.184       69.472       30.789        0.196      343.107       18.986      860.223
06/17/2013  22:57:00       36.914       92.526       86.840       32.862       65.277       41.589     1079.921     4261.124     1729.643        1.227        0.354       99.618       43.630        0.192      343.008       18.816      860.199
06/17/2013  22:58:00      -14.599      -57.944       -0.380       36.370       35.497       18.705     1322.773     1260.008      349.876        0.325        0.147       59.755       20.869        0.122      343.082       18.943      860.233
06/17/2013  22:59:00       20.306       14.563       14.464       24.297       12.994       14.238      590.355      168.847      202.721        0.090        0.048       24.988       12.132        0.236      343.037       18.865      860.223
06/17/2013  23:00:00        9.105       55.803      -13.373       40.967       36.965       10.607     1678.256     1366.409      112.516        0.327        0.158       56.541        8.108        0.021      343.128       19.022      860.219
06/17/2013  23:01:00      131.361      102.022       30.569       53.801       40.027       43.889     2894.599     1602.192     1926.222        1.751        0.321      166.325       26.187        0.025      343.082       18.942      860.133
06/17/2013  23:02:00       80.479       27.350       24.121       52.961       45.305       32.903     2804.910     2052.570     1082.621        0.687        0.297       84.999       26.643        0.098      342.931       18.686      860.097
06/17/2013  23:03:00       59.177      -33.536       12.644       40.127       28.571       17.628     1610.179      816.297      310.734        0.376        0.137       68.019       14.520        0.046      342.954       18.726      860.107
06/17/2013  23:04:00       55.580       -3.521       33.876       38.612       81.566       42.842     1490.856     6652.989     1835.469        0.711        0.499       55.692       54.186        0.947      342.784       18.436      860.106
06/17/2013  23:05:00       21.745      103.779      118.662       49.992       53.101       40.365     2499.241     2819.670     1629.353        1.613        0.347      106.032       38.493        0.132      342.818       18.493      860.096
06/17/2013  23:06:00       53.705       69.653       86.283       58.458       82.622       54.699     3417.354     6826.409     2992.024        1.421        0.662       87.954       42.529        0.234      342.867       18.576      860.124
06/17/2013  23:07:00       14.536       -2.792       60.457       33.988       59.754       38.535     1155.163     3570.494     1484.925        0.504        0.311       14.802       33.438        5.104      342.800       18.463      860.145
06/17/2013  23:08:00       23.434       -3.659       37.736       34.740       36.214       26.731     1206.839     1311.430      714.564        0.261        0.162       23.718       18.977        0.640      342.711       18.311      860.148
06/17/2013  23:09:00       30.897       69.463       78.834       42.423       59.624       40.868     1799.686     3555.056     1670.170        0.951        0.351       76.025       40.153        0.279      342.812       18.482      860.081
06/17/2013  23:10:00      110.981       93.095       54.003       53.690       37.114       48.185     2882.631     1377.472     2321.772        1.524        0.329      144.857       37.273        0.066      342.866       18.576      860.006
06/17/2013  23:11:00      115.043       53.512       20.580       50.617       40.075       28.182     2562.130     1606.043      794.253        1.074        0.248      126.879       19.468        0.024      342.867       18.576      860.017
06/17/2013  23:12:00       93.236       36.983        0.287       25.225       22.863       21.540      636.319      522.715      463.989        0.584        0.081      100.303       12.638        0.016      342.951       18.720      860.062
06/17/2013  23:13:00       29.630        3.081        5.363       25.793       25.472       17.820      665.300      648.812      317.550        0.127        0.082       29.790       18.587        0.389      342.852       18.551      860.081
06/17/2013  23:14:00       -5.746       -3.306       11.757       41.695       17.643       13.855     1738.495      311.274      191.972        0.121        0.112        6.629       14.045        4.488      342.757       18.388      860.083
06/17/2013  23:15:00      -47.940      -11.836        8.523       38.717       37.346       17.658     1499.037     1394.713      311.806        0.286        0.160       49.379       18.280        0.137      342.722       18.330      860.066
06/17/2013  23:16:00       -3.917       25.834       -0.387       10.750       17.005       17.279      115.560      289.182      298.568        0.069        0.035       26.129        7.826        0.090      342.750       18.377      860.031
06/17/2013  23:17:00      -22.344       40.275       -5.435       29.014       31.825       13.789      841.840     1012.858      190.138        0.210        0.102       46.058       13.461        0.085      342.823       18.502      860.006
06/17/2013  23:18:00       67.975       70.182       -2.684       23.809       25.959       18.019      566.858      673.861      324.701        0.556        0.078       97.704       12.981        0.018      342.953       18.723      859.993
06/17/2013  23:19:00       63.363       32.763       23.118       27.291       20.253       24.318      744.825      410.182      591.380        0.368        0.087       71.332       19.713        0.076      342.902       18.635      859.987
06/17/2013  23:20:00       35.126       79.225       78.562       37.758       29.091       15.392     1425.679      846.289      236.905        0.810        0.125       86.663       13.929        0.026      342.872       18.585      860.010
06/17/2013  23:21:00       78.040      -82.890        7.293       69.244       57.313       37.566     4794.800     3284.822     1411.200        1.125        0.475      113.847       46.928        0.170      343.017       18.833      860.053
06/17/2013  23:22:00       28.711       -7.695       44.349       38.439       61.313       36.331     1477.553     3759.327     1319.948        0.470        0.328       29.724       34.718        1.364      342.971       18.755      860.088
06/17/2013  23:23:00       59.360      -94.998       -4.627       54.042       47.742       29.517     2920.574     2279.262      871.248        0.932        0.304      112.018       30.141        0.072      343.011       18.822      860.112
06/17/2013  23:24:00       18.915      -77.618        8.889       45.200       72.910       32.724     2043.059     5315.829     1070.852        0.744        0.421       79.889       38.448        0.232      342.933       18.689      860.097
06/17/2013  23:25:00       13.503       35.044       78.406       38.645       77.130       42.948     1493.473     5948.978     1844.503        0.842        0.464       37.556       50.211        1.788      342.829       18.513      860.053
06/17/2013  23:26:00       59.678       33.323       61.071       48.117       48.020       30.373     2315.215     2305.898      922.523        0.697        0.277       68.351       33.014        0.233      342.831       18.515      860.020
06/17/2013  23:27:00       79.368      -57.457        9.328       50.207       70.250       48.710     2520.758     4935.128     2372.706        0.976        0.491       97.983       38.488        0.154      342.852       18.552      860.028
06/17/2013  23:28:00       44.313      -51.185       18.782       37.467       55.239       34.734     1403.767     3051.309     1206.443        0.530        0.283       67.702       34.453        0.259      342.817       18.490      860.063
06/17/2013  23:29:00       23.893      -77.900      -12.772       47.374       43.381       19.129     2244.282     1881.949      365.927        0.565        0.225       81.482       19.418        0.057      342.852       18.552      860.088
06/17/2013  23:30:00       -7.519       -3.122        4.489       15.128       12.155       11.275      228.858      147.736      127.128        0.029        0.025        8.141       11.093        1.857      342.691       18.278      860.081
06/17/2013  23:31:00      -16.996       -3.994        2.938       22.534       13.713       14.784      507.771      188.039      218.562        0.061        0.046       17.459       11.307        0.419      342.691       18.276      860.055
06/17/2013  23:32:00      -26.114        6.100        8.046       33.261       19.044       16.070     1106.291      362.682      258.260        0.126        0.086       26.817       15.579        0.338      342.644       18.197      860.031
06/17/2013  23:33:00       22.925       80.584       73.307       28.611       40.112       37.059      818.578     1608.954     1373.361        0.810        0.190       83.782       34.965        0.174      342.608       18.136      860.010
06/17/2013  23:34:00        9.236      113.077      130.968       35.477       37.226       22.470     1258.612     1385.803      504.879        1.659        0.157      113.454       15.533        0.019      342.723       18.332      859.993
06/17/2013  23:35:00        5.965       95.041      114.009       39.518       62.630       42.870     1561.653     3922.562     1837.853        1.469        0.366       95.228       30.568        0.103      342.976       18.763      859.977
06/17/2013  23:36:00      -25.726       34.897       77.977       28.111       50.306       63.043      790.206     2530.680     3974.426        0.763        0.365       43.355       45.848        1.118      342.937       18.697      860.012
06/17/2013  23:37:00       32.181       25.029       44.274       44.975       42.696       28.491     2022.772     1822.918      811.733        0.414        0.233       40.769       29.492        0.523      342.872       18.586      860.052
06/17/2013  23:38:00        7.355      -68.088       25.763       66.392       73.682       44.378     4407.864     5429.049     1969.435        0.858        0.590       68.484       37.031        0.292      342.769       18.410      860.045
06/17/2013  23:39:00       48.716      -44.750       37.618       53.133       98.874       51.308     2823.139     9776.094     2632.490        1.051        0.762       66.150       59.625        0.812      342.690       18.277      860.035
06/17/2013  23:40:00       43.416      -33.372       48.861       59.828       92.426       46.072     3579.335     8542.581     2122.605        0.981        0.712       54.760       53.599        0.958      342.592       18.108      860.045
06/17/2013  23:41:00       62.444     -127.055      -15.684       44.880       47.878       26.919     2014.218     2292.330      724.658        1.266        0.252      141.570       24.354        0.030      342.601       18.125      860.077
06/17/2013  23:42:00       33.521      -47.521       22.986       44.226       62.210       37.230     1955.982     3870.098     1386.103        0.556        0.361       58.154       37.569        0.417      342.502       17.955      860.090
06/17/2013  23:43:00       83.067     -131.800       -9.539       72.928       72.293       52.155     5318.446     5226.222     2720.123        1.881        0.663      155.793       50.935        0.107      342.503       17.955      860.091
06/17/2013  23:44:00       76.831     -145.804      -25.121       84.855       52.190       38.330     7200.453     2723.844     1469.152        1.959        0.570      164.809       25.999        0.025      342.543       18.026      860.096
06/17/2013  23:45:00       41.615     -122.541        5.493       52.367       55.514       37.026     2742.279     3081.848     1370.916        1.199        0.360      129.414       26.140        0.041      342.560       18.056      860.095
06/17/2013  23:46:00       18.807      -54.917       13.662       49.669       45.520       34.321     2467.048     2072.091     1177.944        0.464        0.286       58.048       27.418        0.223      342.600       18.124      860.081
06/17/2013  23:47:00       30.288     -106.176      -11.452       46.581       46.973       24.793     2169.833     2206.462      614.678        0.866        0.250      110.411       18.843        0.029      342.586       18.099      860.085
06/17/2013  23:48:00       72.459     -147.678       -9.142       55.881       59.718       32.980     3122.734     3566.260     1087.673        1.746        0.389      164.496       28.225        0.029      342.627       18.167      860.129
06/17/2013  23:49:00        1.656     -136.907      -16.418       50.767       50.712       29.691     2577.317     2571.734      881.529        1.252        0.302      136.917       21.214        0.024      342.641       18.192      860.174
06/17/2013  23:50:00       26.873     -119.136      -11.262       85.948       92.075       52.089     7387.114     8477.804     2713.314        1.681        0.929      122.130       56.915        0.217      342.669       18.240      860.172
06/17/2013  23:51:00        3.196      -63.054       -3.764       55.213       55.604       35.401     3048.504     3091.816     1253.245        0.570        0.370       63.135       32.216        0.260      342.615       18.149      860.159
06/17/2013  23:52:00      -79.926      -52.160        4.474       44.637       39.536       28.206     1992.482     1563.127      795.573        0.674        0.218       95.440       13.017        0.019      342.634       18.182      860.146
06/17/2013  23:53:00       -0.427      -67.091        3.556       60.853       42.289       32.647     3703.091     1788.345     1065.839        0.553        0.328       67.092       36.289        0.293      342.738       18.357      860.127
06/17/2013  23:54:00       27.334      -88.631       -8.646       39.579       43.684       23.473     1566.500     1908.335      550.980        0.635        0.201       92.751       18.381        0.039      342.885       18.608      860.132
06/17/2013  23:55:00        1.986      -49.949       -6.599       26.756       37.903       19.947      715.888     1436.620      397.869        0.255        0.128       49.988        8.127        0.026      342.800       18.462      860.153
06/17/2013  23:56:00      -52.423       29.312      -11.621       28.062       16.968       13.461      787.489      287.917      181.195        0.250        0.063       60.061        2.028        0.001      342.723       18.332      860.177
06/17/2013  23:57:00      -54.519       77.204      -19.391       35.166       54.944       21.169     1236.670     3018.817      448.147        0.701        0.235       94.513       17.933        0.036      342.533       18.010      860.196
06/17/2013  23:58:00       14.509      155.222      -32.283       32.230       57.754       23.902     1038.802     3335.492      571.312        1.515        0.247      155.899       27.455        0.031      342.388       17.762      860.209
06/17/2013  23:59:00       39.461       60.191       12.599       44.492       59.414       40.423     1979.542     3530.065     1634.032        0.624        0.357       71.973       37.615        0.273      342.292       17.601      860.202
